<?xml version="1.0" encoding="UTF-8" standalone="no" ?>
<gpx xmlns="http://www.topografix.com/GPX/1/1" xmlns:xsi="http://www.w3.org/2001/XMLSchema-instance" xsi:schemaLocation="http://www.topografix.com/GPX/1/1 http://www.topografix.com/GPX/1/1/gpx.xsd" version="1.1" creator="VisuGPX - https://www.visugpx.com">
  <metadata>
    <name>Arèches Boudin 26 Janvier</name>
    <desc><![CDATA[Très belle journée, soleil et ciel bleu.
Vue magnifique, neige extra !
Garmin
Grenam13]]></desc>
  </metadata>
  <trk>
    <name><![CDATA[ACTIVE LOG094455]]></name>
    <trkseg>
      <trkpt lat="45.69293" lon="6.56254">
        <ele>1340.272</ele>
        <time>2012-01-26T08:44:55Z</time>
      </trkpt>
      <trkpt lat="45.69293" lon="6.56254">
        <ele>1340.652</ele>
        <time>2012-01-26T08:45:04Z</time>
      </trkpt>
      <trkpt lat="45.69293" lon="6.56254">
        <ele>1340.079</ele>
        <time>2012-01-26T08:45:14Z</time>
      </trkpt>
      <trkpt lat="45.69293" lon="6.56254">
        <ele>1340.187</ele>
        <time>2012-01-26T08:45:24Z</time>
      </trkpt>
      <trkpt lat="45.69293" lon="6.56254">
        <ele>1340.488</ele>
        <time>2012-01-26T08:45:34Z</time>
      </trkpt>
      <trkpt lat="45.69293" lon="6.56254">
        <ele>1340.295</ele>
        <time>2012-01-26T08:45:44Z</time>
      </trkpt>
      <trkpt lat="45.69293" lon="6.56254">
        <ele>1340.166</ele>
        <time>2012-01-26T08:45:54Z</time>
      </trkpt>
    </trkseg>
  </trk>
  <trk>
    <name><![CDATA[ACTIVE LOG094559]]></name>
    <trkseg>
      <trkpt lat="45.68711" lon="6.57667">
        <ele>1340.488</ele>
        <time>2012-01-26T08:45:59Z</time>
      </trkpt>
      <trkpt lat="45.68707" lon="6.57664">
        <ele>1339.939</ele>
        <time>2012-01-26T08:46:09Z</time>
      </trkpt>
      <trkpt lat="45.68707" lon="6.57664">
        <ele>1340.372</ele>
        <time>2012-01-26T08:46:19Z</time>
      </trkpt>
      <trkpt lat="45.68707" lon="6.57663">
        <ele>1340.2</ele>
        <time>2012-01-26T08:46:29Z</time>
      </trkpt>
      <trkpt lat="45.68707" lon="6.57663">
        <ele>1340.412</ele>
        <time>2012-01-26T08:46:39Z</time>
      </trkpt>
      <trkpt lat="45.68707" lon="6.57663">
        <ele>1340.409</ele>
        <time>2012-01-26T08:46:49Z</time>
      </trkpt>
      <trkpt lat="45.68707" lon="6.57663">
        <ele>1340.295</ele>
        <time>2012-01-26T08:46:59Z</time>
      </trkpt>
      <trkpt lat="45.68707" lon="6.57663">
        <ele>1340.353</ele>
        <time>2012-01-26T08:47:09Z</time>
      </trkpt>
      <trkpt lat="45.68707" lon="6.57663">
        <ele>1339.987</ele>
        <time>2012-01-26T08:47:19Z</time>
      </trkpt>
      <trkpt lat="45.68707" lon="6.57663">
        <ele>1339.859</ele>
        <time>2012-01-26T08:47:29Z</time>
      </trkpt>
      <trkpt lat="45.68707" lon="6.57663">
        <ele>1340.398</ele>
        <time>2012-01-26T08:47:39Z</time>
      </trkpt>
      <trkpt lat="45.68707" lon="6.57663">
        <ele>1340.635</ele>
        <time>2012-01-26T08:47:49Z</time>
      </trkpt>
      <trkpt lat="45.68707" lon="6.57663">
        <ele>1340.838</ele>
        <time>2012-01-26T08:47:59Z</time>
      </trkpt>
      <trkpt lat="45.68707" lon="6.57663">
        <ele>1340.287</ele>
        <time>2012-01-26T08:48:09Z</time>
      </trkpt>
      <trkpt lat="45.68708" lon="6.57663">
        <ele>1340.052</ele>
        <time>2012-01-26T08:48:19Z</time>
      </trkpt>
      <trkpt lat="45.68708" lon="6.57663">
        <ele>1340.79</ele>
        <time>2012-01-26T08:48:29Z</time>
      </trkpt>
      <trkpt lat="45.68708" lon="6.57663">
        <ele>1339.882</ele>
        <time>2012-01-26T08:48:39Z</time>
      </trkpt>
      <trkpt lat="45.68708" lon="6.57663">
        <ele>1340.302</ele>
        <time>2012-01-26T08:48:49Z</time>
      </trkpt>
      <trkpt lat="45.68708" lon="6.57663">
        <ele>1340.378</ele>
        <time>2012-01-26T08:48:59Z</time>
      </trkpt>
      <trkpt lat="45.68708" lon="6.57663">
        <ele>1339.286</ele>
        <time>2012-01-26T08:49:09Z</time>
      </trkpt>
      <trkpt lat="45.68708" lon="6.57663">
        <ele>1340.936</ele>
        <time>2012-01-26T08:49:19Z</time>
      </trkpt>
      <trkpt lat="45.68708" lon="6.57663">
        <ele>1340.812</ele>
        <time>2012-01-26T08:49:29Z</time>
      </trkpt>
      <trkpt lat="45.68706" lon="6.57665">
        <ele>1340.555</ele>
        <time>2012-01-26T08:49:39Z</time>
      </trkpt>
      <trkpt lat="45.68701" lon="6.57666">
        <ele>1341.075</ele>
        <time>2012-01-26T08:49:49Z</time>
      </trkpt>
      <trkpt lat="45.68699" lon="6.57666">
        <ele>1341.072</ele>
        <time>2012-01-26T08:49:58Z</time>
      </trkpt>
      <trkpt lat="45.68699" lon="6.57666">
        <ele>1341.072</ele>
        <time>2012-01-26T08:49:59Z</time>
      </trkpt>
      <trkpt lat="45.68696" lon="6.5767">
        <ele>1341.583</ele>
        <time>2012-01-26T08:50:09Z</time>
      </trkpt>
    </trkseg>
  </trk>
  <trk>
    <name><![CDATA[ACTIVE LOG095014]]></name>
    <trkseg>
      <trkpt lat="45.68694" lon="6.57672">
        <ele>1341.11</ele>
        <time>2012-01-26T08:50:13Z</time>
      </trkpt>
      <trkpt lat="45.68692" lon="6.57675">
        <ele>1342.058</ele>
        <time>2012-01-26T08:50:23Z</time>
      </trkpt>
      <trkpt lat="45.68686" lon="6.57681">
        <ele>1342.274</ele>
        <time>2012-01-26T08:50:33Z</time>
      </trkpt>
      <trkpt lat="45.68685" lon="6.57687">
        <ele>1342.929</ele>
        <time>2012-01-26T08:50:43Z</time>
      </trkpt>
      <trkpt lat="45.68685" lon="6.57692">
        <ele>1343.359</ele>
        <time>2012-01-26T08:50:53Z</time>
      </trkpt>
      <trkpt lat="45.68683" lon="6.57694">
        <ele>1343.631</ele>
        <time>2012-01-26T08:51:03Z</time>
      </trkpt>
      <trkpt lat="45.68683" lon="6.57699">
        <ele>1344.309</ele>
        <time>2012-01-26T08:51:13Z</time>
      </trkpt>
      <trkpt lat="45.68681" lon="6.57709">
        <ele>1345.801</ele>
        <time>2012-01-26T08:51:23Z</time>
      </trkpt>
      <trkpt lat="45.68678" lon="6.57717">
        <ele>1347.062</ele>
        <time>2012-01-26T08:51:33Z</time>
      </trkpt>
      <trkpt lat="45.68676" lon="6.57729">
        <ele>1348.445</ele>
        <time>2012-01-26T08:51:43Z</time>
      </trkpt>
      <trkpt lat="45.68674" lon="6.57738">
        <ele>1348.812</ele>
        <time>2012-01-26T08:51:53Z</time>
      </trkpt>
      <trkpt lat="45.68671" lon="6.57753">
        <ele>1349.771</ele>
        <time>2012-01-26T08:52:03Z</time>
      </trkpt>
      <trkpt lat="45.68668" lon="6.57764">
        <ele>1350.254</ele>
        <time>2012-01-26T08:52:13Z</time>
      </trkpt>
      <trkpt lat="45.68665" lon="6.57773">
        <ele>1351.478</ele>
        <time>2012-01-26T08:52:23Z</time>
      </trkpt>
      <trkpt lat="45.68663" lon="6.57782">
        <ele>1351.748</ele>
        <time>2012-01-26T08:52:33Z</time>
      </trkpt>
      <trkpt lat="45.68663" lon="6.57782">
        <ele>1351.521</ele>
        <time>2012-01-26T08:52:43Z</time>
      </trkpt>
      <trkpt lat="45.68663" lon="6.57782">
        <ele>1351.577</ele>
        <time>2012-01-26T08:52:53Z</time>
      </trkpt>
      <trkpt lat="45.68663" lon="6.57782">
        <ele>1351.765</ele>
        <time>2012-01-26T08:53:03Z</time>
      </trkpt>
      <trkpt lat="45.68663" lon="6.57782">
        <ele>1351.768</ele>
        <time>2012-01-26T08:53:13Z</time>
      </trkpt>
      <trkpt lat="45.68663" lon="6.57782">
        <ele>1351.713</ele>
        <time>2012-01-26T08:53:23Z</time>
      </trkpt>
      <trkpt lat="45.68663" lon="6.57782">
        <ele>1351.782</ele>
        <time>2012-01-26T08:53:33Z</time>
      </trkpt>
      <trkpt lat="45.68663" lon="6.57785">
        <ele>1351.959</ele>
        <time>2012-01-26T08:53:43Z</time>
      </trkpt>
      <trkpt lat="45.68663" lon="6.578">
        <ele>1353.1</ele>
        <time>2012-01-26T08:53:53Z</time>
      </trkpt>
      <trkpt lat="45.68664" lon="6.57814">
        <ele>1353.711</ele>
        <time>2012-01-26T08:54:03Z</time>
      </trkpt>
      <trkpt lat="45.68664" lon="6.57828">
        <ele>1354.296</ele>
        <time>2012-01-26T08:54:13Z</time>
      </trkpt>
      <trkpt lat="45.68666" lon="6.57841">
        <ele>1356.207</ele>
        <time>2012-01-26T08:54:23Z</time>
      </trkpt>
      <trkpt lat="45.68669" lon="6.57852">
        <ele>1356.924</ele>
        <time>2012-01-26T08:54:33Z</time>
      </trkpt>
      <trkpt lat="45.68673" lon="6.57863">
        <ele>1357.861</ele>
        <time>2012-01-26T08:54:43Z</time>
      </trkpt>
      <trkpt lat="45.68678" lon="6.57872">
        <ele>1359.217</ele>
        <time>2012-01-26T08:54:53Z</time>
      </trkpt>
      <trkpt lat="45.68681" lon="6.57883">
        <ele>1360.125</ele>
        <time>2012-01-26T08:55:03Z</time>
      </trkpt>
      <trkpt lat="45.68689" lon="6.57889">
        <ele>1361.237</ele>
        <time>2012-01-26T08:55:13Z</time>
      </trkpt>
      <trkpt lat="45.68692" lon="6.57894">
        <ele>1361.505</ele>
        <time>2012-01-26T08:55:23Z</time>
      </trkpt>
      <trkpt lat="45.68692" lon="6.57894">
        <ele>1361.38</ele>
        <time>2012-01-26T08:55:33Z</time>
      </trkpt>
      <trkpt lat="45.68692" lon="6.57894">
        <ele>1361.45</ele>
        <time>2012-01-26T08:55:43Z</time>
      </trkpt>
      <trkpt lat="45.68696" lon="6.57897">
        <ele>1362.793</ele>
        <time>2012-01-26T08:55:53Z</time>
      </trkpt>
      <trkpt lat="45.687" lon="6.57911">
        <ele>1363.716</ele>
        <time>2012-01-26T08:56:03Z</time>
      </trkpt>
      <trkpt lat="45.68707" lon="6.57925">
        <ele>1364.671</ele>
        <time>2012-01-26T08:56:13Z</time>
      </trkpt>
      <trkpt lat="45.68715" lon="6.57936">
        <ele>1365.994</ele>
        <time>2012-01-26T08:56:23Z</time>
      </trkpt>
      <trkpt lat="45.68721" lon="6.57946">
        <ele>1366.428</ele>
        <time>2012-01-26T08:56:33Z</time>
      </trkpt>
      <trkpt lat="45.68726" lon="6.57959">
        <ele>1367.892</ele>
        <time>2012-01-26T08:56:43Z</time>
      </trkpt>
      <trkpt lat="45.68729" lon="6.57973">
        <ele>1368.59</ele>
        <time>2012-01-26T08:56:53Z</time>
      </trkpt>
      <trkpt lat="45.68733" lon="6.57986">
        <ele>1370.319</ele>
        <time>2012-01-26T08:57:03Z</time>
      </trkpt>
      <trkpt lat="45.68738" lon="6.57999">
        <ele>1371.278</ele>
        <time>2012-01-26T08:57:13Z</time>
      </trkpt>
      <trkpt lat="45.68742" lon="6.5801">
        <ele>1372.782</ele>
        <time>2012-01-26T08:57:23Z</time>
      </trkpt>
      <trkpt lat="45.68746" lon="6.58024">
        <ele>1373.794</ele>
        <time>2012-01-26T08:57:33Z</time>
      </trkpt>
      <trkpt lat="45.68749" lon="6.58035">
        <ele>1374.473</ele>
        <time>2012-01-26T08:57:43Z</time>
      </trkpt>
      <trkpt lat="45.68753" lon="6.58047">
        <ele>1375.096</ele>
        <time>2012-01-26T08:57:53Z</time>
      </trkpt>
      <trkpt lat="45.68758" lon="6.58062">
        <ele>1376.137</ele>
        <time>2012-01-26T08:58:03Z</time>
      </trkpt>
      <trkpt lat="45.68759" lon="6.58072">
        <ele>1376.864</ele>
        <time>2012-01-26T08:58:13Z</time>
      </trkpt>
      <trkpt lat="45.6876" lon="6.58088">
        <ele>1378.547</ele>
        <time>2012-01-26T08:58:23Z</time>
      </trkpt>
      <trkpt lat="45.68759" lon="6.58103">
        <ele>1379.683</ele>
        <time>2012-01-26T08:58:33Z</time>
      </trkpt>
      <trkpt lat="45.68761" lon="6.58121">
        <ele>1380.365</ele>
        <time>2012-01-26T08:58:43Z</time>
      </trkpt>
      <trkpt lat="45.68761" lon="6.58135">
        <ele>1381.081</ele>
        <time>2012-01-26T08:58:53Z</time>
      </trkpt>
      <trkpt lat="45.6876" lon="6.58149">
        <ele>1381.945</ele>
        <time>2012-01-26T08:59:03Z</time>
      </trkpt>
      <trkpt lat="45.6876" lon="6.58157">
        <ele>1383.369</ele>
        <time>2012-01-26T08:59:13Z</time>
      </trkpt>
      <trkpt lat="45.68763" lon="6.5815">
        <ele>1383.346</ele>
        <time>2012-01-26T08:59:23Z</time>
      </trkpt>
      <trkpt lat="45.6877" lon="6.58142">
        <ele>1383.927</ele>
        <time>2012-01-26T08:59:33Z</time>
      </trkpt>
      <trkpt lat="45.68773" lon="6.58129">
        <ele>1384.797</ele>
        <time>2012-01-26T08:59:43Z</time>
      </trkpt>
      <trkpt lat="45.68776" lon="6.58115">
        <ele>1386.288</ele>
        <time>2012-01-26T08:59:53Z</time>
      </trkpt>
      <trkpt lat="45.68776" lon="6.58101">
        <ele>1387.382</ele>
        <time>2012-01-26T09:00:03Z</time>
      </trkpt>
      <trkpt lat="45.68775" lon="6.58088">
        <ele>1388.648</ele>
        <time>2012-01-26T09:00:13Z</time>
      </trkpt>
      <trkpt lat="45.68773" lon="6.58074">
        <ele>1389.914</ele>
        <time>2012-01-26T09:00:23Z</time>
      </trkpt>
      <trkpt lat="45.68772" lon="6.5806">
        <ele>1391.369</ele>
        <time>2012-01-26T09:00:33Z</time>
      </trkpt>
      <trkpt lat="45.68774" lon="6.58047">
        <ele>1392.334</ele>
        <time>2012-01-26T09:00:43Z</time>
      </trkpt>
      <trkpt lat="45.68775" lon="6.58035">
        <ele>1393.813</ele>
        <time>2012-01-26T09:00:53Z</time>
      </trkpt>
      <trkpt lat="45.68779" lon="6.58024">
        <ele>1394.553</ele>
        <time>2012-01-26T09:01:03Z</time>
      </trkpt>
      <trkpt lat="45.68782" lon="6.58011">
        <ele>1395.638</ele>
        <time>2012-01-26T09:01:13Z</time>
      </trkpt>
      <trkpt lat="45.68786" lon="6.57999">
        <ele>1396.644</ele>
        <time>2012-01-26T09:01:23Z</time>
      </trkpt>
      <trkpt lat="45.68789" lon="6.57986">
        <ele>1397.32</ele>
        <time>2012-01-26T09:01:33Z</time>
      </trkpt>
      <trkpt lat="45.68793" lon="6.57974">
        <ele>1398.502</ele>
        <time>2012-01-26T09:01:43Z</time>
      </trkpt>
      <trkpt lat="45.68794" lon="6.57961">
        <ele>1399.949</ele>
        <time>2012-01-26T09:01:53Z</time>
      </trkpt>
      <trkpt lat="45.68795" lon="6.57946">
        <ele>1401.087</ele>
        <time>2012-01-26T09:02:03Z</time>
      </trkpt>
      <trkpt lat="45.68794" lon="6.57935">
        <ele>1402.268</ele>
        <time>2012-01-26T09:02:13Z</time>
      </trkpt>
      <trkpt lat="45.68794" lon="6.57926">
        <ele>1403.17</ele>
        <time>2012-01-26T09:02:23Z</time>
      </trkpt>
      <trkpt lat="45.68792" lon="6.57915">
        <ele>1404.417</ele>
        <time>2012-01-26T09:02:33Z</time>
      </trkpt>
      <trkpt lat="45.68789" lon="6.57911">
        <ele>1404.515</ele>
        <time>2012-01-26T09:02:43Z</time>
      </trkpt>
      <trkpt lat="45.68783" lon="6.57899">
        <ele>1405.342</ele>
        <time>2012-01-26T09:02:53Z</time>
      </trkpt>
      <trkpt lat="45.68777" lon="6.57886">
        <ele>1406.741</ele>
        <time>2012-01-26T09:03:03Z</time>
      </trkpt>
      <trkpt lat="45.68775" lon="6.57874">
        <ele>1407.619</ele>
        <time>2012-01-26T09:03:13Z</time>
      </trkpt>
      <trkpt lat="45.68775" lon="6.57874">
        <ele>1408.277</ele>
        <time>2012-01-26T09:03:23Z</time>
      </trkpt>
      <trkpt lat="45.68775" lon="6.57874">
        <ele>1408.2</ele>
        <time>2012-01-26T09:03:33Z</time>
      </trkpt>
      <trkpt lat="45.68775" lon="6.57874">
        <ele>1408.166</ele>
        <time>2012-01-26T09:03:43Z</time>
      </trkpt>
      <trkpt lat="45.68775" lon="6.57873">
        <ele>1408.198</ele>
        <time>2012-01-26T09:03:53Z</time>
      </trkpt>
      <trkpt lat="45.68775" lon="6.57874">
        <ele>1408.667</ele>
        <time>2012-01-26T09:04:03Z</time>
      </trkpt>
      <trkpt lat="45.68774" lon="6.57874">
        <ele>1408.266</ele>
        <time>2012-01-26T09:04:13Z</time>
      </trkpt>
      <trkpt lat="45.68775" lon="6.57873">
        <ele>1407.979</ele>
        <time>2012-01-26T09:04:23Z</time>
      </trkpt>
      <trkpt lat="45.68775" lon="6.57873">
        <ele>1408.274</ele>
        <time>2012-01-26T09:04:33Z</time>
      </trkpt>
      <trkpt lat="45.68775" lon="6.57867">
        <ele>1408.971</ele>
        <time>2012-01-26T09:04:43Z</time>
      </trkpt>
      <trkpt lat="45.68779" lon="6.5786">
        <ele>1409.359</ele>
        <time>2012-01-26T09:04:53Z</time>
      </trkpt>
      <trkpt lat="45.6878" lon="6.57857">
        <ele>1409.704</ele>
        <time>2012-01-26T09:05:03Z</time>
      </trkpt>
      <trkpt lat="45.6878" lon="6.57857">
        <ele>1409.852</ele>
        <time>2012-01-26T09:05:13Z</time>
      </trkpt>
      <trkpt lat="45.6878" lon="6.57857">
        <ele>1409.832</ele>
        <time>2012-01-26T09:05:23Z</time>
      </trkpt>
      <trkpt lat="45.6878" lon="6.57857">
        <ele>1409.958</ele>
        <time>2012-01-26T09:05:33Z</time>
      </trkpt>
      <trkpt lat="45.6878" lon="6.57857">
        <ele>1409.503</ele>
        <time>2012-01-26T09:05:43Z</time>
      </trkpt>
      <trkpt lat="45.6878" lon="6.57857">
        <ele>1410.179</ele>
        <time>2012-01-26T09:05:53Z</time>
      </trkpt>
      <trkpt lat="45.6878" lon="6.57857">
        <ele>1409.613</ele>
        <time>2012-01-26T09:06:03Z</time>
      </trkpt>
      <trkpt lat="45.6878" lon="6.57857">
        <ele>1409.617</ele>
        <time>2012-01-26T09:06:13Z</time>
      </trkpt>
      <trkpt lat="45.6878" lon="6.57857">
        <ele>1409.972</ele>
        <time>2012-01-26T09:06:23Z</time>
      </trkpt>
      <trkpt lat="45.6878" lon="6.57857">
        <ele>1410.165</ele>
        <time>2012-01-26T09:06:33Z</time>
      </trkpt>
      <trkpt lat="45.6878" lon="6.57857">
        <ele>1410.016</ele>
        <time>2012-01-26T09:06:43Z</time>
      </trkpt>
      <trkpt lat="45.6878" lon="6.57857">
        <ele>1409.511</ele>
        <time>2012-01-26T09:06:53Z</time>
      </trkpt>
      <trkpt lat="45.6878" lon="6.57857">
        <ele>1410.146</ele>
        <time>2012-01-26T09:07:03Z</time>
      </trkpt>
      <trkpt lat="45.6878" lon="6.57857">
        <ele>1410.365</ele>
        <time>2012-01-26T09:07:13Z</time>
      </trkpt>
      <trkpt lat="45.6878" lon="6.57857">
        <ele>1410.241</ele>
        <time>2012-01-26T09:07:23Z</time>
      </trkpt>
      <trkpt lat="45.6878" lon="6.57857">
        <ele>1410.316</ele>
        <time>2012-01-26T09:07:33Z</time>
      </trkpt>
      <trkpt lat="45.6878" lon="6.57857">
        <ele>1410.412</ele>
        <time>2012-01-26T09:07:43Z</time>
      </trkpt>
      <trkpt lat="45.68781" lon="6.57857">
        <ele>1410.736</ele>
        <time>2012-01-26T09:07:53Z</time>
      </trkpt>
      <trkpt lat="45.68781" lon="6.57857">
        <ele>1410.601</ele>
        <time>2012-01-26T09:08:03Z</time>
      </trkpt>
      <trkpt lat="45.68781" lon="6.57857">
        <ele>1410.887</ele>
        <time>2012-01-26T09:08:13Z</time>
      </trkpt>
      <trkpt lat="45.6878" lon="6.57857">
        <ele>1410.966</ele>
        <time>2012-01-26T09:08:23Z</time>
      </trkpt>
      <trkpt lat="45.68781" lon="6.57857">
        <ele>1410.835</ele>
        <time>2012-01-26T09:08:33Z</time>
      </trkpt>
      <trkpt lat="45.68781" lon="6.57857">
        <ele>1410.764</ele>
        <time>2012-01-26T09:08:43Z</time>
      </trkpt>
      <trkpt lat="45.68783" lon="6.57853">
        <ele>1411.117</ele>
        <time>2012-01-26T09:08:53Z</time>
      </trkpt>
      <trkpt lat="45.68785" lon="6.57847">
        <ele>1411.727</ele>
        <time>2012-01-26T09:09:03Z</time>
      </trkpt>
      <trkpt lat="45.68788" lon="6.5784">
        <ele>1413.086</ele>
        <time>2012-01-26T09:09:13Z</time>
      </trkpt>
      <trkpt lat="45.68794" lon="6.57831">
        <ele>1413.962</ele>
        <time>2012-01-26T09:09:23Z</time>
      </trkpt>
      <trkpt lat="45.68801" lon="6.57822">
        <ele>1415.142</ele>
        <time>2012-01-26T09:09:33Z</time>
      </trkpt>
      <trkpt lat="45.68807" lon="6.57813">
        <ele>1416.019</ele>
        <time>2012-01-26T09:09:43Z</time>
      </trkpt>
      <trkpt lat="45.68816" lon="6.57812">
        <ele>1416.354</ele>
        <time>2012-01-26T09:09:53Z</time>
      </trkpt>
      <trkpt lat="45.68824" lon="6.57806">
        <ele>1417.097</ele>
        <time>2012-01-26T09:10:03Z</time>
      </trkpt>
      <trkpt lat="45.68834" lon="6.57804">
        <ele>1416.961</ele>
        <time>2012-01-26T09:10:13Z</time>
      </trkpt>
      <trkpt lat="45.68843" lon="6.57804">
        <ele>1416.976</ele>
        <time>2012-01-26T09:10:23Z</time>
      </trkpt>
      <trkpt lat="45.6885" lon="6.57802">
        <ele>1418.171</ele>
        <time>2012-01-26T09:10:33Z</time>
      </trkpt>
      <trkpt lat="45.68858" lon="6.57802">
        <ele>1418.12</ele>
        <time>2012-01-26T09:10:43Z</time>
      </trkpt>
      <trkpt lat="45.68865" lon="6.57806">
        <ele>1419.179</ele>
        <time>2012-01-26T09:10:53Z</time>
      </trkpt>
      <trkpt lat="45.68865" lon="6.57814">
        <ele>1419.619</ele>
        <time>2012-01-26T09:11:03Z</time>
      </trkpt>
      <trkpt lat="45.68857" lon="6.57816">
        <ele>1420.218</ele>
        <time>2012-01-26T09:11:13Z</time>
      </trkpt>
      <trkpt lat="45.68847" lon="6.57817">
        <ele>1420.942</ele>
        <time>2012-01-26T09:11:23Z</time>
      </trkpt>
      <trkpt lat="45.68839" lon="6.57817">
        <ele>1421.684</ele>
        <time>2012-01-26T09:11:33Z</time>
      </trkpt>
      <trkpt lat="45.68833" lon="6.57823">
        <ele>1422.796</ele>
        <time>2012-01-26T09:11:43Z</time>
      </trkpt>
      <trkpt lat="45.68829" lon="6.57834">
        <ele>1423.765</ele>
        <time>2012-01-26T09:11:53Z</time>
      </trkpt>
      <trkpt lat="45.68828" lon="6.57838">
        <ele>1423.692</ele>
        <time>2012-01-26T09:12:03Z</time>
      </trkpt>
      <trkpt lat="45.68827" lon="6.57841">
        <ele>1424.139</ele>
        <time>2012-01-26T09:12:13Z</time>
      </trkpt>
      <trkpt lat="45.68828" lon="6.57853">
        <ele>1424.829</ele>
        <time>2012-01-26T09:12:23Z</time>
      </trkpt>
      <trkpt lat="45.68828" lon="6.57866">
        <ele>1426.213</ele>
        <time>2012-01-26T09:12:33Z</time>
      </trkpt>
      <trkpt lat="45.68827" lon="6.57877">
        <ele>1426.209</ele>
        <time>2012-01-26T09:12:43Z</time>
      </trkpt>
      <trkpt lat="45.68829" lon="6.5789">
        <ele>1427.041</ele>
        <time>2012-01-26T09:12:53Z</time>
      </trkpt>
      <trkpt lat="45.68831" lon="6.57901">
        <ele>1427.914</ele>
        <time>2012-01-26T09:13:03Z</time>
      </trkpt>
      <trkpt lat="45.68834" lon="6.57911">
        <ele>1429.311</ele>
        <time>2012-01-26T09:13:13Z</time>
      </trkpt>
      <trkpt lat="45.68839" lon="6.57921">
        <ele>1430.162</ele>
        <time>2012-01-26T09:13:23Z</time>
      </trkpt>
      <trkpt lat="45.68843" lon="6.5793">
        <ele>1430.658</ele>
        <time>2012-01-26T09:13:33Z</time>
      </trkpt>
      <trkpt lat="45.68848" lon="6.57939">
        <ele>1431.605</ele>
        <time>2012-01-26T09:13:43Z</time>
      </trkpt>
      <trkpt lat="45.68852" lon="6.5795">
        <ele>1432.882</ele>
        <time>2012-01-26T09:13:53Z</time>
      </trkpt>
      <trkpt lat="45.68856" lon="6.57961">
        <ele>1433.353</ele>
        <time>2012-01-26T09:14:03Z</time>
      </trkpt>
      <trkpt lat="45.68858" lon="6.57973">
        <ele>1434.559</ele>
        <time>2012-01-26T09:14:13Z</time>
      </trkpt>
      <trkpt lat="45.6886" lon="6.57983">
        <ele>1435.249</ele>
        <time>2012-01-26T09:14:23Z</time>
      </trkpt>
      <trkpt lat="45.68861" lon="6.57995">
        <ele>1436.152</ele>
        <time>2012-01-26T09:14:33Z</time>
      </trkpt>
      <trkpt lat="45.68859" lon="6.58006">
        <ele>1437.001</ele>
        <time>2012-01-26T09:14:43Z</time>
      </trkpt>
      <trkpt lat="45.6886" lon="6.58017">
        <ele>1437.735</ele>
        <time>2012-01-26T09:14:53Z</time>
      </trkpt>
      <trkpt lat="45.68861" lon="6.58028">
        <ele>1438.932</ele>
        <time>2012-01-26T09:15:03Z</time>
      </trkpt>
      <trkpt lat="45.68861" lon="6.58042">
        <ele>1440.002</ele>
        <time>2012-01-26T09:15:13Z</time>
      </trkpt>
      <trkpt lat="45.6886" lon="6.58053">
        <ele>1440.917</ele>
        <time>2012-01-26T09:15:23Z</time>
      </trkpt>
      <trkpt lat="45.68861" lon="6.58064">
        <ele>1441.643</ele>
        <time>2012-01-26T09:15:33Z</time>
      </trkpt>
      <trkpt lat="45.68861" lon="6.58076">
        <ele>1442.951</ele>
        <time>2012-01-26T09:15:43Z</time>
      </trkpt>
      <trkpt lat="45.68862" lon="6.58087">
        <ele>1443.551</ele>
        <time>2012-01-26T09:15:53Z</time>
      </trkpt>
      <trkpt lat="45.68863" lon="6.58099">
        <ele>1444.679</ele>
        <time>2012-01-26T09:16:03Z</time>
      </trkpt>
      <trkpt lat="45.68866" lon="6.58109">
        <ele>1445.67</ele>
        <time>2012-01-26T09:16:13Z</time>
      </trkpt>
      <trkpt lat="45.68867" lon="6.5812">
        <ele>1446.103</ele>
        <time>2012-01-26T09:16:23Z</time>
      </trkpt>
      <trkpt lat="45.68872" lon="6.58132">
        <ele>1447.005</ele>
        <time>2012-01-26T09:16:33Z</time>
      </trkpt>
      <trkpt lat="45.68874" lon="6.58142">
        <ele>1447.81</ele>
        <time>2012-01-26T09:16:43Z</time>
      </trkpt>
      <trkpt lat="45.68877" lon="6.58154">
        <ele>1448.548</ele>
        <time>2012-01-26T09:16:53Z</time>
      </trkpt>
      <trkpt lat="45.68879" lon="6.58167">
        <ele>1449.139</ele>
        <time>2012-01-26T09:17:03Z</time>
      </trkpt>
      <trkpt lat="45.68879" lon="6.58177">
        <ele>1449.974</ele>
        <time>2012-01-26T09:17:13Z</time>
      </trkpt>
      <trkpt lat="45.6888" lon="6.58193">
        <ele>1450.957</ele>
        <time>2012-01-26T09:17:23Z</time>
      </trkpt>
      <trkpt lat="45.68876" lon="6.58204">
        <ele>1452.397</ele>
        <time>2012-01-26T09:17:33Z</time>
      </trkpt>
      <trkpt lat="45.68872" lon="6.58214">
        <ele>1452.469</ele>
        <time>2012-01-26T09:17:43Z</time>
      </trkpt>
      <trkpt lat="45.68868" lon="6.58224">
        <ele>1453.639</ele>
        <time>2012-01-26T09:17:53Z</time>
      </trkpt>
      <trkpt lat="45.68864" lon="6.58231">
        <ele>1454.731</ele>
        <time>2012-01-26T09:18:03Z</time>
      </trkpt>
      <trkpt lat="45.68855" lon="6.58234">
        <ele>1456.409</ele>
        <time>2012-01-26T09:18:13Z</time>
      </trkpt>
      <trkpt lat="45.68846" lon="6.58237">
        <ele>1457.561</ele>
        <time>2012-01-26T09:18:23Z</time>
      </trkpt>
      <trkpt lat="45.68838" lon="6.58237">
        <ele>1458.291</ele>
        <time>2012-01-26T09:18:33Z</time>
      </trkpt>
      <trkpt lat="45.68837" lon="6.58247">
        <ele>1459.378</ele>
        <time>2012-01-26T09:18:43Z</time>
      </trkpt>
      <trkpt lat="45.68834" lon="6.5826">
        <ele>1460.032</ele>
        <time>2012-01-26T09:18:53Z</time>
      </trkpt>
      <trkpt lat="45.68829" lon="6.58265">
        <ele>1461.304</ele>
        <time>2012-01-26T09:19:03Z</time>
      </trkpt>
      <trkpt lat="45.68829" lon="6.58274">
        <ele>1461.602</ele>
        <time>2012-01-26T09:19:13Z</time>
      </trkpt>
      <trkpt lat="45.68824" lon="6.58284">
        <ele>1462.983</ele>
        <time>2012-01-26T09:19:23Z</time>
      </trkpt>
      <trkpt lat="45.68819" lon="6.58294">
        <ele>1463.777</ele>
        <time>2012-01-26T09:19:33Z</time>
      </trkpt>
      <trkpt lat="45.68815" lon="6.58304">
        <ele>1465.344</ele>
        <time>2012-01-26T09:19:43Z</time>
      </trkpt>
      <trkpt lat="45.6881" lon="6.58313">
        <ele>1466.005</ele>
        <time>2012-01-26T09:19:53Z</time>
      </trkpt>
      <trkpt lat="45.68808" lon="6.58322">
        <ele>1467.232</ele>
        <time>2012-01-26T09:20:03Z</time>
      </trkpt>
      <trkpt lat="45.68804" lon="6.58332">
        <ele>1467.492</ele>
        <time>2012-01-26T09:20:13Z</time>
      </trkpt>
      <trkpt lat="45.68802" lon="6.58344">
        <ele>1468.982</ele>
        <time>2012-01-26T09:20:23Z</time>
      </trkpt>
      <trkpt lat="45.688" lon="6.58356">
        <ele>1469.766</ele>
        <time>2012-01-26T09:20:33Z</time>
      </trkpt>
      <trkpt lat="45.68798" lon="6.58368">
        <ele>1470.569</ele>
        <time>2012-01-26T09:20:43Z</time>
      </trkpt>
      <trkpt lat="45.68799" lon="6.58378">
        <ele>1471.144</ele>
        <time>2012-01-26T09:20:53Z</time>
      </trkpt>
      <trkpt lat="45.68798" lon="6.58388">
        <ele>1472.166</ele>
        <time>2012-01-26T09:21:03Z</time>
      </trkpt>
      <trkpt lat="45.688" lon="6.58399">
        <ele>1473.107</ele>
        <time>2012-01-26T09:21:13Z</time>
      </trkpt>
      <trkpt lat="45.68799" lon="6.58412">
        <ele>1474.052</ele>
        <time>2012-01-26T09:21:23Z</time>
      </trkpt>
      <trkpt lat="45.68798" lon="6.58424">
        <ele>1475.194</ele>
        <time>2012-01-26T09:21:33Z</time>
      </trkpt>
      <trkpt lat="45.68798" lon="6.58436">
        <ele>1475.746</ele>
        <time>2012-01-26T09:21:43Z</time>
      </trkpt>
      <trkpt lat="45.68798" lon="6.58448">
        <ele>1477.046</ele>
        <time>2012-01-26T09:21:53Z</time>
      </trkpt>
      <trkpt lat="45.68799" lon="6.58456">
        <ele>1477.596</ele>
        <time>2012-01-26T09:22:03Z</time>
      </trkpt>
      <trkpt lat="45.68797" lon="6.58459">
        <ele>1478.151</ele>
        <time>2012-01-26T09:22:13Z</time>
      </trkpt>
      <trkpt lat="45.68794" lon="6.5846">
        <ele>1478.038</ele>
        <time>2012-01-26T09:22:23Z</time>
      </trkpt>
      <trkpt lat="45.68794" lon="6.5846">
        <ele>1477.971</ele>
        <time>2012-01-26T09:22:33Z</time>
      </trkpt>
      <trkpt lat="45.68795" lon="6.5846">
        <ele>1478.281</ele>
        <time>2012-01-26T09:22:43Z</time>
      </trkpt>
      <trkpt lat="45.68795" lon="6.58459">
        <ele>1477.811</ele>
        <time>2012-01-26T09:22:53Z</time>
      </trkpt>
      <trkpt lat="45.68795" lon="6.58459">
        <ele>1477.945</ele>
        <time>2012-01-26T09:23:03Z</time>
      </trkpt>
      <trkpt lat="45.68795" lon="6.58459">
        <ele>1477.774</ele>
        <time>2012-01-26T09:23:13Z</time>
      </trkpt>
      <trkpt lat="45.68795" lon="6.58459">
        <ele>1478.145</ele>
        <time>2012-01-26T09:23:23Z</time>
      </trkpt>
      <trkpt lat="45.68795" lon="6.58459">
        <ele>1477.639</ele>
        <time>2012-01-26T09:23:33Z</time>
      </trkpt>
      <trkpt lat="45.68795" lon="6.58459">
        <ele>1477.789</ele>
        <time>2012-01-26T09:23:43Z</time>
      </trkpt>
      <trkpt lat="45.68795" lon="6.5846">
        <ele>1478.037</ele>
        <time>2012-01-26T09:23:53Z</time>
      </trkpt>
      <trkpt lat="45.68795" lon="6.58459">
        <ele>1477.849</ele>
        <time>2012-01-26T09:24:03Z</time>
      </trkpt>
      <trkpt lat="45.68795" lon="6.58459">
        <ele>1477.84</ele>
        <time>2012-01-26T09:24:13Z</time>
      </trkpt>
      <trkpt lat="45.68795" lon="6.58459">
        <ele>1476.242</ele>
        <time>2012-01-26T09:24:23Z</time>
      </trkpt>
      <trkpt lat="45.68795" lon="6.5846">
        <ele>1478.881</ele>
        <time>2012-01-26T09:24:33Z</time>
      </trkpt>
      <trkpt lat="45.68795" lon="6.58459">
        <ele>1477.93</ele>
        <time>2012-01-26T09:24:43Z</time>
      </trkpt>
      <trkpt lat="45.68795" lon="6.58459">
        <ele>1477.778</ele>
        <time>2012-01-26T09:24:53Z</time>
      </trkpt>
      <trkpt lat="45.68795" lon="6.58459">
        <ele>1477.954</ele>
        <time>2012-01-26T09:25:03Z</time>
      </trkpt>
      <trkpt lat="45.68795" lon="6.58459">
        <ele>1478.238</ele>
        <time>2012-01-26T09:25:13Z</time>
      </trkpt>
      <trkpt lat="45.68795" lon="6.58459">
        <ele>1477.541</ele>
        <time>2012-01-26T09:25:23Z</time>
      </trkpt>
      <trkpt lat="45.68795" lon="6.58459">
        <ele>1477.91</ele>
        <time>2012-01-26T09:25:33Z</time>
      </trkpt>
      <trkpt lat="45.68795" lon="6.58459">
        <ele>1477.945</ele>
        <time>2012-01-26T09:25:43Z</time>
      </trkpt>
      <trkpt lat="45.68795" lon="6.58459">
        <ele>1478.047</ele>
        <time>2012-01-26T09:25:53Z</time>
      </trkpt>
      <trkpt lat="45.68795" lon="6.58459">
        <ele>1478.006</ele>
        <time>2012-01-26T09:26:03Z</time>
      </trkpt>
      <trkpt lat="45.68795" lon="6.58459">
        <ele>1478.191</ele>
        <time>2012-01-26T09:26:13Z</time>
      </trkpt>
      <trkpt lat="45.68795" lon="6.58459">
        <ele>1478.212</ele>
        <time>2012-01-26T09:26:23Z</time>
      </trkpt>
      <trkpt lat="45.68795" lon="6.58459">
        <ele>1477.694</ele>
        <time>2012-01-26T09:26:33Z</time>
      </trkpt>
      <trkpt lat="45.68797" lon="6.58465">
        <ele>1478.584</ele>
        <time>2012-01-26T09:26:43Z</time>
      </trkpt>
      <trkpt lat="45.68798" lon="6.58476">
        <ele>1479.521</ele>
        <time>2012-01-26T09:26:53Z</time>
      </trkpt>
      <trkpt lat="45.68799" lon="6.58488">
        <ele>1480.917</ele>
        <time>2012-01-26T09:27:03Z</time>
      </trkpt>
      <trkpt lat="45.68801" lon="6.58498">
        <ele>1481.769</ele>
        <time>2012-01-26T09:27:13Z</time>
      </trkpt>
      <trkpt lat="45.688" lon="6.58509">
        <ele>1482.465</ele>
        <time>2012-01-26T09:27:23Z</time>
      </trkpt>
      <trkpt lat="45.688" lon="6.58521">
        <ele>1483.426</ele>
        <time>2012-01-26T09:27:33Z</time>
      </trkpt>
      <trkpt lat="45.688" lon="6.58534">
        <ele>1484.366</ele>
        <time>2012-01-26T09:27:43Z</time>
      </trkpt>
      <trkpt lat="45.68799" lon="6.58543">
        <ele>1485.003</ele>
        <time>2012-01-26T09:27:53Z</time>
      </trkpt>
      <trkpt lat="45.68803" lon="6.58553">
        <ele>1486.143</ele>
        <time>2012-01-26T09:28:03Z</time>
      </trkpt>
      <trkpt lat="45.68804" lon="6.58564">
        <ele>1486.83</ele>
        <time>2012-01-26T09:28:13Z</time>
      </trkpt>
      <trkpt lat="45.68809" lon="6.58575">
        <ele>1487.801</ele>
        <time>2012-01-26T09:28:23Z</time>
      </trkpt>
      <trkpt lat="45.68813" lon="6.58585">
        <ele>1488.296</ele>
        <time>2012-01-26T09:28:33Z</time>
      </trkpt>
      <trkpt lat="45.68814" lon="6.58596">
        <ele>1488.883</ele>
        <time>2012-01-26T09:28:43Z</time>
      </trkpt>
      <trkpt lat="45.68816" lon="6.58605">
        <ele>1489.956</ele>
        <time>2012-01-26T09:28:53Z</time>
      </trkpt>
      <trkpt lat="45.68817" lon="6.58616">
        <ele>1490.464</ele>
        <time>2012-01-26T09:29:03Z</time>
      </trkpt>
      <trkpt lat="45.68817" lon="6.5863">
        <ele>1491.484</ele>
        <time>2012-01-26T09:29:13Z</time>
      </trkpt>
      <trkpt lat="45.68815" lon="6.58642">
        <ele>1491.903</ele>
        <time>2012-01-26T09:29:23Z</time>
      </trkpt>
      <trkpt lat="45.68814" lon="6.58651">
        <ele>1492.531</ele>
        <time>2012-01-26T09:29:33Z</time>
      </trkpt>
      <trkpt lat="45.68813" lon="6.58664">
        <ele>1492.563</ele>
        <time>2012-01-26T09:29:43Z</time>
      </trkpt>
      <trkpt lat="45.68817" lon="6.58667">
        <ele>1494.516</ele>
        <time>2012-01-26T09:29:53Z</time>
      </trkpt>
      <trkpt lat="45.68816" lon="6.58667">
        <ele>1494.893</ele>
        <time>2012-01-26T09:30:03Z</time>
      </trkpt>
      <trkpt lat="45.68818" lon="6.58658">
        <ele>1494.553</ele>
        <time>2012-01-26T09:30:13Z</time>
      </trkpt>
      <trkpt lat="45.68819" lon="6.58647">
        <ele>1494.925</ele>
        <time>2012-01-26T09:30:23Z</time>
      </trkpt>
      <trkpt lat="45.68818" lon="6.58638">
        <ele>1495.291</ele>
        <time>2012-01-26T09:30:33Z</time>
      </trkpt>
      <trkpt lat="45.68819" lon="6.58628">
        <ele>1495.207</ele>
        <time>2012-01-26T09:30:43Z</time>
      </trkpt>
      <trkpt lat="45.6882" lon="6.58623">
        <ele>1496.582</ele>
        <time>2012-01-26T09:30:53Z</time>
      </trkpt>
      <trkpt lat="45.6882" lon="6.58623">
        <ele>1496.053</ele>
        <time>2012-01-26T09:31:03Z</time>
      </trkpt>
      <trkpt lat="45.6882" lon="6.58623">
        <ele>1496.353</ele>
        <time>2012-01-26T09:31:13Z</time>
      </trkpt>
      <trkpt lat="45.6882" lon="6.58623">
        <ele>1495.439</ele>
        <time>2012-01-26T09:31:23Z</time>
      </trkpt>
      <trkpt lat="45.6882" lon="6.58622">
        <ele>1496.182</ele>
        <time>2012-01-26T09:31:33Z</time>
      </trkpt>
      <trkpt lat="45.6882" lon="6.58621">
        <ele>1495.913</ele>
        <time>2012-01-26T09:31:43Z</time>
      </trkpt>
      <trkpt lat="45.6882" lon="6.58621">
        <ele>1496.385</ele>
        <time>2012-01-26T09:31:53Z</time>
      </trkpt>
      <trkpt lat="45.6882" lon="6.5862">
        <ele>1496.464</ele>
        <time>2012-01-26T09:32:03Z</time>
      </trkpt>
      <trkpt lat="45.6882" lon="6.58619">
        <ele>1495.982</ele>
        <time>2012-01-26T09:32:13Z</time>
      </trkpt>
      <trkpt lat="45.68821" lon="6.58607">
        <ele>1497.24</ele>
        <time>2012-01-26T09:32:23Z</time>
      </trkpt>
      <trkpt lat="45.68826" lon="6.58601">
        <ele>1497.515</ele>
        <time>2012-01-26T09:32:33Z</time>
      </trkpt>
      <trkpt lat="45.6883" lon="6.58592">
        <ele>1498.358</ele>
        <time>2012-01-26T09:32:43Z</time>
      </trkpt>
      <trkpt lat="45.68829" lon="6.58579">
        <ele>1499.427</ele>
        <time>2012-01-26T09:32:53Z</time>
      </trkpt>
      <trkpt lat="45.68828" lon="6.58567">
        <ele>1500.239</ele>
        <time>2012-01-26T09:33:03Z</time>
      </trkpt>
      <trkpt lat="45.68827" lon="6.58558">
        <ele>1500.856</ele>
        <time>2012-01-26T09:33:13Z</time>
      </trkpt>
      <trkpt lat="45.68824" lon="6.58542">
        <ele>1501.482</ele>
        <time>2012-01-26T09:33:23Z</time>
      </trkpt>
      <trkpt lat="45.68822" lon="6.5853">
        <ele>1502.786</ele>
        <time>2012-01-26T09:33:33Z</time>
      </trkpt>
      <trkpt lat="45.68825" lon="6.58519">
        <ele>1503.46</ele>
        <time>2012-01-26T09:33:43Z</time>
      </trkpt>
      <trkpt lat="45.68827" lon="6.58507">
        <ele>1504.09</ele>
        <time>2012-01-26T09:33:53Z</time>
      </trkpt>
      <trkpt lat="45.68829" lon="6.58498">
        <ele>1504.858</ele>
        <time>2012-01-26T09:34:03Z</time>
      </trkpt>
      <trkpt lat="45.6883" lon="6.58488">
        <ele>1505.734</ele>
        <time>2012-01-26T09:34:13Z</time>
      </trkpt>
      <trkpt lat="45.68835" lon="6.58482">
        <ele>1506.984</ele>
        <time>2012-01-26T09:34:23Z</time>
      </trkpt>
      <trkpt lat="45.6884" lon="6.58473">
        <ele>1507.686</ele>
        <time>2012-01-26T09:34:33Z</time>
      </trkpt>
      <trkpt lat="45.68842" lon="6.58462">
        <ele>1508.789</ele>
        <time>2012-01-26T09:34:43Z</time>
      </trkpt>
      <trkpt lat="45.68842" lon="6.58452">
        <ele>1509.36</ele>
        <time>2012-01-26T09:34:53Z</time>
      </trkpt>
      <trkpt lat="45.68844" lon="6.58442">
        <ele>1509.99</ele>
        <time>2012-01-26T09:35:03Z</time>
      </trkpt>
      <trkpt lat="45.68848" lon="6.58437">
        <ele>1510.755</ele>
        <time>2012-01-26T09:35:13Z</time>
      </trkpt>
      <trkpt lat="45.6885" lon="6.58425">
        <ele>1511.38</ele>
        <time>2012-01-26T09:35:23Z</time>
      </trkpt>
      <trkpt lat="45.68854" lon="6.58413">
        <ele>1512.179</ele>
        <time>2012-01-26T09:35:33Z</time>
      </trkpt>
      <trkpt lat="45.68856" lon="6.58405">
        <ele>1513.085</ele>
        <time>2012-01-26T09:35:43Z</time>
      </trkpt>
      <trkpt lat="45.68861" lon="6.58396">
        <ele>1513.428</ele>
        <time>2012-01-26T09:35:53Z</time>
      </trkpt>
      <trkpt lat="45.68864" lon="6.5839">
        <ele>1514.601</ele>
        <time>2012-01-26T09:36:03Z</time>
      </trkpt>
      <trkpt lat="45.68869" lon="6.58379">
        <ele>1515.631</ele>
        <time>2012-01-26T09:36:13Z</time>
      </trkpt>
      <trkpt lat="45.68873" lon="6.58367">
        <ele>1516.28</ele>
        <time>2012-01-26T09:36:23Z</time>
      </trkpt>
      <trkpt lat="45.68881" lon="6.58362">
        <ele>1517.406</ele>
        <time>2012-01-26T09:36:33Z</time>
      </trkpt>
      <trkpt lat="45.68888" lon="6.58354">
        <ele>1518.339</ele>
        <time>2012-01-26T09:36:43Z</time>
      </trkpt>
      <trkpt lat="45.68892" lon="6.58344">
        <ele>1519.09</ele>
        <time>2012-01-26T09:36:53Z</time>
      </trkpt>
      <trkpt lat="45.68895" lon="6.58331">
        <ele>1520.105</ele>
        <time>2012-01-26T09:37:03Z</time>
      </trkpt>
      <trkpt lat="45.68899" lon="6.58322">
        <ele>1520.958</ele>
        <time>2012-01-26T09:37:13Z</time>
      </trkpt>
      <trkpt lat="45.68905" lon="6.58317">
        <ele>1522.342</ele>
        <time>2012-01-26T09:37:23Z</time>
      </trkpt>
      <trkpt lat="45.68912" lon="6.58315">
        <ele>1522.849</ele>
        <time>2012-01-26T09:37:33Z</time>
      </trkpt>
      <trkpt lat="45.68918" lon="6.58307">
        <ele>1523.901</ele>
        <time>2012-01-26T09:37:43Z</time>
      </trkpt>
      <trkpt lat="45.68922" lon="6.583">
        <ele>1525.046</ele>
        <time>2012-01-26T09:37:53Z</time>
      </trkpt>
      <trkpt lat="45.6893" lon="6.58298">
        <ele>1525.653</ele>
        <time>2012-01-26T09:38:03Z</time>
      </trkpt>
      <trkpt lat="45.68941" lon="6.58298">
        <ele>1526.31</ele>
        <time>2012-01-26T09:38:13Z</time>
      </trkpt>
      <trkpt lat="45.68946" lon="6.58294">
        <ele>1527.01</ele>
        <time>2012-01-26T09:38:23Z</time>
      </trkpt>
      <trkpt lat="45.68953" lon="6.58292">
        <ele>1528.097</ele>
        <time>2012-01-26T09:38:33Z</time>
      </trkpt>
      <trkpt lat="45.68959" lon="6.58288">
        <ele>1528.963</ele>
        <time>2012-01-26T09:38:43Z</time>
      </trkpt>
      <trkpt lat="45.68962" lon="6.58286">
        <ele>1529.168</ele>
        <time>2012-01-26T09:38:53Z</time>
      </trkpt>
      <trkpt lat="45.68969" lon="6.58282">
        <ele>1530.643</ele>
        <time>2012-01-26T09:39:03Z</time>
      </trkpt>
      <trkpt lat="45.68975" lon="6.58274">
        <ele>1531.284</ele>
        <time>2012-01-26T09:39:13Z</time>
      </trkpt>
      <trkpt lat="45.6898" lon="6.58267">
        <ele>1532.34</ele>
        <time>2012-01-26T09:39:23Z</time>
      </trkpt>
      <trkpt lat="45.68984" lon="6.58259">
        <ele>1533.309</ele>
        <time>2012-01-26T09:39:33Z</time>
      </trkpt>
      <trkpt lat="45.68987" lon="6.58248">
        <ele>1534.338</ele>
        <time>2012-01-26T09:39:43Z</time>
      </trkpt>
      <trkpt lat="45.6899" lon="6.58236">
        <ele>1535.16</ele>
        <time>2012-01-26T09:39:53Z</time>
      </trkpt>
      <trkpt lat="45.68992" lon="6.58228">
        <ele>1536.217</ele>
        <time>2012-01-26T09:40:03Z</time>
      </trkpt>
      <trkpt lat="45.68995" lon="6.58217">
        <ele>1536.992</ele>
        <time>2012-01-26T09:40:13Z</time>
      </trkpt>
      <trkpt lat="45.68998" lon="6.58208">
        <ele>1538.121</ele>
        <time>2012-01-26T09:40:23Z</time>
      </trkpt>
      <trkpt lat="45.69" lon="6.58199">
        <ele>1539.285</ele>
        <time>2012-01-26T09:40:33Z</time>
      </trkpt>
      <trkpt lat="45.69005" lon="6.58191">
        <ele>1539.985</ele>
        <time>2012-01-26T09:40:43Z</time>
      </trkpt>
      <trkpt lat="45.69008" lon="6.58178">
        <ele>1541.193</ele>
        <time>2012-01-26T09:40:53Z</time>
      </trkpt>
      <trkpt lat="45.69012" lon="6.5817">
        <ele>1541.74</ele>
        <time>2012-01-26T09:41:03Z</time>
      </trkpt>
      <trkpt lat="45.69017" lon="6.58161">
        <ele>1543.014</ele>
        <time>2012-01-26T09:41:13Z</time>
      </trkpt>
      <trkpt lat="45.69021" lon="6.58154">
        <ele>1543.832</ele>
        <time>2012-01-26T09:41:23Z</time>
      </trkpt>
      <trkpt lat="45.69026" lon="6.58147">
        <ele>1544.395</ele>
        <time>2012-01-26T09:41:33Z</time>
      </trkpt>
      <trkpt lat="45.6903" lon="6.58141">
        <ele>1545.359</ele>
        <time>2012-01-26T09:41:43Z</time>
      </trkpt>
      <trkpt lat="45.69033" lon="6.58135">
        <ele>1546.362</ele>
        <time>2012-01-26T09:41:53Z</time>
      </trkpt>
      <trkpt lat="45.69039" lon="6.58127">
        <ele>1547.058</ele>
        <time>2012-01-26T09:42:03Z</time>
      </trkpt>
      <trkpt lat="45.69044" lon="6.58118">
        <ele>1548.387</ele>
        <time>2012-01-26T09:42:13Z</time>
      </trkpt>
      <trkpt lat="45.69049" lon="6.58111">
        <ele>1549.63</ele>
        <time>2012-01-26T09:42:23Z</time>
      </trkpt>
      <trkpt lat="45.69056" lon="6.58107">
        <ele>1549.648</ele>
        <time>2012-01-26T09:42:33Z</time>
      </trkpt>
      <trkpt lat="45.69059" lon="6.58093">
        <ele>1550.954</ele>
        <time>2012-01-26T09:42:43Z</time>
      </trkpt>
      <trkpt lat="45.69064" lon="6.58086">
        <ele>1552.007</ele>
        <time>2012-01-26T09:42:53Z</time>
      </trkpt>
      <trkpt lat="45.69069" lon="6.58077">
        <ele>1553.03</ele>
        <time>2012-01-26T09:43:03Z</time>
      </trkpt>
      <trkpt lat="45.69077" lon="6.58072">
        <ele>1553.456</ele>
        <time>2012-01-26T09:43:13Z</time>
      </trkpt>
      <trkpt lat="45.69084" lon="6.58067">
        <ele>1554.703</ele>
        <time>2012-01-26T09:43:23Z</time>
      </trkpt>
      <trkpt lat="45.6909" lon="6.58062">
        <ele>1555.521</ele>
        <time>2012-01-26T09:43:33Z</time>
      </trkpt>
      <trkpt lat="45.69096" lon="6.58057">
        <ele>1555.797</ele>
        <time>2012-01-26T09:43:43Z</time>
      </trkpt>
      <trkpt lat="45.69102" lon="6.58049">
        <ele>1556.941</ele>
        <time>2012-01-26T09:43:53Z</time>
      </trkpt>
      <trkpt lat="45.69109" lon="6.58043">
        <ele>1558.09</ele>
        <time>2012-01-26T09:44:03Z</time>
      </trkpt>
      <trkpt lat="45.69116" lon="6.58042">
        <ele>1558.803</ele>
        <time>2012-01-26T09:44:13Z</time>
      </trkpt>
      <trkpt lat="45.69115" lon="6.58042">
        <ele>1558.577</ele>
        <time>2012-01-26T09:44:23Z</time>
      </trkpt>
      <trkpt lat="45.69114" lon="6.58042">
        <ele>1558.561</ele>
        <time>2012-01-26T09:44:33Z</time>
      </trkpt>
      <trkpt lat="45.69114" lon="6.58042">
        <ele>1558.573</ele>
        <time>2012-01-26T09:44:43Z</time>
      </trkpt>
      <trkpt lat="45.69114" lon="6.58042">
        <ele>1558.625</ele>
        <time>2012-01-26T09:44:53Z</time>
      </trkpt>
      <trkpt lat="45.69114" lon="6.58042">
        <ele>1558.188</ele>
        <time>2012-01-26T09:45:03Z</time>
      </trkpt>
      <trkpt lat="45.69114" lon="6.58042">
        <ele>1558.857</ele>
        <time>2012-01-26T09:45:13Z</time>
      </trkpt>
      <trkpt lat="45.69114" lon="6.58042">
        <ele>1558.558</ele>
        <time>2012-01-26T09:45:23Z</time>
      </trkpt>
      <trkpt lat="45.69114" lon="6.58042">
        <ele>1558.706</ele>
        <time>2012-01-26T09:45:33Z</time>
      </trkpt>
      <trkpt lat="45.69114" lon="6.58042">
        <ele>1558.786</ele>
        <time>2012-01-26T09:45:43Z</time>
      </trkpt>
      <trkpt lat="45.69114" lon="6.58042">
        <ele>1558.804</ele>
        <time>2012-01-26T09:45:53Z</time>
      </trkpt>
      <trkpt lat="45.69114" lon="6.58042">
        <ele>1558.939</ele>
        <time>2012-01-26T09:46:03Z</time>
      </trkpt>
      <trkpt lat="45.69114" lon="6.58041">
        <ele>1558.77</ele>
        <time>2012-01-26T09:46:13Z</time>
      </trkpt>
      <trkpt lat="45.69114" lon="6.58041">
        <ele>1558.796</ele>
        <time>2012-01-26T09:46:23Z</time>
      </trkpt>
      <trkpt lat="45.69114" lon="6.58041">
        <ele>1558.622</ele>
        <time>2012-01-26T09:46:33Z</time>
      </trkpt>
      <trkpt lat="45.69114" lon="6.58041">
        <ele>1558.73</ele>
        <time>2012-01-26T09:46:43Z</time>
      </trkpt>
      <trkpt lat="45.69114" lon="6.58041">
        <ele>1559.062</ele>
        <time>2012-01-26T09:46:53Z</time>
      </trkpt>
      <trkpt lat="45.69114" lon="6.58041">
        <ele>1559.253</ele>
        <time>2012-01-26T09:47:03Z</time>
      </trkpt>
      <trkpt lat="45.69114" lon="6.58041">
        <ele>1559.319</ele>
        <time>2012-01-26T09:47:13Z</time>
      </trkpt>
      <trkpt lat="45.69114" lon="6.58042">
        <ele>1558.887</ele>
        <time>2012-01-26T09:47:23Z</time>
      </trkpt>
      <trkpt lat="45.69112" lon="6.58048">
        <ele>1560.035</ele>
        <time>2012-01-26T09:47:33Z</time>
      </trkpt>
      <trkpt lat="45.69109" lon="6.58055">
        <ele>1560.639</ele>
        <time>2012-01-26T09:47:43Z</time>
      </trkpt>
      <trkpt lat="45.69107" lon="6.58065">
        <ele>1561.094</ele>
        <time>2012-01-26T09:47:53Z</time>
      </trkpt>
      <trkpt lat="45.69104" lon="6.5807">
        <ele>1562.038</ele>
        <time>2012-01-26T09:48:03Z</time>
      </trkpt>
      <trkpt lat="45.69102" lon="6.58073">
        <ele>1562.228</ele>
        <time>2012-01-26T09:48:13Z</time>
      </trkpt>
      <trkpt lat="45.691" lon="6.58082">
        <ele>1562.953</ele>
        <time>2012-01-26T09:48:23Z</time>
      </trkpt>
      <trkpt lat="45.69095" lon="6.58091">
        <ele>1563.362</ele>
        <time>2012-01-26T09:48:33Z</time>
      </trkpt>
      <trkpt lat="45.69092" lon="6.58099">
        <ele>1564.375</ele>
        <time>2012-01-26T09:48:43Z</time>
      </trkpt>
      <trkpt lat="45.69089" lon="6.58111">
        <ele>1564.887</ele>
        <time>2012-01-26T09:48:53Z</time>
      </trkpt>
      <trkpt lat="45.69081" lon="6.58117">
        <ele>1566.72</ele>
        <time>2012-01-26T09:49:03Z</time>
      </trkpt>
      <trkpt lat="45.69078" lon="6.58129">
        <ele>1566.723</ele>
        <time>2012-01-26T09:49:13Z</time>
      </trkpt>
      <trkpt lat="45.69074" lon="6.5814">
        <ele>1567.908</ele>
        <time>2012-01-26T09:49:23Z</time>
      </trkpt>
      <trkpt lat="45.69071" lon="6.58138">
        <ele>1567.922</ele>
        <time>2012-01-26T09:49:33Z</time>
      </trkpt>
      <trkpt lat="45.69076" lon="6.58142">
        <ele>1568.388</ele>
        <time>2012-01-26T09:49:43Z</time>
      </trkpt>
      <trkpt lat="45.6907" lon="6.58151">
        <ele>1569.426</ele>
        <time>2012-01-26T09:49:53Z</time>
      </trkpt>
      <trkpt lat="45.69068" lon="6.58155">
        <ele>1569.567</ele>
        <time>2012-01-26T09:50:03Z</time>
      </trkpt>
      <trkpt lat="45.69068" lon="6.58156">
        <ele>1569.859</ele>
        <time>2012-01-26T09:50:13Z</time>
      </trkpt>
      <trkpt lat="45.69067" lon="6.58156">
        <ele>1569.242</ele>
        <time>2012-01-26T09:50:23Z</time>
      </trkpt>
      <trkpt lat="45.69067" lon="6.58156">
        <ele>1569.616</ele>
        <time>2012-01-26T09:50:33Z</time>
      </trkpt>
      <trkpt lat="45.69067" lon="6.58156">
        <ele>1569.173</ele>
        <time>2012-01-26T09:50:43Z</time>
      </trkpt>
      <trkpt lat="45.69067" lon="6.58156">
        <ele>1569.263</ele>
        <time>2012-01-26T09:50:53Z</time>
      </trkpt>
      <trkpt lat="45.69067" lon="6.58156">
        <ele>1569.425</ele>
        <time>2012-01-26T09:51:03Z</time>
      </trkpt>
      <trkpt lat="45.69067" lon="6.58156">
        <ele>1569.31</ele>
        <time>2012-01-26T09:51:13Z</time>
      </trkpt>
      <trkpt lat="45.69067" lon="6.58156">
        <ele>1569.41</ele>
        <time>2012-01-26T09:51:23Z</time>
      </trkpt>
      <trkpt lat="45.69065" lon="6.58163">
        <ele>1570.487</ele>
        <time>2012-01-26T09:51:33Z</time>
      </trkpt>
      <trkpt lat="45.69058" lon="6.58166">
        <ele>1571.631</ele>
        <time>2012-01-26T09:51:43Z</time>
      </trkpt>
      <trkpt lat="45.69056" lon="6.58177">
        <ele>1572.185</ele>
        <time>2012-01-26T09:51:53Z</time>
      </trkpt>
      <trkpt lat="45.69052" lon="6.58188">
        <ele>1573.253</ele>
        <time>2012-01-26T09:52:03Z</time>
      </trkpt>
      <trkpt lat="45.69054" lon="6.58202">
        <ele>1573.924</ele>
        <time>2012-01-26T09:52:13Z</time>
      </trkpt>
      <trkpt lat="45.69052" lon="6.58213">
        <ele>1574.657</ele>
        <time>2012-01-26T09:52:23Z</time>
      </trkpt>
      <trkpt lat="45.69055" lon="6.58225">
        <ele>1575.665</ele>
        <time>2012-01-26T09:52:33Z</time>
      </trkpt>
      <trkpt lat="45.69054" lon="6.58237">
        <ele>1577.063</ele>
        <time>2012-01-26T09:52:43Z</time>
      </trkpt>
      <trkpt lat="45.69054" lon="6.58247">
        <ele>1578.304</ele>
        <time>2012-01-26T09:52:53Z</time>
      </trkpt>
      <trkpt lat="45.69053" lon="6.5826">
        <ele>1578.838</ele>
        <time>2012-01-26T09:53:03Z</time>
      </trkpt>
      <trkpt lat="45.6905" lon="6.58272">
        <ele>1579.54</ele>
        <time>2012-01-26T09:53:13Z</time>
      </trkpt>
      <trkpt lat="45.69046" lon="6.58281">
        <ele>1580.454</ele>
        <time>2012-01-26T09:53:23Z</time>
      </trkpt>
      <trkpt lat="45.6904" lon="6.5829">
        <ele>1581.328</ele>
        <time>2012-01-26T09:53:33Z</time>
      </trkpt>
      <trkpt lat="45.69035" lon="6.58302">
        <ele>1582.429</ele>
        <time>2012-01-26T09:53:43Z</time>
      </trkpt>
      <trkpt lat="45.69032" lon="6.58311">
        <ele>1583.554</ele>
        <time>2012-01-26T09:53:53Z</time>
      </trkpt>
      <trkpt lat="45.6903" lon="6.58325">
        <ele>1585.262</ele>
        <time>2012-01-26T09:54:03Z</time>
      </trkpt>
      <trkpt lat="45.69027" lon="6.5833">
        <ele>1585.734</ele>
        <time>2012-01-26T09:54:13Z</time>
      </trkpt>
      <trkpt lat="45.69025" lon="6.58339">
        <ele>1586.627</ele>
        <time>2012-01-26T09:54:23Z</time>
      </trkpt>
      <trkpt lat="45.69019" lon="6.58346">
        <ele>1587.468</ele>
        <time>2012-01-26T09:54:33Z</time>
      </trkpt>
      <trkpt lat="45.69009" lon="6.5835">
        <ele>1588.494</ele>
        <time>2012-01-26T09:54:43Z</time>
      </trkpt>
      <trkpt lat="45.69005" lon="6.58356">
        <ele>1589.381</ele>
        <time>2012-01-26T09:54:53Z</time>
      </trkpt>
      <trkpt lat="45.69004" lon="6.5837">
        <ele>1590.291</ele>
        <time>2012-01-26T09:55:03Z</time>
      </trkpt>
      <trkpt lat="45.69004" lon="6.58381">
        <ele>1590.968</ele>
        <time>2012-01-26T09:55:13Z</time>
      </trkpt>
      <trkpt lat="45.69003" lon="6.58389">
        <ele>1592.279</ele>
        <time>2012-01-26T09:55:23Z</time>
      </trkpt>
      <trkpt lat="45.69001" lon="6.58401">
        <ele>1593.569</ele>
        <time>2012-01-26T09:55:33Z</time>
      </trkpt>
      <trkpt lat="45.68999" lon="6.58416">
        <ele>1594.16</ele>
        <time>2012-01-26T09:55:43Z</time>
      </trkpt>
      <trkpt lat="45.68997" lon="6.58428">
        <ele>1595.117</ele>
        <time>2012-01-26T09:55:53Z</time>
      </trkpt>
      <trkpt lat="45.68997" lon="6.5844">
        <ele>1596.151</ele>
        <time>2012-01-26T09:56:03Z</time>
      </trkpt>
      <trkpt lat="45.68998" lon="6.58449">
        <ele>1597.156</ele>
        <time>2012-01-26T09:56:13Z</time>
      </trkpt>
      <trkpt lat="45.68997" lon="6.58453">
        <ele>1597.76</ele>
        <time>2012-01-26T09:56:23Z</time>
      </trkpt>
      <trkpt lat="45.68996" lon="6.58465">
        <ele>1598.711</ele>
        <time>2012-01-26T09:56:33Z</time>
      </trkpt>
      <trkpt lat="45.68993" lon="6.58475">
        <ele>1599.126</ele>
        <time>2012-01-26T09:56:43Z</time>
      </trkpt>
      <trkpt lat="45.6899" lon="6.58488">
        <ele>1599.68</ele>
        <time>2012-01-26T09:56:53Z</time>
      </trkpt>
      <trkpt lat="45.68985" lon="6.58498">
        <ele>1600.755</ele>
        <time>2012-01-26T09:57:03Z</time>
      </trkpt>
      <trkpt lat="45.68985" lon="6.58512">
        <ele>1601.896</ele>
        <time>2012-01-26T09:57:13Z</time>
      </trkpt>
      <trkpt lat="45.68981" lon="6.58526">
        <ele>1602.346</ele>
        <time>2012-01-26T09:57:23Z</time>
      </trkpt>
      <trkpt lat="45.68975" lon="6.58535">
        <ele>1602.764</ele>
        <time>2012-01-26T09:57:33Z</time>
      </trkpt>
      <trkpt lat="45.68973" lon="6.58544">
        <ele>1603.722</ele>
        <time>2012-01-26T09:57:43Z</time>
      </trkpt>
      <trkpt lat="45.68969" lon="6.58554">
        <ele>1604.686</ele>
        <time>2012-01-26T09:57:53Z</time>
      </trkpt>
      <trkpt lat="45.68969" lon="6.58568">
        <ele>1605.345</ele>
        <time>2012-01-26T09:58:03Z</time>
      </trkpt>
      <trkpt lat="45.68962" lon="6.5857">
        <ele>1606.205</ele>
        <time>2012-01-26T09:58:13Z</time>
      </trkpt>
      <trkpt lat="45.68963" lon="6.58583">
        <ele>1607.763</ele>
        <time>2012-01-26T09:58:23Z</time>
      </trkpt>
      <trkpt lat="45.68963" lon="6.58596">
        <ele>1607.809</ele>
        <time>2012-01-26T09:58:33Z</time>
      </trkpt>
      <trkpt lat="45.68961" lon="6.58608">
        <ele>1609.117</ele>
        <time>2012-01-26T09:58:43Z</time>
      </trkpt>
      <trkpt lat="45.68963" lon="6.58619">
        <ele>1610.303</ele>
        <time>2012-01-26T09:58:53Z</time>
      </trkpt>
      <trkpt lat="45.68964" lon="6.5863">
        <ele>1611.116</ele>
        <time>2012-01-26T09:59:03Z</time>
      </trkpt>
      <trkpt lat="45.68963" lon="6.58642">
        <ele>1612.111</ele>
        <time>2012-01-26T09:59:13Z</time>
      </trkpt>
      <trkpt lat="45.68968" lon="6.58652">
        <ele>1612.838</ele>
        <time>2012-01-26T09:59:23Z</time>
      </trkpt>
      <trkpt lat="45.68967" lon="6.58667">
        <ele>1613.991</ele>
        <time>2012-01-26T09:59:33Z</time>
      </trkpt>
      <trkpt lat="45.68965" lon="6.5868">
        <ele>1614.642</ele>
        <time>2012-01-26T09:59:43Z</time>
      </trkpt>
      <trkpt lat="45.68964" lon="6.58693">
        <ele>1616.185</ele>
        <time>2012-01-26T09:59:53Z</time>
      </trkpt>
      <trkpt lat="45.68966" lon="6.58705">
        <ele>1616.91</ele>
        <time>2012-01-26T10:00:03Z</time>
      </trkpt>
      <trkpt lat="45.68964" lon="6.58715">
        <ele>1617.978</ele>
        <time>2012-01-26T10:00:13Z</time>
      </trkpt>
      <trkpt lat="45.68965" lon="6.58729">
        <ele>1619.016</ele>
        <time>2012-01-26T10:00:23Z</time>
      </trkpt>
      <trkpt lat="45.68963" lon="6.58739">
        <ele>1620.193</ele>
        <time>2012-01-26T10:00:33Z</time>
      </trkpt>
      <trkpt lat="45.68961" lon="6.58749">
        <ele>1620.799</ele>
        <time>2012-01-26T10:00:43Z</time>
      </trkpt>
      <trkpt lat="45.68961" lon="6.5876">
        <ele>1622.222</ele>
        <time>2012-01-26T10:00:53Z</time>
      </trkpt>
      <trkpt lat="45.6896" lon="6.58771">
        <ele>1622.821</ele>
        <time>2012-01-26T10:01:03Z</time>
      </trkpt>
      <trkpt lat="45.68959" lon="6.58778">
        <ele>1624.44</ele>
        <time>2012-01-26T10:01:13Z</time>
      </trkpt>
      <trkpt lat="45.68959" lon="6.58791">
        <ele>1625.007</ele>
        <time>2012-01-26T10:01:23Z</time>
      </trkpt>
      <trkpt lat="45.68956" lon="6.58803">
        <ele>1626.081</ele>
        <time>2012-01-26T10:01:33Z</time>
      </trkpt>
      <trkpt lat="45.68952" lon="6.58813">
        <ele>1627.004</ele>
        <time>2012-01-26T10:01:43Z</time>
      </trkpt>
      <trkpt lat="45.68946" lon="6.58815">
        <ele>1628.487</ele>
        <time>2012-01-26T10:01:53Z</time>
      </trkpt>
      <trkpt lat="45.68946" lon="6.58827">
        <ele>1629.57</ele>
        <time>2012-01-26T10:02:03Z</time>
      </trkpt>
      <trkpt lat="45.68945" lon="6.58838">
        <ele>1630.408</ele>
        <time>2012-01-26T10:02:13Z</time>
      </trkpt>
      <trkpt lat="45.68947" lon="6.58851">
        <ele>1630.932</ele>
        <time>2012-01-26T10:02:23Z</time>
      </trkpt>
      <trkpt lat="45.68944" lon="6.58862">
        <ele>1632.032</ele>
        <time>2012-01-26T10:02:33Z</time>
      </trkpt>
      <trkpt lat="45.6894" lon="6.58867">
        <ele>1632.808</ele>
        <time>2012-01-26T10:02:43Z</time>
      </trkpt>
      <trkpt lat="45.68935" lon="6.58871">
        <ele>1634.114</ele>
        <time>2012-01-26T10:02:53Z</time>
      </trkpt>
      <trkpt lat="45.6894" lon="6.58881">
        <ele>1634.994</ele>
        <time>2012-01-26T10:03:03Z</time>
      </trkpt>
      <trkpt lat="45.68938" lon="6.58896">
        <ele>1635.869</ele>
        <time>2012-01-26T10:03:13Z</time>
      </trkpt>
      <trkpt lat="45.68934" lon="6.58903">
        <ele>1636.605</ele>
        <time>2012-01-26T10:03:23Z</time>
      </trkpt>
      <trkpt lat="45.68933" lon="6.58916">
        <ele>1637.926</ele>
        <time>2012-01-26T10:03:33Z</time>
      </trkpt>
      <trkpt lat="45.68931" lon="6.58927">
        <ele>1638.92</ele>
        <time>2012-01-26T10:03:43Z</time>
      </trkpt>
      <trkpt lat="45.6893" lon="6.58937">
        <ele>1639.042</ele>
        <time>2012-01-26T10:03:53Z</time>
      </trkpt>
      <trkpt lat="45.68924" lon="6.58944">
        <ele>1640.598</ele>
        <time>2012-01-26T10:04:03Z</time>
      </trkpt>
      <trkpt lat="45.68922" lon="6.58952">
        <ele>1641.027</ele>
        <time>2012-01-26T10:04:13Z</time>
      </trkpt>
      <trkpt lat="45.68919" lon="6.58966">
        <ele>1642.126</ele>
        <time>2012-01-26T10:04:23Z</time>
      </trkpt>
      <trkpt lat="45.68916" lon="6.58977">
        <ele>1642.891</ele>
        <time>2012-01-26T10:04:33Z</time>
      </trkpt>
      <trkpt lat="45.68916" lon="6.58987">
        <ele>1643.842</ele>
        <time>2012-01-26T10:04:43Z</time>
      </trkpt>
      <trkpt lat="45.68914" lon="6.59">
        <ele>1644.461</ele>
        <time>2012-01-26T10:04:53Z</time>
      </trkpt>
      <trkpt lat="45.68915" lon="6.5901">
        <ele>1644.939</ele>
        <time>2012-01-26T10:05:03Z</time>
      </trkpt>
      <trkpt lat="45.68915" lon="6.59021">
        <ele>1645.974</ele>
        <time>2012-01-26T10:05:13Z</time>
      </trkpt>
      <trkpt lat="45.68916" lon="6.59031">
        <ele>1647.112</ele>
        <time>2012-01-26T10:05:23Z</time>
      </trkpt>
      <trkpt lat="45.68918" lon="6.59041">
        <ele>1647.645</ele>
        <time>2012-01-26T10:05:33Z</time>
      </trkpt>
      <trkpt lat="45.68916" lon="6.59053">
        <ele>1648.946</ele>
        <time>2012-01-26T10:05:43Z</time>
      </trkpt>
      <trkpt lat="45.68917" lon="6.59063">
        <ele>1649.58</ele>
        <time>2012-01-26T10:05:53Z</time>
      </trkpt>
      <trkpt lat="45.68913" lon="6.59074">
        <ele>1650.428</ele>
        <time>2012-01-26T10:06:03Z</time>
      </trkpt>
      <trkpt lat="45.68911" lon="6.59087">
        <ele>1651.271</ele>
        <time>2012-01-26T10:06:13Z</time>
      </trkpt>
      <trkpt lat="45.68911" lon="6.591">
        <ele>1652.392</ele>
        <time>2012-01-26T10:06:23Z</time>
      </trkpt>
      <trkpt lat="45.68909" lon="6.59112">
        <ele>1652.81</ele>
        <time>2012-01-26T10:06:33Z</time>
      </trkpt>
      <trkpt lat="45.68908" lon="6.59121">
        <ele>1653.614</ele>
        <time>2012-01-26T10:06:43Z</time>
      </trkpt>
      <trkpt lat="45.68908" lon="6.59131">
        <ele>1654.224</ele>
        <time>2012-01-26T10:06:53Z</time>
      </trkpt>
      <trkpt lat="45.68906" lon="6.59143">
        <ele>1655.015</ele>
        <time>2012-01-26T10:07:03Z</time>
      </trkpt>
      <trkpt lat="45.68905" lon="6.59155">
        <ele>1655.946</ele>
        <time>2012-01-26T10:07:13Z</time>
      </trkpt>
      <trkpt lat="45.68903" lon="6.59163">
        <ele>1656.443</ele>
        <time>2012-01-26T10:07:23Z</time>
      </trkpt>
      <trkpt lat="45.68901" lon="6.59171">
        <ele>1657.788</ele>
        <time>2012-01-26T10:07:33Z</time>
      </trkpt>
      <trkpt lat="45.68901" lon="6.59185">
        <ele>1658.28</ele>
        <time>2012-01-26T10:07:43Z</time>
      </trkpt>
      <trkpt lat="45.68904" lon="6.59198">
        <ele>1659.498</ele>
        <time>2012-01-26T10:07:53Z</time>
      </trkpt>
      <trkpt lat="45.68905" lon="6.59207">
        <ele>1659.732</ele>
        <time>2012-01-26T10:08:03Z</time>
      </trkpt>
      <trkpt lat="45.68908" lon="6.59215">
        <ele>1660.537</ele>
        <time>2012-01-26T10:08:13Z</time>
      </trkpt>
      <trkpt lat="45.68909" lon="6.59227">
        <ele>1661.609</ele>
        <time>2012-01-26T10:08:23Z</time>
      </trkpt>
      <trkpt lat="45.68911" lon="6.59239">
        <ele>1662.068</ele>
        <time>2012-01-26T10:08:33Z</time>
      </trkpt>
      <trkpt lat="45.68914" lon="6.5925">
        <ele>1663.047</ele>
        <time>2012-01-26T10:08:43Z</time>
      </trkpt>
      <trkpt lat="45.68916" lon="6.5926">
        <ele>1664.036</ele>
        <time>2012-01-26T10:08:53Z</time>
      </trkpt>
      <trkpt lat="45.68916" lon="6.59269">
        <ele>1664.402</ele>
        <time>2012-01-26T10:09:03Z</time>
      </trkpt>
      <trkpt lat="45.68917" lon="6.59278">
        <ele>1665.085</ele>
        <time>2012-01-26T10:09:13Z</time>
      </trkpt>
      <trkpt lat="45.68913" lon="6.59278">
        <ele>1665.304</ele>
        <time>2012-01-26T10:09:23Z</time>
      </trkpt>
      <trkpt lat="45.68912" lon="6.5928">
        <ele>1665.251</ele>
        <time>2012-01-26T10:09:33Z</time>
      </trkpt>
      <trkpt lat="45.68913" lon="6.59281">
        <ele>1665.316</ele>
        <time>2012-01-26T10:09:43Z</time>
      </trkpt>
      <trkpt lat="45.68913" lon="6.59279">
        <ele>1665.238</ele>
        <time>2012-01-26T10:09:53Z</time>
      </trkpt>
      <trkpt lat="45.68913" lon="6.59279">
        <ele>1665.068</ele>
        <time>2012-01-26T10:10:03Z</time>
      </trkpt>
      <trkpt lat="45.68913" lon="6.59279">
        <ele>1665.2</ele>
        <time>2012-01-26T10:10:13Z</time>
      </trkpt>
      <trkpt lat="45.68913" lon="6.59279">
        <ele>1665.586</ele>
        <time>2012-01-26T10:10:23Z</time>
      </trkpt>
      <trkpt lat="45.68913" lon="6.59279">
        <ele>1665.312</ele>
        <time>2012-01-26T10:10:33Z</time>
      </trkpt>
      <trkpt lat="45.68913" lon="6.59279">
        <ele>1665.544</ele>
        <time>2012-01-26T10:10:43Z</time>
      </trkpt>
      <trkpt lat="45.68913" lon="6.59279">
        <ele>1665.414</ele>
        <time>2012-01-26T10:10:53Z</time>
      </trkpt>
      <trkpt lat="45.68913" lon="6.59279">
        <ele>1665.25</ele>
        <time>2012-01-26T10:11:03Z</time>
      </trkpt>
      <trkpt lat="45.68913" lon="6.59279">
        <ele>1665.193</ele>
        <time>2012-01-26T10:11:13Z</time>
      </trkpt>
      <trkpt lat="45.68914" lon="6.59279">
        <ele>1665.284</ele>
        <time>2012-01-26T10:11:23Z</time>
      </trkpt>
      <trkpt lat="45.68913" lon="6.59281">
        <ele>1665.906</ele>
        <time>2012-01-26T10:11:33Z</time>
      </trkpt>
      <trkpt lat="45.68913" lon="6.59281">
        <ele>1665.96</ele>
        <time>2012-01-26T10:11:43Z</time>
      </trkpt>
      <trkpt lat="45.68913" lon="6.59283">
        <ele>1665.749</ele>
        <time>2012-01-26T10:11:53Z</time>
      </trkpt>
      <trkpt lat="45.68914" lon="6.59287">
        <ele>1666.293</ele>
        <time>2012-01-26T10:12:03Z</time>
      </trkpt>
      <trkpt lat="45.68915" lon="6.59299">
        <ele>1667.531</ele>
        <time>2012-01-26T10:12:13Z</time>
      </trkpt>
      <trkpt lat="45.68916" lon="6.59313">
        <ele>1668.497</ele>
        <time>2012-01-26T10:12:23Z</time>
      </trkpt>
      <trkpt lat="45.68917" lon="6.59327">
        <ele>1669.409</ele>
        <time>2012-01-26T10:12:33Z</time>
      </trkpt>
      <trkpt lat="45.68915" lon="6.59338">
        <ele>1669.704</ele>
        <time>2012-01-26T10:12:43Z</time>
      </trkpt>
      <trkpt lat="45.68916" lon="6.59351">
        <ele>1670.727</ele>
        <time>2012-01-26T10:12:53Z</time>
      </trkpt>
      <trkpt lat="45.68921" lon="6.5936">
        <ele>1671.454</ele>
        <time>2012-01-26T10:13:03Z</time>
      </trkpt>
      <trkpt lat="45.6892" lon="6.59373">
        <ele>1672.242</ele>
        <time>2012-01-26T10:13:13Z</time>
      </trkpt>
      <trkpt lat="45.68925" lon="6.59381">
        <ele>1672.789</ele>
        <time>2012-01-26T10:13:23Z</time>
      </trkpt>
      <trkpt lat="45.6893" lon="6.59388">
        <ele>1673.746</ele>
        <time>2012-01-26T10:13:33Z</time>
      </trkpt>
      <trkpt lat="45.68931" lon="6.59397">
        <ele>1674.215</ele>
        <time>2012-01-26T10:13:43Z</time>
      </trkpt>
      <trkpt lat="45.68933" lon="6.59407">
        <ele>1674.979</ele>
        <time>2012-01-26T10:13:53Z</time>
      </trkpt>
      <trkpt lat="45.68937" lon="6.59413">
        <ele>1675.8</ele>
        <time>2012-01-26T10:14:03Z</time>
      </trkpt>
      <trkpt lat="45.68938" lon="6.59421">
        <ele>1677.103</ele>
        <time>2012-01-26T10:14:13Z</time>
      </trkpt>
      <trkpt lat="45.6894" lon="6.59431">
        <ele>1677.971</ele>
        <time>2012-01-26T10:14:23Z</time>
      </trkpt>
      <trkpt lat="45.6894" lon="6.59439">
        <ele>1678.965</ele>
        <time>2012-01-26T10:14:33Z</time>
      </trkpt>
      <trkpt lat="45.68937" lon="6.5945">
        <ele>1679.638</ele>
        <time>2012-01-26T10:14:43Z</time>
      </trkpt>
      <trkpt lat="45.68935" lon="6.59462">
        <ele>1679.74</ele>
        <time>2012-01-26T10:14:53Z</time>
      </trkpt>
      <trkpt lat="45.6893" lon="6.59471">
        <ele>1680.498</ele>
        <time>2012-01-26T10:15:03Z</time>
      </trkpt>
      <trkpt lat="45.68925" lon="6.59483">
        <ele>1681.455</ele>
        <time>2012-01-26T10:15:13Z</time>
      </trkpt>
      <trkpt lat="45.6892" lon="6.59494">
        <ele>1681.736</ele>
        <time>2012-01-26T10:15:23Z</time>
      </trkpt>
      <trkpt lat="45.68919" lon="6.595">
        <ele>1682.809</ele>
        <time>2012-01-26T10:15:33Z</time>
      </trkpt>
      <trkpt lat="45.68913" lon="6.59512">
        <ele>1683.673</ele>
        <time>2012-01-26T10:15:43Z</time>
      </trkpt>
      <trkpt lat="45.6891" lon="6.59522">
        <ele>1684.844</ele>
        <time>2012-01-26T10:15:53Z</time>
      </trkpt>
      <trkpt lat="45.68913" lon="6.59528">
        <ele>1685.333</ele>
        <time>2012-01-26T10:16:03Z</time>
      </trkpt>
      <trkpt lat="45.68919" lon="6.59535">
        <ele>1685.558</ele>
        <time>2012-01-26T10:16:13Z</time>
      </trkpt>
      <trkpt lat="45.68919" lon="6.59543">
        <ele>1686.154</ele>
        <time>2012-01-26T10:16:23Z</time>
      </trkpt>
      <trkpt lat="45.68922" lon="6.59544">
        <ele>1685.565</ele>
        <time>2012-01-26T10:16:33Z</time>
      </trkpt>
      <trkpt lat="45.68924" lon="6.59545">
        <ele>1686.41</ele>
        <time>2012-01-26T10:16:43Z</time>
      </trkpt>
      <trkpt lat="45.68925" lon="6.59551">
        <ele>1687.205</ele>
        <time>2012-01-26T10:16:53Z</time>
      </trkpt>
      <trkpt lat="45.68928" lon="6.59558">
        <ele>1687.431</ele>
        <time>2012-01-26T10:17:03Z</time>
      </trkpt>
      <trkpt lat="45.68936" lon="6.59567">
        <ele>1688.017</ele>
        <time>2012-01-26T10:17:13Z</time>
      </trkpt>
      <trkpt lat="45.68945" lon="6.59575">
        <ele>1688.901</ele>
        <time>2012-01-26T10:17:23Z</time>
      </trkpt>
      <trkpt lat="45.68951" lon="6.59586">
        <ele>1690.015</ele>
        <time>2012-01-26T10:17:33Z</time>
      </trkpt>
      <trkpt lat="45.68956" lon="6.59597">
        <ele>1690.234</ele>
        <time>2012-01-26T10:17:43Z</time>
      </trkpt>
      <trkpt lat="45.68954" lon="6.59598">
        <ele>1690.155</ele>
        <time>2012-01-26T10:17:53Z</time>
      </trkpt>
      <trkpt lat="45.68954" lon="6.59598">
        <ele>1690.214</ele>
        <time>2012-01-26T10:18:03Z</time>
      </trkpt>
      <trkpt lat="45.68954" lon="6.59598">
        <ele>1689.921</ele>
        <time>2012-01-26T10:18:13Z</time>
      </trkpt>
      <trkpt lat="45.68954" lon="6.59598">
        <ele>1690.253</ele>
        <time>2012-01-26T10:18:23Z</time>
      </trkpt>
      <trkpt lat="45.68954" lon="6.59598">
        <ele>1689.953</ele>
        <time>2012-01-26T10:18:33Z</time>
      </trkpt>
      <trkpt lat="45.68954" lon="6.59598">
        <ele>1690.097</ele>
        <time>2012-01-26T10:18:43Z</time>
      </trkpt>
      <trkpt lat="45.68955" lon="6.59601">
        <ele>1691.505</ele>
        <time>2012-01-26T10:18:53Z</time>
      </trkpt>
      <trkpt lat="45.68955" lon="6.59613">
        <ele>1692.966</ele>
        <time>2012-01-26T10:19:03Z</time>
      </trkpt>
      <trkpt lat="45.68955" lon="6.59624">
        <ele>1694.884</ele>
        <time>2012-01-26T10:19:13Z</time>
      </trkpt>
      <trkpt lat="45.68956" lon="6.59635">
        <ele>1695.634</ele>
        <time>2012-01-26T10:19:23Z</time>
      </trkpt>
      <trkpt lat="45.68959" lon="6.59644">
        <ele>1696.734</ele>
        <time>2012-01-26T10:19:33Z</time>
      </trkpt>
      <trkpt lat="45.68961" lon="6.59654">
        <ele>1698.011</ele>
        <time>2012-01-26T10:19:43Z</time>
      </trkpt>
      <trkpt lat="45.68967" lon="6.59662">
        <ele>1698.98</ele>
        <time>2012-01-26T10:19:53Z</time>
      </trkpt>
      <trkpt lat="45.68969" lon="6.59663">
        <ele>1699.505</ele>
        <time>2012-01-26T10:20:03Z</time>
      </trkpt>
      <trkpt lat="45.68974" lon="6.59673">
        <ele>1700.319</ele>
        <time>2012-01-26T10:20:13Z</time>
      </trkpt>
      <trkpt lat="45.68978" lon="6.59682">
        <ele>1700.945</ele>
        <time>2012-01-26T10:20:23Z</time>
      </trkpt>
      <trkpt lat="45.68982" lon="6.59691">
        <ele>1701.944</ele>
        <time>2012-01-26T10:20:33Z</time>
      </trkpt>
      <trkpt lat="45.68983" lon="6.597">
        <ele>1702.102</ele>
        <time>2012-01-26T10:20:43Z</time>
      </trkpt>
      <trkpt lat="45.68988" lon="6.59713">
        <ele>1702.974</ele>
        <time>2012-01-26T10:20:53Z</time>
      </trkpt>
      <trkpt lat="45.68989" lon="6.59723">
        <ele>1702.648</ele>
        <time>2012-01-26T10:21:03Z</time>
      </trkpt>
      <trkpt lat="45.68992" lon="6.59735">
        <ele>1703.428</ele>
        <time>2012-01-26T10:21:13Z</time>
      </trkpt>
      <trkpt lat="45.68991" lon="6.59744">
        <ele>1704.293</ele>
        <time>2012-01-26T10:21:23Z</time>
      </trkpt>
      <trkpt lat="45.68995" lon="6.59754">
        <ele>1705.299</ele>
        <time>2012-01-26T10:21:33Z</time>
      </trkpt>
      <trkpt lat="45.69001" lon="6.59765">
        <ele>1705.426</ele>
        <time>2012-01-26T10:21:43Z</time>
      </trkpt>
      <trkpt lat="45.69009" lon="6.59775">
        <ele>1705.728</ele>
        <time>2012-01-26T10:21:53Z</time>
      </trkpt>
      <trkpt lat="45.69011" lon="6.59785">
        <ele>1706.245</ele>
        <time>2012-01-26T10:22:03Z</time>
      </trkpt>
      <trkpt lat="45.69018" lon="6.59792">
        <ele>1707.274</ele>
        <time>2012-01-26T10:22:13Z</time>
      </trkpt>
      <trkpt lat="45.69019" lon="6.59798">
        <ele>1707.551</ele>
        <time>2012-01-26T10:22:23Z</time>
      </trkpt>
      <trkpt lat="45.6902" lon="6.59798">
        <ele>1707.434</ele>
        <time>2012-01-26T10:22:33Z</time>
      </trkpt>
      <trkpt lat="45.6902" lon="6.59798">
        <ele>1707.591</ele>
        <time>2012-01-26T10:22:43Z</time>
      </trkpt>
      <trkpt lat="45.69019" lon="6.59802">
        <ele>1707.239</ele>
        <time>2012-01-26T10:22:53Z</time>
      </trkpt>
      <trkpt lat="45.69018" lon="6.59802">
        <ele>1707.651</ele>
        <time>2012-01-26T10:23:03Z</time>
      </trkpt>
      <trkpt lat="45.69018" lon="6.59802">
        <ele>1707.083</ele>
        <time>2012-01-26T10:23:13Z</time>
      </trkpt>
      <trkpt lat="45.6902" lon="6.59804">
        <ele>1707.177</ele>
        <time>2012-01-26T10:23:23Z</time>
      </trkpt>
      <trkpt lat="45.69024" lon="6.59812">
        <ele>1706.107</ele>
        <time>2012-01-26T10:23:33Z</time>
      </trkpt>
      <trkpt lat="45.69025" lon="6.59817">
        <ele>1705.679</ele>
        <time>2012-01-26T10:23:43Z</time>
      </trkpt>
      <trkpt lat="45.69025" lon="6.59817">
        <ele>1705.38</ele>
        <time>2012-01-26T10:23:53Z</time>
      </trkpt>
      <trkpt lat="45.69022" lon="6.59816">
        <ele>1705.836</ele>
        <time>2012-01-26T10:24:03Z</time>
      </trkpt>
      <trkpt lat="45.69019" lon="6.59818">
        <ele>1706.435</ele>
        <time>2012-01-26T10:24:13Z</time>
      </trkpt>
      <trkpt lat="45.69014" lon="6.59824">
        <ele>1706.571</ele>
        <time>2012-01-26T10:24:23Z</time>
      </trkpt>
      <trkpt lat="45.69011" lon="6.5983">
        <ele>1706.95</ele>
        <time>2012-01-26T10:24:33Z</time>
      </trkpt>
      <trkpt lat="45.69012" lon="6.5983">
        <ele>1706.752</ele>
        <time>2012-01-26T10:24:43Z</time>
      </trkpt>
      <trkpt lat="45.69012" lon="6.5983">
        <ele>1706.88</ele>
        <time>2012-01-26T10:24:53Z</time>
      </trkpt>
      <trkpt lat="45.69013" lon="6.5983">
        <ele>1706.684</ele>
        <time>2012-01-26T10:25:03Z</time>
      </trkpt>
      <trkpt lat="45.69013" lon="6.59831">
        <ele>1706.832</ele>
        <time>2012-01-26T10:25:13Z</time>
      </trkpt>
      <trkpt lat="45.69009" lon="6.59835">
        <ele>1707.191</ele>
        <time>2012-01-26T10:25:23Z</time>
      </trkpt>
      <trkpt lat="45.69004" lon="6.59842">
        <ele>1707.761</ele>
        <time>2012-01-26T10:25:33Z</time>
      </trkpt>
      <trkpt lat="45.69" lon="6.59848">
        <ele>1708.186</ele>
        <time>2012-01-26T10:25:43Z</time>
      </trkpt>
      <trkpt lat="45.68999" lon="6.59848">
        <ele>1708.854</ele>
        <time>2012-01-26T10:25:53Z</time>
      </trkpt>
      <trkpt lat="45.68996" lon="6.59855">
        <ele>1709.194</ele>
        <time>2012-01-26T10:26:03Z</time>
      </trkpt>
      <trkpt lat="45.68996" lon="6.59866">
        <ele>1710.023</ele>
        <time>2012-01-26T10:26:13Z</time>
      </trkpt>
      <trkpt lat="45.68998" lon="6.59877">
        <ele>1710.42</ele>
        <time>2012-01-26T10:26:23Z</time>
      </trkpt>
      <trkpt lat="45.68999" lon="6.59886">
        <ele>1711.295</ele>
        <time>2012-01-26T10:26:33Z</time>
      </trkpt>
      <trkpt lat="45.68999" lon="6.59897">
        <ele>1711.944</ele>
        <time>2012-01-26T10:26:43Z</time>
      </trkpt>
      <trkpt lat="45.69" lon="6.59904">
        <ele>1712.21</ele>
        <time>2012-01-26T10:26:53Z</time>
      </trkpt>
      <trkpt lat="45.69" lon="6.59904">
        <ele>1711.836</ele>
        <time>2012-01-26T10:27:03Z</time>
      </trkpt>
      <trkpt lat="45.69" lon="6.59904">
        <ele>1711.949</ele>
        <time>2012-01-26T10:27:13Z</time>
      </trkpt>
      <trkpt lat="45.69" lon="6.59904">
        <ele>1711.972</ele>
        <time>2012-01-26T10:27:23Z</time>
      </trkpt>
      <trkpt lat="45.69" lon="6.59904">
        <ele>1711.795</ele>
        <time>2012-01-26T10:27:33Z</time>
      </trkpt>
      <trkpt lat="45.68999" lon="6.59907">
        <ele>1712.181</ele>
        <time>2012-01-26T10:27:43Z</time>
      </trkpt>
      <trkpt lat="45.68995" lon="6.59914">
        <ele>1712.513</ele>
        <time>2012-01-26T10:27:53Z</time>
      </trkpt>
      <trkpt lat="45.68996" lon="6.59922">
        <ele>1712.987</ele>
        <time>2012-01-26T10:28:03Z</time>
      </trkpt>
      <trkpt lat="45.68997" lon="6.59932">
        <ele>1712.633</ele>
        <time>2012-01-26T10:28:13Z</time>
      </trkpt>
      <trkpt lat="45.68995" lon="6.59942">
        <ele>1713.966</ele>
        <time>2012-01-26T10:28:23Z</time>
      </trkpt>
      <trkpt lat="45.68992" lon="6.59953">
        <ele>1714.256</ele>
        <time>2012-01-26T10:28:33Z</time>
      </trkpt>
      <trkpt lat="45.68989" lon="6.59962">
        <ele>1714.599</ele>
        <time>2012-01-26T10:28:43Z</time>
      </trkpt>
      <trkpt lat="45.68988" lon="6.59972">
        <ele>1715.338</ele>
        <time>2012-01-26T10:28:53Z</time>
      </trkpt>
      <trkpt lat="45.68985" lon="6.59982">
        <ele>1715.533</ele>
        <time>2012-01-26T10:29:03Z</time>
      </trkpt>
      <trkpt lat="45.68981" lon="6.59989">
        <ele>1716.884</ele>
        <time>2012-01-26T10:29:13Z</time>
      </trkpt>
      <trkpt lat="45.68977" lon="6.59998">
        <ele>1717.225</ele>
        <time>2012-01-26T10:29:23Z</time>
      </trkpt>
      <trkpt lat="45.68973" lon="6.60008">
        <ele>1717.67</ele>
        <time>2012-01-26T10:29:33Z</time>
      </trkpt>
      <trkpt lat="45.68968" lon="6.60018">
        <ele>1718.773</ele>
        <time>2012-01-26T10:29:43Z</time>
      </trkpt>
      <trkpt lat="45.68964" lon="6.60028">
        <ele>1719.285</ele>
        <time>2012-01-26T10:29:53Z</time>
      </trkpt>
      <trkpt lat="45.6896" lon="6.60037">
        <ele>1720.351</ele>
        <time>2012-01-26T10:30:03Z</time>
      </trkpt>
      <trkpt lat="45.68956" lon="6.60045">
        <ele>1720.786</ele>
        <time>2012-01-26T10:30:13Z</time>
      </trkpt>
      <trkpt lat="45.6895" lon="6.60054">
        <ele>1721.163</ele>
        <time>2012-01-26T10:30:23Z</time>
      </trkpt>
      <trkpt lat="45.68945" lon="6.6006">
        <ele>1721.816</ele>
        <time>2012-01-26T10:30:33Z</time>
      </trkpt>
      <trkpt lat="45.68938" lon="6.60064">
        <ele>1722.584</ele>
        <time>2012-01-26T10:30:43Z</time>
      </trkpt>
      <trkpt lat="45.6893" lon="6.60068">
        <ele>1723.166</ele>
        <time>2012-01-26T10:30:53Z</time>
      </trkpt>
      <trkpt lat="45.68922" lon="6.60074">
        <ele>1723.632</ele>
        <time>2012-01-26T10:31:03Z</time>
      </trkpt>
      <trkpt lat="45.68919" lon="6.60079">
        <ele>1723.469</ele>
        <time>2012-01-26T10:31:13Z</time>
      </trkpt>
      <trkpt lat="45.68918" lon="6.6008">
        <ele>1723.474</ele>
        <time>2012-01-26T10:31:23Z</time>
      </trkpt>
      <trkpt lat="45.68918" lon="6.6008">
        <ele>1723.346</ele>
        <time>2012-01-26T10:31:33Z</time>
      </trkpt>
      <trkpt lat="45.6892" lon="6.60078">
        <ele>1723.229</ele>
        <time>2012-01-26T10:31:43Z</time>
      </trkpt>
      <trkpt lat="45.68915" lon="6.60079">
        <ele>1724.089</ele>
        <time>2012-01-26T10:31:53Z</time>
      </trkpt>
      <trkpt lat="45.68913" lon="6.60076">
        <ele>1724.264</ele>
        <time>2012-01-26T10:32:03Z</time>
      </trkpt>
      <trkpt lat="45.68913" lon="6.60076">
        <ele>1723.908</ele>
        <time>2012-01-26T10:32:13Z</time>
      </trkpt>
      <trkpt lat="45.68913" lon="6.60076">
        <ele>1724.094</ele>
        <time>2012-01-26T10:32:23Z</time>
      </trkpt>
      <trkpt lat="45.68913" lon="6.60076">
        <ele>1724.018</ele>
        <time>2012-01-26T10:32:33Z</time>
      </trkpt>
      <trkpt lat="45.68913" lon="6.60076">
        <ele>1724.001</ele>
        <time>2012-01-26T10:32:43Z</time>
      </trkpt>
      <trkpt lat="45.68913" lon="6.60076">
        <ele>1724.215</ele>
        <time>2012-01-26T10:32:53Z</time>
      </trkpt>
      <trkpt lat="45.68913" lon="6.60076">
        <ele>1724.129</ele>
        <time>2012-01-26T10:33:03Z</time>
      </trkpt>
      <trkpt lat="45.68913" lon="6.60076">
        <ele>1723.864</ele>
        <time>2012-01-26T10:33:13Z</time>
      </trkpt>
      <trkpt lat="45.68913" lon="6.60076">
        <ele>1723.996</ele>
        <time>2012-01-26T10:33:23Z</time>
      </trkpt>
      <trkpt lat="45.68913" lon="6.60076">
        <ele>1724.12</ele>
        <time>2012-01-26T10:33:33Z</time>
      </trkpt>
      <trkpt lat="45.68913" lon="6.60076">
        <ele>1724.454</ele>
        <time>2012-01-26T10:33:43Z</time>
      </trkpt>
      <trkpt lat="45.68913" lon="6.60076">
        <ele>1724.522</ele>
        <time>2012-01-26T10:33:53Z</time>
      </trkpt>
      <trkpt lat="45.68913" lon="6.60076">
        <ele>1723.84</ele>
        <time>2012-01-26T10:34:03Z</time>
      </trkpt>
      <trkpt lat="45.6891" lon="6.60078">
        <ele>1724.92</ele>
        <time>2012-01-26T10:34:13Z</time>
      </trkpt>
      <trkpt lat="45.68906" lon="6.60081">
        <ele>1725.333</ele>
        <time>2012-01-26T10:34:23Z</time>
      </trkpt>
      <trkpt lat="45.68899" lon="6.60089">
        <ele>1725.87</ele>
        <time>2012-01-26T10:34:33Z</time>
      </trkpt>
      <trkpt lat="45.68895" lon="6.60098">
        <ele>1726.657</ele>
        <time>2012-01-26T10:34:43Z</time>
      </trkpt>
      <trkpt lat="45.68893" lon="6.60109">
        <ele>1726.476</ele>
        <time>2012-01-26T10:34:53Z</time>
      </trkpt>
      <trkpt lat="45.68891" lon="6.6012">
        <ele>1727.209</ele>
        <time>2012-01-26T10:35:03Z</time>
      </trkpt>
      <trkpt lat="45.6889" lon="6.60124">
        <ele>1726.828</ele>
        <time>2012-01-26T10:35:13Z</time>
      </trkpt>
      <trkpt lat="45.6889" lon="6.60135">
        <ele>1727.368</ele>
        <time>2012-01-26T10:35:23Z</time>
      </trkpt>
      <trkpt lat="45.68892" lon="6.60147">
        <ele>1726.805</ele>
        <time>2012-01-26T10:35:33Z</time>
      </trkpt>
      <trkpt lat="45.6889" lon="6.60158">
        <ele>1726.971</ele>
        <time>2012-01-26T10:35:43Z</time>
      </trkpt>
      <trkpt lat="45.68886" lon="6.60171">
        <ele>1726.895</ele>
        <time>2012-01-26T10:35:53Z</time>
      </trkpt>
      <trkpt lat="45.68885" lon="6.60181">
        <ele>1727.748</ele>
        <time>2012-01-26T10:36:03Z</time>
      </trkpt>
      <trkpt lat="45.68885" lon="6.60191">
        <ele>1727.172</ele>
        <time>2012-01-26T10:36:13Z</time>
      </trkpt>
      <trkpt lat="45.68884" lon="6.60202">
        <ele>1727.789</ele>
        <time>2012-01-26T10:36:23Z</time>
      </trkpt>
      <trkpt lat="45.68883" lon="6.60213">
        <ele>1728.14</ele>
        <time>2012-01-26T10:36:33Z</time>
      </trkpt>
      <trkpt lat="45.68883" lon="6.60224">
        <ele>1728.31</ele>
        <time>2012-01-26T10:36:43Z</time>
      </trkpt>
      <trkpt lat="45.6888" lon="6.60236">
        <ele>1728.054</ele>
        <time>2012-01-26T10:36:53Z</time>
      </trkpt>
      <trkpt lat="45.68879" lon="6.60247">
        <ele>1728.573</ele>
        <time>2012-01-26T10:37:03Z</time>
      </trkpt>
      <trkpt lat="45.68876" lon="6.60255">
        <ele>1728.705</ele>
        <time>2012-01-26T10:37:13Z</time>
      </trkpt>
      <trkpt lat="45.68876" lon="6.60256">
        <ele>1728.529</ele>
        <time>2012-01-26T10:37:23Z</time>
      </trkpt>
      <trkpt lat="45.68874" lon="6.60262">
        <ele>1728.711</ele>
        <time>2012-01-26T10:37:33Z</time>
      </trkpt>
      <trkpt lat="45.68869" lon="6.6027">
        <ele>1728.702</ele>
        <time>2012-01-26T10:37:43Z</time>
      </trkpt>
      <trkpt lat="45.68861" lon="6.60279">
        <ele>1728.157</ele>
        <time>2012-01-26T10:37:53Z</time>
      </trkpt>
      <trkpt lat="45.68854" lon="6.60284">
        <ele>1728.303</ele>
        <time>2012-01-26T10:38:03Z</time>
      </trkpt>
      <trkpt lat="45.68846" lon="6.6029">
        <ele>1728.368</ele>
        <time>2012-01-26T10:38:13Z</time>
      </trkpt>
      <trkpt lat="45.68839" lon="6.60297">
        <ele>1727.838</ele>
        <time>2012-01-26T10:38:23Z</time>
      </trkpt>
      <trkpt lat="45.68831" lon="6.60304">
        <ele>1728.189</ele>
        <time>2012-01-26T10:38:33Z</time>
      </trkpt>
      <trkpt lat="45.68825" lon="6.60312">
        <ele>1728.087</ele>
        <time>2012-01-26T10:38:43Z</time>
      </trkpt>
      <trkpt lat="45.68819" lon="6.60319">
        <ele>1728.517</ele>
        <time>2012-01-26T10:38:53Z</time>
      </trkpt>
      <trkpt lat="45.68815" lon="6.6033">
        <ele>1728.176</ele>
        <time>2012-01-26T10:39:03Z</time>
      </trkpt>
      <trkpt lat="45.68814" lon="6.60333">
        <ele>1728.439</ele>
        <time>2012-01-26T10:39:13Z</time>
      </trkpt>
      <trkpt lat="45.68814" lon="6.60333">
        <ele>1727.895</ele>
        <time>2012-01-26T10:39:23Z</time>
      </trkpt>
      <trkpt lat="45.68814" lon="6.60333">
        <ele>1728.406</ele>
        <time>2012-01-26T10:39:33Z</time>
      </trkpt>
      <trkpt lat="45.68814" lon="6.60333">
        <ele>1728.541</ele>
        <time>2012-01-26T10:39:43Z</time>
      </trkpt>
      <trkpt lat="45.68814" lon="6.60333">
        <ele>1728.159</ele>
        <time>2012-01-26T10:39:53Z</time>
      </trkpt>
      <trkpt lat="45.68814" lon="6.60334">
        <ele>1728.897</ele>
        <time>2012-01-26T10:40:03Z</time>
      </trkpt>
      <trkpt lat="45.68814" lon="6.60334">
        <ele>1728.393</ele>
        <time>2012-01-26T10:40:13Z</time>
      </trkpt>
      <trkpt lat="45.68814" lon="6.60334">
        <ele>1728.724</ele>
        <time>2012-01-26T10:40:23Z</time>
      </trkpt>
      <trkpt lat="45.68814" lon="6.60334">
        <ele>1728.658</ele>
        <time>2012-01-26T10:40:33Z</time>
      </trkpt>
      <trkpt lat="45.68814" lon="6.60334">
        <ele>1728.432</ele>
        <time>2012-01-26T10:40:43Z</time>
      </trkpt>
      <trkpt lat="45.68814" lon="6.60334">
        <ele>1728.653</ele>
        <time>2012-01-26T10:40:53Z</time>
      </trkpt>
      <trkpt lat="45.68814" lon="6.60334">
        <ele>1728.348</ele>
        <time>2012-01-26T10:41:03Z</time>
      </trkpt>
      <trkpt lat="45.68814" lon="6.60334">
        <ele>1728.614</ele>
        <time>2012-01-26T10:41:13Z</time>
      </trkpt>
      <trkpt lat="45.68814" lon="6.60334">
        <ele>1728.276</ele>
        <time>2012-01-26T10:41:23Z</time>
      </trkpt>
      <trkpt lat="45.68814" lon="6.60334">
        <ele>1728.43</ele>
        <time>2012-01-26T10:41:33Z</time>
      </trkpt>
      <trkpt lat="45.68814" lon="6.60335">
        <ele>1728.749</ele>
        <time>2012-01-26T10:41:43Z</time>
      </trkpt>
      <trkpt lat="45.68814" lon="6.60335">
        <ele>1728.994</ele>
        <time>2012-01-26T10:41:53Z</time>
      </trkpt>
      <trkpt lat="45.68814" lon="6.60335">
        <ele>1728.664</ele>
        <time>2012-01-26T10:42:03Z</time>
      </trkpt>
      <trkpt lat="45.68814" lon="6.60335">
        <ele>1728.122</ele>
        <time>2012-01-26T10:42:13Z</time>
      </trkpt>
      <trkpt lat="45.68814" lon="6.60335">
        <ele>1728.499</ele>
        <time>2012-01-26T10:42:23Z</time>
      </trkpt>
      <trkpt lat="45.68814" lon="6.60335">
        <ele>1728.333</ele>
        <time>2012-01-26T10:42:33Z</time>
      </trkpt>
      <trkpt lat="45.68814" lon="6.60337">
        <ele>1728.6</ele>
        <time>2012-01-26T10:42:43Z</time>
      </trkpt>
      <trkpt lat="45.68815" lon="6.60347">
        <ele>1728.284</ele>
        <time>2012-01-26T10:42:53Z</time>
      </trkpt>
      <trkpt lat="45.68814" lon="6.60357">
        <ele>1727.985</ele>
        <time>2012-01-26T10:43:03Z</time>
      </trkpt>
      <trkpt lat="45.68808" lon="6.60366">
        <ele>1728.516</ele>
        <time>2012-01-26T10:43:13Z</time>
      </trkpt>
      <trkpt lat="45.68805" lon="6.60372">
        <ele>1728.856</ele>
        <time>2012-01-26T10:43:23Z</time>
      </trkpt>
      <trkpt lat="45.68799" lon="6.60377">
        <ele>1729.294</ele>
        <time>2012-01-26T10:43:33Z</time>
      </trkpt>
      <trkpt lat="45.68794" lon="6.6038">
        <ele>1729.709</ele>
        <time>2012-01-26T10:43:43Z</time>
      </trkpt>
      <trkpt lat="45.68794" lon="6.60379">
        <ele>1730.181</ele>
        <time>2012-01-26T10:43:53Z</time>
      </trkpt>
      <trkpt lat="45.68794" lon="6.60379">
        <ele>1730.061</ele>
        <time>2012-01-26T10:44:03Z</time>
      </trkpt>
      <trkpt lat="45.68794" lon="6.60379">
        <ele>1729.812</ele>
        <time>2012-01-26T10:44:13Z</time>
      </trkpt>
      <trkpt lat="45.68794" lon="6.60379">
        <ele>1729.974</ele>
        <time>2012-01-26T10:44:23Z</time>
      </trkpt>
      <trkpt lat="45.68794" lon="6.60379">
        <ele>1729.924</ele>
        <time>2012-01-26T10:44:33Z</time>
      </trkpt>
      <trkpt lat="45.68794" lon="6.60379">
        <ele>1729.557</ele>
        <time>2012-01-26T10:44:43Z</time>
      </trkpt>
      <trkpt lat="45.68791" lon="6.60382">
        <ele>1730.29</ele>
        <time>2012-01-26T10:44:53Z</time>
      </trkpt>
      <trkpt lat="45.68785" lon="6.60383">
        <ele>1730.089</ele>
        <time>2012-01-26T10:45:03Z</time>
      </trkpt>
      <trkpt lat="45.68776" lon="6.60381">
        <ele>1729.529</ele>
        <time>2012-01-26T10:45:13Z</time>
      </trkpt>
      <trkpt lat="45.68769" lon="6.60383">
        <ele>1730.043</ele>
        <time>2012-01-26T10:45:23Z</time>
      </trkpt>
      <trkpt lat="45.68761" lon="6.60391">
        <ele>1730.08</ele>
        <time>2012-01-26T10:45:33Z</time>
      </trkpt>
      <trkpt lat="45.68751" lon="6.60399">
        <ele>1730.198</ele>
        <time>2012-01-26T10:45:43Z</time>
      </trkpt>
      <trkpt lat="45.68744" lon="6.60407">
        <ele>1730.444</ele>
        <time>2012-01-26T10:45:53Z</time>
      </trkpt>
      <trkpt lat="45.68743" lon="6.60419">
        <ele>1730.36</ele>
        <time>2012-01-26T10:46:03Z</time>
      </trkpt>
      <trkpt lat="45.68739" lon="6.60431">
        <ele>1730.962</ele>
        <time>2012-01-26T10:46:13Z</time>
      </trkpt>
      <trkpt lat="45.68734" lon="6.60442">
        <ele>1731.408</ele>
        <time>2012-01-26T10:46:23Z</time>
      </trkpt>
      <trkpt lat="45.6873" lon="6.60455">
        <ele>1731.322</ele>
        <time>2012-01-26T10:46:33Z</time>
      </trkpt>
      <trkpt lat="45.68728" lon="6.60468">
        <ele>1731.817</ele>
        <time>2012-01-26T10:46:43Z</time>
      </trkpt>
      <trkpt lat="45.68725" lon="6.60479">
        <ele>1731.273</ele>
        <time>2012-01-26T10:46:53Z</time>
      </trkpt>
      <trkpt lat="45.68725" lon="6.60492">
        <ele>1731.583</ele>
        <time>2012-01-26T10:47:03Z</time>
      </trkpt>
      <trkpt lat="45.68725" lon="6.60503">
        <ele>1731.281</ele>
        <time>2012-01-26T10:47:13Z</time>
      </trkpt>
      <trkpt lat="45.68723" lon="6.60517">
        <ele>1732.039</ele>
        <time>2012-01-26T10:47:23Z</time>
      </trkpt>
      <trkpt lat="45.68723" lon="6.60528">
        <ele>1731.449</ele>
        <time>2012-01-26T10:47:33Z</time>
      </trkpt>
      <trkpt lat="45.68724" lon="6.60529">
        <ele>1731.344</ele>
        <time>2012-01-26T10:47:43Z</time>
      </trkpt>
      <trkpt lat="45.68722" lon="6.60531">
        <ele>1731.909</ele>
        <time>2012-01-26T10:47:53Z</time>
      </trkpt>
      <trkpt lat="45.6872" lon="6.60538">
        <ele>1731.434</ele>
        <time>2012-01-26T10:48:03Z</time>
      </trkpt>
      <trkpt lat="45.68716" lon="6.60543">
        <ele>1730.961</ele>
        <time>2012-01-26T10:48:13Z</time>
      </trkpt>
      <trkpt lat="45.68713" lon="6.60545">
        <ele>1731.165</ele>
        <time>2012-01-26T10:48:23Z</time>
      </trkpt>
      <trkpt lat="45.6871" lon="6.60548">
        <ele>1731.566</ele>
        <time>2012-01-26T10:48:33Z</time>
      </trkpt>
      <trkpt lat="45.68712" lon="6.60552">
        <ele>1731.224</ele>
        <time>2012-01-26T10:48:43Z</time>
      </trkpt>
      <trkpt lat="45.68704" lon="6.60557">
        <ele>1731.763</ele>
        <time>2012-01-26T10:48:53Z</time>
      </trkpt>
      <trkpt lat="45.68701" lon="6.60564">
        <ele>1733.212</ele>
        <time>2012-01-26T10:49:03Z</time>
      </trkpt>
      <trkpt lat="45.68695" lon="6.60576">
        <ele>1732.969</ele>
        <time>2012-01-26T10:49:13Z</time>
      </trkpt>
      <trkpt lat="45.68692" lon="6.6058">
        <ele>1733.376</ele>
        <time>2012-01-26T10:49:23Z</time>
      </trkpt>
      <trkpt lat="45.68688" lon="6.60587">
        <ele>1733.475</ele>
        <time>2012-01-26T10:49:33Z</time>
      </trkpt>
      <trkpt lat="45.68682" lon="6.60593">
        <ele>1732.886</ele>
        <time>2012-01-26T10:49:43Z</time>
      </trkpt>
      <trkpt lat="45.68676" lon="6.60606">
        <ele>1732.767</ele>
        <time>2012-01-26T10:49:53Z</time>
      </trkpt>
      <trkpt lat="45.6867" lon="6.60615">
        <ele>1733.166</ele>
        <time>2012-01-26T10:50:03Z</time>
      </trkpt>
      <trkpt lat="45.68666" lon="6.60622">
        <ele>1733.766</ele>
        <time>2012-01-26T10:50:13Z</time>
      </trkpt>
      <trkpt lat="45.6866" lon="6.60625">
        <ele>1733.889</ele>
        <time>2012-01-26T10:50:23Z</time>
      </trkpt>
      <trkpt lat="45.68654" lon="6.60631">
        <ele>1734.315</ele>
        <time>2012-01-26T10:50:33Z</time>
      </trkpt>
      <trkpt lat="45.68649" lon="6.60635">
        <ele>1734.604</ele>
        <time>2012-01-26T10:50:43Z</time>
      </trkpt>
      <trkpt lat="45.68647" lon="6.60642">
        <ele>1735.41</ele>
        <time>2012-01-26T10:50:53Z</time>
      </trkpt>
      <trkpt lat="45.68641" lon="6.60648">
        <ele>1735.736</ele>
        <time>2012-01-26T10:51:03Z</time>
      </trkpt>
      <trkpt lat="45.68633" lon="6.60651">
        <ele>1736.004</ele>
        <time>2012-01-26T10:51:13Z</time>
      </trkpt>
      <trkpt lat="45.68628" lon="6.60662">
        <ele>1735.829</ele>
        <time>2012-01-26T10:51:23Z</time>
      </trkpt>
      <trkpt lat="45.68621" lon="6.60672">
        <ele>1735.418</ele>
        <time>2012-01-26T10:51:33Z</time>
      </trkpt>
      <trkpt lat="45.68619" lon="6.60671">
        <ele>1735.387</ele>
        <time>2012-01-26T10:51:43Z</time>
      </trkpt>
      <trkpt lat="45.68615" lon="6.60681">
        <ele>1735.662</ele>
        <time>2012-01-26T10:51:53Z</time>
      </trkpt>
      <trkpt lat="45.68612" lon="6.60697">
        <ele>1736.463</ele>
        <time>2012-01-26T10:52:03Z</time>
      </trkpt>
      <trkpt lat="45.68608" lon="6.60705">
        <ele>1737.163</ele>
        <time>2012-01-26T10:52:13Z</time>
      </trkpt>
      <trkpt lat="45.68602" lon="6.60713">
        <ele>1737.182</ele>
        <time>2012-01-26T10:52:23Z</time>
      </trkpt>
      <trkpt lat="45.68596" lon="6.6072">
        <ele>1737.171</ele>
        <time>2012-01-26T10:52:33Z</time>
      </trkpt>
      <trkpt lat="45.68589" lon="6.60726">
        <ele>1736.502</ele>
        <time>2012-01-26T10:52:43Z</time>
      </trkpt>
      <trkpt lat="45.68585" lon="6.60736">
        <ele>1735.286</ele>
        <time>2012-01-26T10:52:53Z</time>
      </trkpt>
      <trkpt lat="45.68583" lon="6.60745">
        <ele>1735.057</ele>
        <time>2012-01-26T10:53:03Z</time>
      </trkpt>
      <trkpt lat="45.68582" lon="6.60748">
        <ele>1735.178</ele>
        <time>2012-01-26T10:53:13Z</time>
      </trkpt>
      <trkpt lat="45.68582" lon="6.60749">
        <ele>1734.475</ele>
        <time>2012-01-26T10:53:23Z</time>
      </trkpt>
      <trkpt lat="45.68581" lon="6.6075">
        <ele>1734.168</ele>
        <time>2012-01-26T10:53:33Z</time>
      </trkpt>
      <trkpt lat="45.6858" lon="6.60753">
        <ele>1733.489</ele>
        <time>2012-01-26T10:53:43Z</time>
      </trkpt>
      <trkpt lat="45.6858" lon="6.60754">
        <ele>1733.562</ele>
        <time>2012-01-26T10:53:53Z</time>
      </trkpt>
      <trkpt lat="45.68581" lon="6.60756">
        <ele>1731.453</ele>
        <time>2012-01-26T10:54:03Z</time>
      </trkpt>
      <trkpt lat="45.68587" lon="6.60753">
        <ele>1731.251</ele>
        <time>2012-01-26T10:54:13Z</time>
      </trkpt>
      <trkpt lat="45.68591" lon="6.60751">
        <ele>1730.52</ele>
        <time>2012-01-26T10:54:23Z</time>
      </trkpt>
      <trkpt lat="45.68591" lon="6.60748">
        <ele>1730.705</ele>
        <time>2012-01-26T10:54:33Z</time>
      </trkpt>
      <trkpt lat="45.68589" lon="6.60749">
        <ele>1731.154</ele>
        <time>2012-01-26T10:54:43Z</time>
      </trkpt>
      <trkpt lat="45.68588" lon="6.60749">
        <ele>1730.928</ele>
        <time>2012-01-26T10:54:53Z</time>
      </trkpt>
      <trkpt lat="45.68588" lon="6.60749">
        <ele>1731.099</ele>
        <time>2012-01-26T10:55:03Z</time>
      </trkpt>
      <trkpt lat="45.68589" lon="6.60749">
        <ele>1730.362</ele>
        <time>2012-01-26T10:55:13Z</time>
      </trkpt>
      <trkpt lat="45.6859" lon="6.60747">
        <ele>1730.202</ele>
        <time>2012-01-26T10:55:23Z</time>
      </trkpt>
      <trkpt lat="45.68593" lon="6.60743">
        <ele>1729.138</ele>
        <time>2012-01-26T10:55:33Z</time>
      </trkpt>
      <trkpt lat="45.68592" lon="6.6074">
        <ele>1730.428</ele>
        <time>2012-01-26T10:55:43Z</time>
      </trkpt>
      <trkpt lat="45.6859" lon="6.60739">
        <ele>1730.146</ele>
        <time>2012-01-26T10:55:53Z</time>
      </trkpt>
      <trkpt lat="45.68591" lon="6.60736">
        <ele>1730.201</ele>
        <time>2012-01-26T10:56:03Z</time>
      </trkpt>
      <trkpt lat="45.68591" lon="6.60734">
        <ele>1730.152</ele>
        <time>2012-01-26T10:56:13Z</time>
      </trkpt>
      <trkpt lat="45.68592" lon="6.60737">
        <ele>1729.605</ele>
        <time>2012-01-26T10:56:23Z</time>
      </trkpt>
      <trkpt lat="45.68593" lon="6.60737">
        <ele>1729.642</ele>
        <time>2012-01-26T10:56:33Z</time>
      </trkpt>
      <trkpt lat="45.68593" lon="6.60738">
        <ele>1729.967</ele>
        <time>2012-01-26T10:56:43Z</time>
      </trkpt>
      <trkpt lat="45.68594" lon="6.60739">
        <ele>1730.255</ele>
        <time>2012-01-26T10:56:53Z</time>
      </trkpt>
      <trkpt lat="45.68595" lon="6.60739">
        <ele>1729.919</ele>
        <time>2012-01-26T10:57:03Z</time>
      </trkpt>
      <trkpt lat="45.68594" lon="6.60737">
        <ele>1729.967</ele>
        <time>2012-01-26T10:57:13Z</time>
      </trkpt>
      <trkpt lat="45.68592" lon="6.60742">
        <ele>1730.49</ele>
        <time>2012-01-26T10:57:23Z</time>
      </trkpt>
      <trkpt lat="45.68591" lon="6.60747">
        <ele>1730.181</ele>
        <time>2012-01-26T10:57:33Z</time>
      </trkpt>
      <trkpt lat="45.68591" lon="6.6075">
        <ele>1729.999</ele>
        <time>2012-01-26T10:57:43Z</time>
      </trkpt>
      <trkpt lat="45.6859" lon="6.60752">
        <ele>1729.932</ele>
        <time>2012-01-26T10:57:53Z</time>
      </trkpt>
      <trkpt lat="45.6859" lon="6.60753">
        <ele>1729.919</ele>
        <time>2012-01-26T10:58:03Z</time>
      </trkpt>
      <trkpt lat="45.68591" lon="6.60743">
        <ele>1730.078</ele>
        <time>2012-01-26T10:58:13Z</time>
      </trkpt>
      <trkpt lat="45.68591" lon="6.60742">
        <ele>1729.967</ele>
        <time>2012-01-26T10:58:23Z</time>
      </trkpt>
      <trkpt lat="45.68591" lon="6.6074">
        <ele>1729.66</ele>
        <time>2012-01-26T10:58:33Z</time>
      </trkpt>
      <trkpt lat="45.68591" lon="6.6074">
        <ele>1730.363</ele>
        <time>2012-01-26T10:58:43Z</time>
      </trkpt>
      <trkpt lat="45.68591" lon="6.60739">
        <ele>1729.959</ele>
        <time>2012-01-26T10:58:53Z</time>
      </trkpt>
      <trkpt lat="45.68592" lon="6.6074">
        <ele>1729.703</ele>
        <time>2012-01-26T10:59:03Z</time>
      </trkpt>
      <trkpt lat="45.68593" lon="6.60742">
        <ele>1730.162</ele>
        <time>2012-01-26T10:59:13Z</time>
      </trkpt>
      <trkpt lat="45.68593" lon="6.60743">
        <ele>1730.049</ele>
        <time>2012-01-26T10:59:23Z</time>
      </trkpt>
      <trkpt lat="45.68593" lon="6.60743">
        <ele>1730.144</ele>
        <time>2012-01-26T10:59:33Z</time>
      </trkpt>
      <trkpt lat="45.68593" lon="6.60744">
        <ele>1729.277</ele>
        <time>2012-01-26T10:59:43Z</time>
      </trkpt>
      <trkpt lat="45.68592" lon="6.60745">
        <ele>1729.782</ele>
        <time>2012-01-26T10:59:53Z</time>
      </trkpt>
      <trkpt lat="45.68592" lon="6.60747">
        <ele>1728.606</ele>
        <time>2012-01-26T11:00:03Z</time>
      </trkpt>
      <trkpt lat="45.68591" lon="6.60748">
        <ele>1730.001</ele>
        <time>2012-01-26T11:00:13Z</time>
      </trkpt>
      <trkpt lat="45.6859" lon="6.60748">
        <ele>1729.745</ele>
        <time>2012-01-26T11:00:23Z</time>
      </trkpt>
      <trkpt lat="45.68589" lon="6.60748">
        <ele>1730.561</ele>
        <time>2012-01-26T11:00:33Z</time>
      </trkpt>
      <trkpt lat="45.68589" lon="6.60747">
        <ele>1730.392</ele>
        <time>2012-01-26T11:00:43Z</time>
      </trkpt>
      <trkpt lat="45.68589" lon="6.60746">
        <ele>1730.434</ele>
        <time>2012-01-26T11:00:53Z</time>
      </trkpt>
      <trkpt lat="45.68587" lon="6.60744">
        <ele>1729.697</ele>
        <time>2012-01-26T11:01:03Z</time>
      </trkpt>
      <trkpt lat="45.68585" lon="6.60745">
        <ele>1730.58</ele>
        <time>2012-01-26T11:01:13Z</time>
      </trkpt>
      <trkpt lat="45.68583" lon="6.60746">
        <ele>1730.527</ele>
        <time>2012-01-26T11:01:23Z</time>
      </trkpt>
      <trkpt lat="45.68583" lon="6.60748">
        <ele>1730.672</ele>
        <time>2012-01-26T11:01:33Z</time>
      </trkpt>
      <trkpt lat="45.68584" lon="6.60747">
        <ele>1730.347</ele>
        <time>2012-01-26T11:01:43Z</time>
      </trkpt>
      <trkpt lat="45.68584" lon="6.60748">
        <ele>1730.336</ele>
        <time>2012-01-26T11:01:53Z</time>
      </trkpt>
      <trkpt lat="45.68584" lon="6.60749">
        <ele>1730.013</ele>
        <time>2012-01-26T11:02:03Z</time>
      </trkpt>
      <trkpt lat="45.68585" lon="6.60748">
        <ele>1730.008</ele>
        <time>2012-01-26T11:02:13Z</time>
      </trkpt>
      <trkpt lat="45.68586" lon="6.60747">
        <ele>1730.177</ele>
        <time>2012-01-26T11:02:23Z</time>
      </trkpt>
      <trkpt lat="45.68587" lon="6.60747">
        <ele>1729.838</ele>
        <time>2012-01-26T11:02:33Z</time>
      </trkpt>
      <trkpt lat="45.68587" lon="6.60748">
        <ele>1730.102</ele>
        <time>2012-01-26T11:02:43Z</time>
      </trkpt>
      <trkpt lat="45.68587" lon="6.6075">
        <ele>1730.099</ele>
        <time>2012-01-26T11:02:53Z</time>
      </trkpt>
      <trkpt lat="45.68587" lon="6.60751">
        <ele>1730.02</ele>
        <time>2012-01-26T11:03:03Z</time>
      </trkpt>
      <trkpt lat="45.68587" lon="6.60753">
        <ele>1730.461</ele>
        <time>2012-01-26T11:03:13Z</time>
      </trkpt>
      <trkpt lat="45.68587" lon="6.60754">
        <ele>1729.848</ele>
        <time>2012-01-26T11:03:23Z</time>
      </trkpt>
      <trkpt lat="45.68587" lon="6.60754">
        <ele>1730.086</ele>
        <time>2012-01-26T11:03:33Z</time>
      </trkpt>
      <trkpt lat="45.68586" lon="6.60753">
        <ele>1730.146</ele>
        <time>2012-01-26T11:03:43Z</time>
      </trkpt>
      <trkpt lat="45.68586" lon="6.60752">
        <ele>1730.22</ele>
        <time>2012-01-26T11:03:53Z</time>
      </trkpt>
      <trkpt lat="45.68586" lon="6.6075">
        <ele>1730.286</ele>
        <time>2012-01-26T11:04:03Z</time>
      </trkpt>
      <trkpt lat="45.68584" lon="6.60747">
        <ele>1729.948</ele>
        <time>2012-01-26T11:04:13Z</time>
      </trkpt>
      <trkpt lat="45.68584" lon="6.60747">
        <ele>1730.49</ele>
        <time>2012-01-26T11:04:23Z</time>
      </trkpt>
      <trkpt lat="45.68584" lon="6.60746">
        <ele>1730.152</ele>
        <time>2012-01-26T11:04:33Z</time>
      </trkpt>
      <trkpt lat="45.68583" lon="6.60746">
        <ele>1729.874</ele>
        <time>2012-01-26T11:04:43Z</time>
      </trkpt>
      <trkpt lat="45.68583" lon="6.60748">
        <ele>1730.051</ele>
        <time>2012-01-26T11:04:53Z</time>
      </trkpt>
      <trkpt lat="45.68584" lon="6.60749">
        <ele>1730.183</ele>
        <time>2012-01-26T11:05:03Z</time>
      </trkpt>
      <trkpt lat="45.68584" lon="6.60752">
        <ele>1730.057</ele>
        <time>2012-01-26T11:05:13Z</time>
      </trkpt>
      <trkpt lat="45.68584" lon="6.60754">
        <ele>1729.964</ele>
        <time>2012-01-26T11:05:23Z</time>
      </trkpt>
      <trkpt lat="45.68583" lon="6.60756">
        <ele>1730.461</ele>
        <time>2012-01-26T11:05:33Z</time>
      </trkpt>
      <trkpt lat="45.68582" lon="6.60758">
        <ele>1730.273</ele>
        <time>2012-01-26T11:05:43Z</time>
      </trkpt>
      <trkpt lat="45.6858" lon="6.60759">
        <ele>1730.263</ele>
        <time>2012-01-26T11:05:53Z</time>
      </trkpt>
      <trkpt lat="45.6858" lon="6.6076">
        <ele>1730.268</ele>
        <time>2012-01-26T11:06:03Z</time>
      </trkpt>
      <trkpt lat="45.6858" lon="6.60761">
        <ele>1730.263</ele>
        <time>2012-01-26T11:06:13Z</time>
      </trkpt>
      <trkpt lat="45.68582" lon="6.60761">
        <ele>1730.263</ele>
        <time>2012-01-26T11:06:23Z</time>
      </trkpt>
      <trkpt lat="45.68583" lon="6.6076">
        <ele>1730.535</ele>
        <time>2012-01-26T11:06:33Z</time>
      </trkpt>
      <trkpt lat="45.68584" lon="6.6076">
        <ele>1730.534</ele>
        <time>2012-01-26T11:06:43Z</time>
      </trkpt>
      <trkpt lat="45.68584" lon="6.6076">
        <ele>1730.735</ele>
        <time>2012-01-26T11:06:53Z</time>
      </trkpt>
      <trkpt lat="45.68584" lon="6.6076">
        <ele>1730.861</ele>
        <time>2012-01-26T11:07:03Z</time>
      </trkpt>
      <trkpt lat="45.68585" lon="6.60759">
        <ele>1730.663</ele>
        <time>2012-01-26T11:07:13Z</time>
      </trkpt>
      <trkpt lat="45.68586" lon="6.60759">
        <ele>1730.708</ele>
        <time>2012-01-26T11:07:23Z</time>
      </trkpt>
      <trkpt lat="45.68588" lon="6.60758">
        <ele>1730.423</ele>
        <time>2012-01-26T11:07:33Z</time>
      </trkpt>
      <trkpt lat="45.6859" lon="6.60754">
        <ele>1731.164</ele>
        <time>2012-01-26T11:07:43Z</time>
      </trkpt>
      <trkpt lat="45.68591" lon="6.60752">
        <ele>1731.115</ele>
        <time>2012-01-26T11:07:53Z</time>
      </trkpt>
      <trkpt lat="45.68592" lon="6.6075">
        <ele>1730.816</ele>
        <time>2012-01-26T11:08:03Z</time>
      </trkpt>
      <trkpt lat="45.68593" lon="6.60748">
        <ele>1731.117</ele>
        <time>2012-01-26T11:08:13Z</time>
      </trkpt>
      <trkpt lat="45.68594" lon="6.60746">
        <ele>1730.866</ele>
        <time>2012-01-26T11:08:23Z</time>
      </trkpt>
      <trkpt lat="45.68595" lon="6.60743">
        <ele>1731.111</ele>
        <time>2012-01-26T11:08:33Z</time>
      </trkpt>
      <trkpt lat="45.68595" lon="6.60741">
        <ele>1731.009</ele>
        <time>2012-01-26T11:08:43Z</time>
      </trkpt>
      <trkpt lat="45.68595" lon="6.60743">
        <ele>1731.554</ele>
        <time>2012-01-26T11:08:53Z</time>
      </trkpt>
      <trkpt lat="45.68595" lon="6.60743">
        <ele>1730.76</ele>
        <time>2012-01-26T11:09:03Z</time>
      </trkpt>
      <trkpt lat="45.68594" lon="6.60742">
        <ele>1730.344</ele>
        <time>2012-01-26T11:09:13Z</time>
      </trkpt>
      <trkpt lat="45.68594" lon="6.60743">
        <ele>1730.383</ele>
        <time>2012-01-26T11:09:23Z</time>
      </trkpt>
      <trkpt lat="45.68591" lon="6.60744">
        <ele>1730.706</ele>
        <time>2012-01-26T11:09:33Z</time>
      </trkpt>
      <trkpt lat="45.68589" lon="6.60744">
        <ele>1730.492</ele>
        <time>2012-01-26T11:09:43Z</time>
      </trkpt>
      <trkpt lat="45.68589" lon="6.60745">
        <ele>1730.764</ele>
        <time>2012-01-26T11:09:53Z</time>
      </trkpt>
      <trkpt lat="45.68589" lon="6.60745">
        <ele>1730.298</ele>
        <time>2012-01-26T11:10:03Z</time>
      </trkpt>
      <trkpt lat="45.68589" lon="6.60746">
        <ele>1730.562</ele>
        <time>2012-01-26T11:10:13Z</time>
      </trkpt>
      <trkpt lat="45.68588" lon="6.60747">
        <ele>1730.289</ele>
        <time>2012-01-26T11:10:23Z</time>
      </trkpt>
      <trkpt lat="45.68587" lon="6.6075">
        <ele>1730.551</ele>
        <time>2012-01-26T11:10:33Z</time>
      </trkpt>
      <trkpt lat="45.68586" lon="6.60754">
        <ele>1730.575</ele>
        <time>2012-01-26T11:10:43Z</time>
      </trkpt>
      <trkpt lat="45.68582" lon="6.60762">
        <ele>1731.032</ele>
        <time>2012-01-26T11:10:53Z</time>
      </trkpt>
      <trkpt lat="45.68582" lon="6.60761">
        <ele>1730.9</ele>
        <time>2012-01-26T11:11:03Z</time>
      </trkpt>
      <trkpt lat="45.68581" lon="6.60762">
        <ele>1730.522</ele>
        <time>2012-01-26T11:11:13Z</time>
      </trkpt>
      <trkpt lat="45.6858" lon="6.60764">
        <ele>1731.043</ele>
        <time>2012-01-26T11:11:23Z</time>
      </trkpt>
      <trkpt lat="45.68579" lon="6.60766">
        <ele>1731.109</ele>
        <time>2012-01-26T11:11:33Z</time>
      </trkpt>
      <trkpt lat="45.68578" lon="6.60767">
        <ele>1731.014</ele>
        <time>2012-01-26T11:11:43Z</time>
      </trkpt>
      <trkpt lat="45.68578" lon="6.60768">
        <ele>1730.747</ele>
        <time>2012-01-26T11:11:53Z</time>
      </trkpt>
      <trkpt lat="45.68579" lon="6.60769">
        <ele>1731.048</ele>
        <time>2012-01-26T11:12:03Z</time>
      </trkpt>
      <trkpt lat="45.68578" lon="6.60771">
        <ele>1730.742</ele>
        <time>2012-01-26T11:12:13Z</time>
      </trkpt>
      <trkpt lat="45.68577" lon="6.60771">
        <ele>1730.718</ele>
        <time>2012-01-26T11:12:23Z</time>
      </trkpt>
      <trkpt lat="45.68578" lon="6.60771">
        <ele>1730.892</ele>
        <time>2012-01-26T11:12:33Z</time>
      </trkpt>
      <trkpt lat="45.68578" lon="6.60771">
        <ele>1730.929</ele>
        <time>2012-01-26T11:12:43Z</time>
      </trkpt>
      <trkpt lat="45.68578" lon="6.60771">
        <ele>1730.438</ele>
        <time>2012-01-26T11:12:53Z</time>
      </trkpt>
      <trkpt lat="45.6858" lon="6.6077">
        <ele>1730.237</ele>
        <time>2012-01-26T11:13:03Z</time>
      </trkpt>
      <trkpt lat="45.68582" lon="6.6077">
        <ele>1730.662</ele>
        <time>2012-01-26T11:13:13Z</time>
      </trkpt>
      <trkpt lat="45.68583" lon="6.6077">
        <ele>1730.736</ele>
        <time>2012-01-26T11:13:23Z</time>
      </trkpt>
      <trkpt lat="45.68583" lon="6.6077">
        <ele>1730.662</ele>
        <time>2012-01-26T11:13:33Z</time>
      </trkpt>
      <trkpt lat="45.68583" lon="6.6077">
        <ele>1730.472</ele>
        <time>2012-01-26T11:13:43Z</time>
      </trkpt>
      <trkpt lat="45.68583" lon="6.60769">
        <ele>1730.565</ele>
        <time>2012-01-26T11:13:53Z</time>
      </trkpt>
      <trkpt lat="45.68583" lon="6.60769">
        <ele>1730.676</ele>
        <time>2012-01-26T11:14:03Z</time>
      </trkpt>
      <trkpt lat="45.68582" lon="6.60768">
        <ele>1730.972</ele>
        <time>2012-01-26T11:14:13Z</time>
      </trkpt>
      <trkpt lat="45.68582" lon="6.60766">
        <ele>1731.056</ele>
        <time>2012-01-26T11:14:23Z</time>
      </trkpt>
      <trkpt lat="45.68583" lon="6.60765">
        <ele>1730.784</ele>
        <time>2012-01-26T11:14:33Z</time>
      </trkpt>
      <trkpt lat="45.68584" lon="6.60763">
        <ele>1731.088</ele>
        <time>2012-01-26T11:14:43Z</time>
      </trkpt>
      <trkpt lat="45.68585" lon="6.60761">
        <ele>1730.929</ele>
        <time>2012-01-26T11:14:53Z</time>
      </trkpt>
      <trkpt lat="45.68587" lon="6.60759">
        <ele>1731.152</ele>
        <time>2012-01-26T11:15:03Z</time>
      </trkpt>
      <trkpt lat="45.68588" lon="6.60757">
        <ele>1730.637</ele>
        <time>2012-01-26T11:15:13Z</time>
      </trkpt>
      <trkpt lat="45.6859" lon="6.60755">
        <ele>1730.536</ele>
        <time>2012-01-26T11:15:23Z</time>
      </trkpt>
      <trkpt lat="45.68591" lon="6.60753">
        <ele>1730.772</ele>
        <time>2012-01-26T11:15:33Z</time>
      </trkpt>
      <trkpt lat="45.68591" lon="6.60751">
        <ele>1730.739</ele>
        <time>2012-01-26T11:15:43Z</time>
      </trkpt>
      <trkpt lat="45.68591" lon="6.6075">
        <ele>1730.795</ele>
        <time>2012-01-26T11:15:53Z</time>
      </trkpt>
      <trkpt lat="45.68591" lon="6.60749">
        <ele>1730.723</ele>
        <time>2012-01-26T11:16:03Z</time>
      </trkpt>
      <trkpt lat="45.6859" lon="6.6075">
        <ele>1730.718</ele>
        <time>2012-01-26T11:16:13Z</time>
      </trkpt>
      <trkpt lat="45.68589" lon="6.6075">
        <ele>1730.612</ele>
        <time>2012-01-26T11:16:23Z</time>
      </trkpt>
      <trkpt lat="45.68589" lon="6.60749">
        <ele>1730.44</ele>
        <time>2012-01-26T11:16:33Z</time>
      </trkpt>
      <trkpt lat="45.68588" lon="6.60749">
        <ele>1730.945</ele>
        <time>2012-01-26T11:16:43Z</time>
      </trkpt>
      <trkpt lat="45.68587" lon="6.6075">
        <ele>1730.617</ele>
        <time>2012-01-26T11:16:53Z</time>
      </trkpt>
      <trkpt lat="45.68587" lon="6.60752">
        <ele>1730.524</ele>
        <time>2012-01-26T11:17:03Z</time>
      </trkpt>
      <trkpt lat="45.68586" lon="6.60754">
        <ele>1730.681</ele>
        <time>2012-01-26T11:17:13Z</time>
      </trkpt>
      <trkpt lat="45.68583" lon="6.60756">
        <ele>1730.625</ele>
        <time>2012-01-26T11:17:23Z</time>
      </trkpt>
      <trkpt lat="45.6858" lon="6.60761">
        <ele>1730.667</ele>
        <time>2012-01-26T11:17:33Z</time>
      </trkpt>
      <trkpt lat="45.6858" lon="6.60765">
        <ele>1730.6</ele>
        <time>2012-01-26T11:17:43Z</time>
      </trkpt>
      <trkpt lat="45.6858" lon="6.60766">
        <ele>1731.328</ele>
        <time>2012-01-26T11:17:53Z</time>
      </trkpt>
      <trkpt lat="45.6858" lon="6.60769">
        <ele>1731.036</ele>
        <time>2012-01-26T11:18:03Z</time>
      </trkpt>
      <trkpt lat="45.68579" lon="6.60771">
        <ele>1730.823</ele>
        <time>2012-01-26T11:18:13Z</time>
      </trkpt>
      <trkpt lat="45.68579" lon="6.60773">
        <ele>1731.055</ele>
        <time>2012-01-26T11:18:23Z</time>
      </trkpt>
      <trkpt lat="45.68577" lon="6.60778">
        <ele>1731.246</ele>
        <time>2012-01-26T11:18:33Z</time>
      </trkpt>
      <trkpt lat="45.68577" lon="6.6078">
        <ele>1731.202</ele>
        <time>2012-01-26T11:18:43Z</time>
      </trkpt>
      <trkpt lat="45.68576" lon="6.60783">
        <ele>1730.956</ele>
        <time>2012-01-26T11:18:53Z</time>
      </trkpt>
      <trkpt lat="45.68575" lon="6.60784">
        <ele>1731.155</ele>
        <time>2012-01-26T11:19:03Z</time>
      </trkpt>
      <trkpt lat="45.68575" lon="6.60785">
        <ele>1730.999</ele>
        <time>2012-01-26T11:19:13Z</time>
      </trkpt>
      <trkpt lat="45.68576" lon="6.60785">
        <ele>1731.107</ele>
        <time>2012-01-26T11:19:23Z</time>
      </trkpt>
      <trkpt lat="45.68579" lon="6.60786">
        <ele>1731.403</ele>
        <time>2012-01-26T11:19:33Z</time>
      </trkpt>
      <trkpt lat="45.68579" lon="6.60787">
        <ele>1731.07</ele>
        <time>2012-01-26T11:19:43Z</time>
      </trkpt>
      <trkpt lat="45.68578" lon="6.60789">
        <ele>1730.919</ele>
        <time>2012-01-26T11:19:53Z</time>
      </trkpt>
      <trkpt lat="45.68577" lon="6.60789">
        <ele>1731.329</ele>
        <time>2012-01-26T11:20:03Z</time>
      </trkpt>
      <trkpt lat="45.68579" lon="6.60785">
        <ele>1731.281</ele>
        <time>2012-01-26T11:20:13Z</time>
      </trkpt>
      <trkpt lat="45.6858" lon="6.60785">
        <ele>1731.271</ele>
        <time>2012-01-26T11:20:23Z</time>
      </trkpt>
      <trkpt lat="45.68581" lon="6.60786">
        <ele>1731.318</ele>
        <time>2012-01-26T11:20:33Z</time>
      </trkpt>
      <trkpt lat="45.68582" lon="6.60787">
        <ele>1731.226</ele>
        <time>2012-01-26T11:20:43Z</time>
      </trkpt>
      <trkpt lat="45.68582" lon="6.60787">
        <ele>1731.295</ele>
        <time>2012-01-26T11:20:53Z</time>
      </trkpt>
      <trkpt lat="45.68582" lon="6.60786">
        <ele>1731.308</ele>
        <time>2012-01-26T11:21:03Z</time>
      </trkpt>
      <trkpt lat="45.68582" lon="6.60786">
        <ele>1731.197</ele>
        <time>2012-01-26T11:21:13Z</time>
      </trkpt>
      <trkpt lat="45.68581" lon="6.60786">
        <ele>1731.535</ele>
        <time>2012-01-26T11:21:23Z</time>
      </trkpt>
      <trkpt lat="45.68581" lon="6.60785">
        <ele>1731.16</ele>
        <time>2012-01-26T11:21:33Z</time>
      </trkpt>
      <trkpt lat="45.68581" lon="6.60784">
        <ele>1731.577</ele>
        <time>2012-01-26T11:21:43Z</time>
      </trkpt>
      <trkpt lat="45.68581" lon="6.60783">
        <ele>1731.453</ele>
        <time>2012-01-26T11:21:53Z</time>
      </trkpt>
      <trkpt lat="45.68582" lon="6.60781">
        <ele>1731.477</ele>
        <time>2012-01-26T11:22:03Z</time>
      </trkpt>
      <trkpt lat="45.68583" lon="6.6078">
        <ele>1731.408</ele>
        <time>2012-01-26T11:22:13Z</time>
      </trkpt>
      <trkpt lat="45.68584" lon="6.60779">
        <ele>1731.318</ele>
        <time>2012-01-26T11:22:23Z</time>
      </trkpt>
      <trkpt lat="45.68586" lon="6.60777">
        <ele>1731.709</ele>
        <time>2012-01-26T11:22:33Z</time>
      </trkpt>
      <trkpt lat="45.68587" lon="6.60776">
        <ele>1731.178</ele>
        <time>2012-01-26T11:22:43Z</time>
      </trkpt>
      <trkpt lat="45.68588" lon="6.60775">
        <ele>1731.59</ele>
        <time>2012-01-26T11:22:53Z</time>
      </trkpt>
      <trkpt lat="45.68589" lon="6.60773">
        <ele>1731.305</ele>
        <time>2012-01-26T11:23:03Z</time>
      </trkpt>
      <trkpt lat="45.68589" lon="6.60771">
        <ele>1731.53</ele>
        <time>2012-01-26T11:23:13Z</time>
      </trkpt>
      <trkpt lat="45.68591" lon="6.60762">
        <ele>1731.495</ele>
        <time>2012-01-26T11:23:23Z</time>
      </trkpt>
      <trkpt lat="45.6859" lon="6.60759">
        <ele>1731.746</ele>
        <time>2012-01-26T11:23:33Z</time>
      </trkpt>
      <trkpt lat="45.68589" lon="6.60755">
        <ele>1731.572</ele>
        <time>2012-01-26T11:23:43Z</time>
      </trkpt>
      <trkpt lat="45.68589" lon="6.60753">
        <ele>1731.62</ele>
        <time>2012-01-26T11:23:53Z</time>
      </trkpt>
      <trkpt lat="45.6859" lon="6.60752">
        <ele>1731.046</ele>
        <time>2012-01-26T11:24:03Z</time>
      </trkpt>
      <trkpt lat="45.68591" lon="6.60751">
        <ele>1730.751</ele>
        <time>2012-01-26T11:24:13Z</time>
      </trkpt>
      <trkpt lat="45.68592" lon="6.60749">
        <ele>1731.517</ele>
        <time>2012-01-26T11:24:23Z</time>
      </trkpt>
      <trkpt lat="45.68592" lon="6.60748">
        <ele>1731.241</ele>
        <time>2012-01-26T11:24:33Z</time>
      </trkpt>
      <trkpt lat="45.68591" lon="6.60748">
        <ele>1731.343</ele>
        <time>2012-01-26T11:24:43Z</time>
      </trkpt>
      <trkpt lat="45.68591" lon="6.60747">
        <ele>1731.715</ele>
        <time>2012-01-26T11:24:53Z</time>
      </trkpt>
      <trkpt lat="45.68592" lon="6.60746">
        <ele>1730.843</ele>
        <time>2012-01-26T11:25:03Z</time>
      </trkpt>
      <trkpt lat="45.68591" lon="6.60746">
        <ele>1731.097</ele>
        <time>2012-01-26T11:25:13Z</time>
      </trkpt>
      <trkpt lat="45.68591" lon="6.60745">
        <ele>1731.223</ele>
        <time>2012-01-26T11:25:23Z</time>
      </trkpt>
      <trkpt lat="45.68591" lon="6.60745">
        <ele>1731.478</ele>
        <time>2012-01-26T11:25:33Z</time>
      </trkpt>
      <trkpt lat="45.68591" lon="6.60745">
        <ele>1730.933</ele>
        <time>2012-01-26T11:25:43Z</time>
      </trkpt>
      <trkpt lat="45.6859" lon="6.60745">
        <ele>1730.77</ele>
        <time>2012-01-26T11:25:53Z</time>
      </trkpt>
      <trkpt lat="45.68588" lon="6.60745">
        <ele>1731.351</ele>
        <time>2012-01-26T11:26:03Z</time>
      </trkpt>
      <trkpt lat="45.68587" lon="6.60745">
        <ele>1731.187</ele>
        <time>2012-01-26T11:26:13Z</time>
      </trkpt>
      <trkpt lat="45.68587" lon="6.60745">
        <ele>1731.113</ele>
        <time>2012-01-26T11:26:23Z</time>
      </trkpt>
      <trkpt lat="45.68587" lon="6.60745">
        <ele>1730.944</ele>
        <time>2012-01-26T11:26:33Z</time>
      </trkpt>
      <trkpt lat="45.68587" lon="6.60745">
        <ele>1731.597</ele>
        <time>2012-01-26T11:26:43Z</time>
      </trkpt>
      <trkpt lat="45.68588" lon="6.60745">
        <ele>1731.198</ele>
        <time>2012-01-26T11:26:53Z</time>
      </trkpt>
      <trkpt lat="45.68588" lon="6.60745">
        <ele>1731.108</ele>
        <time>2012-01-26T11:27:03Z</time>
      </trkpt>
      <trkpt lat="45.68588" lon="6.60746">
        <ele>1731.137</ele>
        <time>2012-01-26T11:27:13Z</time>
      </trkpt>
      <trkpt lat="45.68586" lon="6.60748">
        <ele>1731.507</ele>
        <time>2012-01-26T11:27:23Z</time>
      </trkpt>
      <trkpt lat="45.68585" lon="6.6075">
        <ele>1730.593</ele>
        <time>2012-01-26T11:27:33Z</time>
      </trkpt>
      <trkpt lat="45.68583" lon="6.60752">
        <ele>1731.877</ele>
        <time>2012-01-26T11:27:43Z</time>
      </trkpt>
      <trkpt lat="45.6858" lon="6.60757">
        <ele>1730.817</ele>
        <time>2012-01-26T11:27:53Z</time>
      </trkpt>
      <trkpt lat="45.68578" lon="6.60762">
        <ele>1730.949</ele>
        <time>2012-01-26T11:28:03Z</time>
      </trkpt>
      <trkpt lat="45.68579" lon="6.60761">
        <ele>1731.821</ele>
        <time>2012-01-26T11:28:13Z</time>
      </trkpt>
      <trkpt lat="45.68579" lon="6.60764">
        <ele>1732.014</ele>
        <time>2012-01-26T11:28:23Z</time>
      </trkpt>
      <trkpt lat="45.6858" lon="6.60765">
        <ele>1731.738</ele>
        <time>2012-01-26T11:28:33Z</time>
      </trkpt>
      <trkpt lat="45.6858" lon="6.60766">
        <ele>1731.858</ele>
        <time>2012-01-26T11:28:43Z</time>
      </trkpt>
      <trkpt lat="45.68579" lon="6.60768">
        <ele>1732.641</ele>
        <time>2012-01-26T11:28:53Z</time>
      </trkpt>
      <trkpt lat="45.68579" lon="6.60768">
        <ele>1732.503</ele>
        <time>2012-01-26T11:29:03Z</time>
      </trkpt>
      <trkpt lat="45.68579" lon="6.60768">
        <ele>1731.469</ele>
        <time>2012-01-26T11:29:13Z</time>
      </trkpt>
      <trkpt lat="45.68579" lon="6.60767">
        <ele>1732.636</ele>
        <time>2012-01-26T11:29:23Z</time>
      </trkpt>
      <trkpt lat="45.6858" lon="6.60767">
        <ele>1732.338</ele>
        <time>2012-01-26T11:29:33Z</time>
      </trkpt>
      <trkpt lat="45.6858" lon="6.60767">
        <ele>1732.239</ele>
        <time>2012-01-26T11:29:43Z</time>
      </trkpt>
      <trkpt lat="45.6858" lon="6.60767">
        <ele>1732.181</ele>
        <time>2012-01-26T11:29:53Z</time>
      </trkpt>
      <trkpt lat="45.6858" lon="6.60767">
        <ele>1732.371</ele>
        <time>2012-01-26T11:30:03Z</time>
      </trkpt>
      <trkpt lat="45.6858" lon="6.60767">
        <ele>1732.677</ele>
        <time>2012-01-26T11:30:13Z</time>
      </trkpt>
      <trkpt lat="45.6858" lon="6.60767">
        <ele>1732.521</ele>
        <time>2012-01-26T11:30:23Z</time>
      </trkpt>
      <trkpt lat="45.6858" lon="6.60767">
        <ele>1733.071</ele>
        <time>2012-01-26T11:30:33Z</time>
      </trkpt>
      <trkpt lat="45.6858" lon="6.60767">
        <ele>1732.635</ele>
        <time>2012-01-26T11:30:43Z</time>
      </trkpt>
      <trkpt lat="45.6858" lon="6.60767">
        <ele>1732.717</ele>
        <time>2012-01-26T11:30:53Z</time>
      </trkpt>
      <trkpt lat="45.6858" lon="6.60766">
        <ele>1732.669</ele>
        <time>2012-01-26T11:31:03Z</time>
      </trkpt>
      <trkpt lat="45.6858" lon="6.60766">
        <ele>1732.672</ele>
        <time>2012-01-26T11:31:13Z</time>
      </trkpt>
      <trkpt lat="45.6858" lon="6.60766">
        <ele>1732.471</ele>
        <time>2012-01-26T11:31:23Z</time>
      </trkpt>
      <trkpt lat="45.6858" lon="6.60766">
        <ele>1732.671</ele>
        <time>2012-01-26T11:31:33Z</time>
      </trkpt>
      <trkpt lat="45.68583" lon="6.6075">
        <ele>1732.652</ele>
        <time>2012-01-26T11:31:43Z</time>
      </trkpt>
      <trkpt lat="45.68586" lon="6.60744">
        <ele>1732.962</ele>
        <time>2012-01-26T11:31:53Z</time>
      </trkpt>
      <trkpt lat="45.68591" lon="6.6074">
        <ele>1732.357</ele>
        <time>2012-01-26T11:32:03Z</time>
      </trkpt>
      <trkpt lat="45.68596" lon="6.6074">
        <ele>1732.6</ele>
        <time>2012-01-26T11:32:13Z</time>
      </trkpt>
      <trkpt lat="45.686" lon="6.60738">
        <ele>1732.678</ele>
        <time>2012-01-26T11:32:23Z</time>
      </trkpt>
      <trkpt lat="45.68598" lon="6.60742">
        <ele>1732.922</ele>
        <time>2012-01-26T11:32:33Z</time>
      </trkpt>
      <trkpt lat="45.68593" lon="6.60746">
        <ele>1731.808</ele>
        <time>2012-01-26T11:32:43Z</time>
      </trkpt>
      <trkpt lat="45.68586" lon="6.60751">
        <ele>1732.505</ele>
        <time>2012-01-26T11:32:53Z</time>
      </trkpt>
      <trkpt lat="45.68585" lon="6.60754">
        <ele>1733.43</ele>
        <time>2012-01-26T11:33:03Z</time>
      </trkpt>
      <trkpt lat="45.68585" lon="6.60752">
        <ele>1733.093</ele>
        <time>2012-01-26T11:33:13Z</time>
      </trkpt>
      <trkpt lat="45.68585" lon="6.60752">
        <ele>1733.529</ele>
        <time>2012-01-26T11:33:23Z</time>
      </trkpt>
      <trkpt lat="45.68585" lon="6.60752">
        <ele>1733.02</ele>
        <time>2012-01-26T11:33:33Z</time>
      </trkpt>
      <trkpt lat="45.68585" lon="6.60752">
        <ele>1733.422</ele>
        <time>2012-01-26T11:33:43Z</time>
      </trkpt>
      <trkpt lat="45.68585" lon="6.60752">
        <ele>1733.344</ele>
        <time>2012-01-26T11:33:53Z</time>
      </trkpt>
      <trkpt lat="45.68585" lon="6.60752">
        <ele>1732.758</ele>
        <time>2012-01-26T11:34:03Z</time>
      </trkpt>
      <trkpt lat="45.68585" lon="6.60751">
        <ele>1733.352</ele>
        <time>2012-01-26T11:34:13Z</time>
      </trkpt>
      <trkpt lat="45.68585" lon="6.60751">
        <ele>1733.923</ele>
        <time>2012-01-26T11:34:23Z</time>
      </trkpt>
      <trkpt lat="45.68585" lon="6.60751">
        <ele>1733.217</ele>
        <time>2012-01-26T11:34:33Z</time>
      </trkpt>
      <trkpt lat="45.68585" lon="6.60752">
        <ele>1733.513</ele>
        <time>2012-01-26T11:34:43Z</time>
      </trkpt>
      <trkpt lat="45.68585" lon="6.60752">
        <ele>1733.554</ele>
        <time>2012-01-26T11:34:53Z</time>
      </trkpt>
      <trkpt lat="45.68585" lon="6.60752">
        <ele>1733.57</ele>
        <time>2012-01-26T11:35:03Z</time>
      </trkpt>
      <trkpt lat="45.68585" lon="6.60752">
        <ele>1733.102</ele>
        <time>2012-01-26T11:35:13Z</time>
      </trkpt>
      <trkpt lat="45.68585" lon="6.60752">
        <ele>1733.659</ele>
        <time>2012-01-26T11:35:23Z</time>
      </trkpt>
      <trkpt lat="45.68585" lon="6.60752">
        <ele>1733.336</ele>
        <time>2012-01-26T11:35:33Z</time>
      </trkpt>
      <trkpt lat="45.68585" lon="6.60752">
        <ele>1733.595</ele>
        <time>2012-01-26T11:35:43Z</time>
      </trkpt>
      <trkpt lat="45.68585" lon="6.60752">
        <ele>1733.882</ele>
        <time>2012-01-26T11:35:53Z</time>
      </trkpt>
      <trkpt lat="45.68585" lon="6.60752">
        <ele>1733.575</ele>
        <time>2012-01-26T11:36:03Z</time>
      </trkpt>
      <trkpt lat="45.68585" lon="6.60752">
        <ele>1733.886</ele>
        <time>2012-01-26T11:36:13Z</time>
      </trkpt>
      <trkpt lat="45.68585" lon="6.60753">
        <ele>1733.599</ele>
        <time>2012-01-26T11:36:23Z</time>
      </trkpt>
      <trkpt lat="45.68585" lon="6.60753">
        <ele>1733.913</ele>
        <time>2012-01-26T11:36:33Z</time>
      </trkpt>
      <trkpt lat="45.68585" lon="6.60754">
        <ele>1733.172</ele>
        <time>2012-01-26T11:36:43Z</time>
      </trkpt>
      <trkpt lat="45.68585" lon="6.60754">
        <ele>1733.35</ele>
        <time>2012-01-26T11:36:53Z</time>
      </trkpt>
      <trkpt lat="45.68585" lon="6.60754">
        <ele>1733.319</ele>
        <time>2012-01-26T11:37:03Z</time>
      </trkpt>
      <trkpt lat="45.68585" lon="6.60754">
        <ele>1733.221</ele>
        <time>2012-01-26T11:37:13Z</time>
      </trkpt>
      <trkpt lat="45.68585" lon="6.60754">
        <ele>1733.363</ele>
        <time>2012-01-26T11:37:23Z</time>
      </trkpt>
      <trkpt lat="45.68585" lon="6.60754">
        <ele>1733.406</ele>
        <time>2012-01-26T11:37:33Z</time>
      </trkpt>
      <trkpt lat="45.68585" lon="6.60754">
        <ele>1733.361</ele>
        <time>2012-01-26T11:37:43Z</time>
      </trkpt>
      <trkpt lat="45.68585" lon="6.60754">
        <ele>1733.328</ele>
        <time>2012-01-26T11:37:53Z</time>
      </trkpt>
      <trkpt lat="45.68585" lon="6.60754">
        <ele>1733.144</ele>
        <time>2012-01-26T11:38:03Z</time>
      </trkpt>
      <trkpt lat="45.68585" lon="6.60754">
        <ele>1733.184</ele>
        <time>2012-01-26T11:38:13Z</time>
      </trkpt>
      <trkpt lat="45.68585" lon="6.60754">
        <ele>1733.316</ele>
        <time>2012-01-26T11:38:23Z</time>
      </trkpt>
      <trkpt lat="45.68585" lon="6.60754">
        <ele>1733.217</ele>
        <time>2012-01-26T11:38:33Z</time>
      </trkpt>
      <trkpt lat="45.68585" lon="6.60754">
        <ele>1733.074</ele>
        <time>2012-01-26T11:38:43Z</time>
      </trkpt>
      <trkpt lat="45.68585" lon="6.60754">
        <ele>1733.568</ele>
        <time>2012-01-26T11:38:53Z</time>
      </trkpt>
      <trkpt lat="45.68585" lon="6.60754">
        <ele>1733.161</ele>
        <time>2012-01-26T11:39:03Z</time>
      </trkpt>
      <trkpt lat="45.68585" lon="6.60754">
        <ele>1733.105</ele>
        <time>2012-01-26T11:39:13Z</time>
      </trkpt>
      <trkpt lat="45.68585" lon="6.60754">
        <ele>1733.68</ele>
        <time>2012-01-26T11:39:23Z</time>
      </trkpt>
      <trkpt lat="45.68585" lon="6.60754">
        <ele>1733.406</ele>
        <time>2012-01-26T11:39:33Z</time>
      </trkpt>
      <trkpt lat="45.68585" lon="6.60754">
        <ele>1733.398</ele>
        <time>2012-01-26T11:39:43Z</time>
      </trkpt>
      <trkpt lat="45.68585" lon="6.60754">
        <ele>1732.997</ele>
        <time>2012-01-26T11:39:53Z</time>
      </trkpt>
      <trkpt lat="45.68585" lon="6.60754">
        <ele>1733.262</ele>
        <time>2012-01-26T11:40:03Z</time>
      </trkpt>
      <trkpt lat="45.68585" lon="6.60754">
        <ele>1733.227</ele>
        <time>2012-01-26T11:40:13Z</time>
      </trkpt>
      <trkpt lat="45.68585" lon="6.60755">
        <ele>1733.098</ele>
        <time>2012-01-26T11:40:23Z</time>
      </trkpt>
      <trkpt lat="45.68585" lon="6.60755">
        <ele>1733.183</ele>
        <time>2012-01-26T11:40:33Z</time>
      </trkpt>
      <trkpt lat="45.68583" lon="6.60755">
        <ele>1733.45</ele>
        <time>2012-01-26T11:40:43Z</time>
      </trkpt>
      <trkpt lat="45.68583" lon="6.60755">
        <ele>1733.323</ele>
        <time>2012-01-26T11:40:53Z</time>
      </trkpt>
      <trkpt lat="45.68583" lon="6.60755">
        <ele>1733.461</ele>
        <time>2012-01-26T11:41:03Z</time>
      </trkpt>
      <trkpt lat="45.68581" lon="6.60755">
        <ele>1732.84</ele>
        <time>2012-01-26T11:41:13Z</time>
      </trkpt>
      <trkpt lat="45.68579" lon="6.60756">
        <ele>1733.6</ele>
        <time>2012-01-26T11:41:23Z</time>
      </trkpt>
      <trkpt lat="45.68575" lon="6.60758">
        <ele>1733.971</ele>
        <time>2012-01-26T11:41:33Z</time>
      </trkpt>
      <trkpt lat="45.6857" lon="6.6076">
        <ele>1735.029</ele>
        <time>2012-01-26T11:41:43Z</time>
      </trkpt>
      <trkpt lat="45.68569" lon="6.60761">
        <ele>1735.081</ele>
        <time>2012-01-26T11:41:53Z</time>
      </trkpt>
      <trkpt lat="45.6857" lon="6.6076">
        <ele>1734.826</ele>
        <time>2012-01-26T11:42:03Z</time>
      </trkpt>
      <trkpt lat="45.6857" lon="6.6076">
        <ele>1735.359</ele>
        <time>2012-01-26T11:42:13Z</time>
      </trkpt>
      <trkpt lat="45.6857" lon="6.6076">
        <ele>1734.919</ele>
        <time>2012-01-26T11:42:23Z</time>
      </trkpt>
      <trkpt lat="45.6857" lon="6.6076">
        <ele>1734.992</ele>
        <time>2012-01-26T11:42:33Z</time>
      </trkpt>
      <trkpt lat="45.6857" lon="6.6076">
        <ele>1734.758</ele>
        <time>2012-01-26T11:42:43Z</time>
      </trkpt>
      <trkpt lat="45.6857" lon="6.6076">
        <ele>1735.029</ele>
        <time>2012-01-26T11:42:53Z</time>
      </trkpt>
      <trkpt lat="45.6857" lon="6.6076">
        <ele>1735.653</ele>
        <time>2012-01-26T11:43:03Z</time>
      </trkpt>
      <trkpt lat="45.6857" lon="6.6076">
        <ele>1734.805</ele>
        <time>2012-01-26T11:43:13Z</time>
      </trkpt>
      <trkpt lat="45.6857" lon="6.6076">
        <ele>1734.97</ele>
        <time>2012-01-26T11:43:23Z</time>
      </trkpt>
      <trkpt lat="45.6857" lon="6.6076">
        <ele>1735.225</ele>
        <time>2012-01-26T11:43:33Z</time>
      </trkpt>
      <trkpt lat="45.6857" lon="6.6076">
        <ele>1735.331</ele>
        <time>2012-01-26T11:43:43Z</time>
      </trkpt>
      <trkpt lat="45.6857" lon="6.60759">
        <ele>1734.671</ele>
        <time>2012-01-26T11:43:53Z</time>
      </trkpt>
      <trkpt lat="45.68569" lon="6.6076">
        <ele>1735.037</ele>
        <time>2012-01-26T11:44:03Z</time>
      </trkpt>
      <trkpt lat="45.68569" lon="6.6076">
        <ele>1735.336</ele>
        <time>2012-01-26T11:44:13Z</time>
      </trkpt>
      <trkpt lat="45.68569" lon="6.6076">
        <ele>1735.096</ele>
        <time>2012-01-26T11:44:23Z</time>
      </trkpt>
      <trkpt lat="45.68569" lon="6.6076">
        <ele>1735.208</ele>
        <time>2012-01-26T11:44:33Z</time>
      </trkpt>
      <trkpt lat="45.68569" lon="6.6076">
        <ele>1735.37</ele>
        <time>2012-01-26T11:44:43Z</time>
      </trkpt>
      <trkpt lat="45.68569" lon="6.6076">
        <ele>1735.088</ele>
        <time>2012-01-26T11:44:53Z</time>
      </trkpt>
      <trkpt lat="45.68569" lon="6.6076">
        <ele>1734.983</ele>
        <time>2012-01-26T11:45:03Z</time>
      </trkpt>
      <trkpt lat="45.68569" lon="6.6076">
        <ele>1735.066</ele>
        <time>2012-01-26T11:45:13Z</time>
      </trkpt>
      <trkpt lat="45.68565" lon="6.60762">
        <ele>1735.216</ele>
        <time>2012-01-26T11:45:23Z</time>
      </trkpt>
      <trkpt lat="45.6856" lon="6.60766">
        <ele>1734.896</ele>
        <time>2012-01-26T11:45:33Z</time>
      </trkpt>
      <trkpt lat="45.68555" lon="6.60774">
        <ele>1732.831</ele>
        <time>2012-01-26T11:45:43Z</time>
      </trkpt>
      <trkpt lat="45.6855" lon="6.60782">
        <ele>1731.368</ele>
        <time>2012-01-26T11:45:53Z</time>
      </trkpt>
      <trkpt lat="45.68544" lon="6.60792">
        <ele>1729.688</ele>
        <time>2012-01-26T11:46:03Z</time>
      </trkpt>
      <trkpt lat="45.68537" lon="6.60801">
        <ele>1728.213</ele>
        <time>2012-01-26T11:46:13Z</time>
      </trkpt>
      <trkpt lat="45.68529" lon="6.60807">
        <ele>1726.97</ele>
        <time>2012-01-26T11:46:23Z</time>
      </trkpt>
      <trkpt lat="45.68522" lon="6.60815">
        <ele>1726.245</ele>
        <time>2012-01-26T11:46:33Z</time>
      </trkpt>
      <trkpt lat="45.68514" lon="6.60819">
        <ele>1725.41</ele>
        <time>2012-01-26T11:46:43Z</time>
      </trkpt>
      <trkpt lat="45.68508" lon="6.60825">
        <ele>1723.841</ele>
        <time>2012-01-26T11:46:53Z</time>
      </trkpt>
      <trkpt lat="45.685" lon="6.60829">
        <ele>1722.552</ele>
        <time>2012-01-26T11:47:03Z</time>
      </trkpt>
      <trkpt lat="45.68493" lon="6.6083">
        <ele>1720.2</ele>
        <time>2012-01-26T11:47:13Z</time>
      </trkpt>
      <trkpt lat="45.68485" lon="6.60832">
        <ele>1717.843</ele>
        <time>2012-01-26T11:47:23Z</time>
      </trkpt>
      <trkpt lat="45.68477" lon="6.6084">
        <ele>1715.933</ele>
        <time>2012-01-26T11:47:33Z</time>
      </trkpt>
      <trkpt lat="45.6847" lon="6.60847">
        <ele>1715.504</ele>
        <time>2012-01-26T11:47:43Z</time>
      </trkpt>
      <trkpt lat="45.68463" lon="6.60855">
        <ele>1714.773</ele>
        <time>2012-01-26T11:47:53Z</time>
      </trkpt>
      <trkpt lat="45.68457" lon="6.60867">
        <ele>1714.575</ele>
        <time>2012-01-26T11:48:03Z</time>
      </trkpt>
      <trkpt lat="45.68453" lon="6.60877">
        <ele>1714.404</ele>
        <time>2012-01-26T11:48:13Z</time>
      </trkpt>
      <trkpt lat="45.68449" lon="6.60888">
        <ele>1713.899</ele>
        <time>2012-01-26T11:48:23Z</time>
      </trkpt>
      <trkpt lat="45.68446" lon="6.60899">
        <ele>1713.631</ele>
        <time>2012-01-26T11:48:33Z</time>
      </trkpt>
      <trkpt lat="45.68445" lon="6.60913">
        <ele>1713.054</ele>
        <time>2012-01-26T11:48:43Z</time>
      </trkpt>
      <trkpt lat="45.68445" lon="6.60926">
        <ele>1712.174</ele>
        <time>2012-01-26T11:48:53Z</time>
      </trkpt>
      <trkpt lat="45.68446" lon="6.60929">
        <ele>1711.579</ele>
        <time>2012-01-26T11:49:03Z</time>
      </trkpt>
      <trkpt lat="45.68445" lon="6.60936">
        <ele>1711.645</ele>
        <time>2012-01-26T11:49:13Z</time>
      </trkpt>
      <trkpt lat="45.68443" lon="6.6094">
        <ele>1711.555</ele>
        <time>2012-01-26T11:49:23Z</time>
      </trkpt>
      <trkpt lat="45.6844" lon="6.60951">
        <ele>1711.12</ele>
        <time>2012-01-26T11:49:33Z</time>
      </trkpt>
      <trkpt lat="45.68439" lon="6.60957">
        <ele>1710.005</ele>
        <time>2012-01-26T11:49:43Z</time>
      </trkpt>
      <trkpt lat="45.68436" lon="6.60961">
        <ele>1710.42</ele>
        <time>2012-01-26T11:49:53Z</time>
      </trkpt>
      <trkpt lat="45.68431" lon="6.6097">
        <ele>1710.065</ele>
        <time>2012-01-26T11:50:03Z</time>
      </trkpt>
      <trkpt lat="45.6843" lon="6.60973">
        <ele>1709.52</ele>
        <time>2012-01-26T11:50:13Z</time>
      </trkpt>
      <trkpt lat="45.6843" lon="6.60973">
        <ele>1709.662</ele>
        <time>2012-01-26T11:50:23Z</time>
      </trkpt>
      <trkpt lat="45.6843" lon="6.60973">
        <ele>1709.963</ele>
        <time>2012-01-26T11:50:33Z</time>
      </trkpt>
      <trkpt lat="45.6843" lon="6.60973">
        <ele>1709.448</ele>
        <time>2012-01-26T11:50:43Z</time>
      </trkpt>
      <trkpt lat="45.6843" lon="6.60973">
        <ele>1709.473</ele>
        <time>2012-01-26T11:50:53Z</time>
      </trkpt>
      <trkpt lat="45.6843" lon="6.60973">
        <ele>1709.568</ele>
        <time>2012-01-26T11:51:03Z</time>
      </trkpt>
      <trkpt lat="45.6843" lon="6.60973">
        <ele>1709.419</ele>
        <time>2012-01-26T11:51:13Z</time>
      </trkpt>
      <trkpt lat="45.6843" lon="6.60973">
        <ele>1709.819</ele>
        <time>2012-01-26T11:51:23Z</time>
      </trkpt>
      <trkpt lat="45.6843" lon="6.60974">
        <ele>1709.574</ele>
        <time>2012-01-26T11:51:33Z</time>
      </trkpt>
      <trkpt lat="45.6843" lon="6.60974">
        <ele>1709.549</ele>
        <time>2012-01-26T11:51:43Z</time>
      </trkpt>
      <trkpt lat="45.68429" lon="6.60975">
        <ele>1709.487</ele>
        <time>2012-01-26T11:51:53Z</time>
      </trkpt>
      <trkpt lat="45.68422" lon="6.60984">
        <ele>1709.363</ele>
        <time>2012-01-26T11:52:03Z</time>
      </trkpt>
      <trkpt lat="45.68416" lon="6.60994">
        <ele>1708.647</ele>
        <time>2012-01-26T11:52:13Z</time>
      </trkpt>
      <trkpt lat="45.68408" lon="6.61002">
        <ele>1708.227</ele>
        <time>2012-01-26T11:52:23Z</time>
      </trkpt>
      <trkpt lat="45.68399" lon="6.6101">
        <ele>1707.506</ele>
        <time>2012-01-26T11:52:33Z</time>
      </trkpt>
      <trkpt lat="45.68395" lon="6.61014">
        <ele>1706.829</ele>
        <time>2012-01-26T11:52:43Z</time>
      </trkpt>
      <trkpt lat="45.68392" lon="6.61017">
        <ele>1706.219</ele>
        <time>2012-01-26T11:52:53Z</time>
      </trkpt>
      <trkpt lat="45.6839" lon="6.61024">
        <ele>1706.129</ele>
        <time>2012-01-26T11:53:03Z</time>
      </trkpt>
      <trkpt lat="45.6839" lon="6.61027">
        <ele>1706.136</ele>
        <time>2012-01-26T11:53:13Z</time>
      </trkpt>
      <trkpt lat="45.6839" lon="6.61027">
        <ele>1706.2</ele>
        <time>2012-01-26T11:53:23Z</time>
      </trkpt>
      <trkpt lat="45.68389" lon="6.61027">
        <ele>1706.069</ele>
        <time>2012-01-26T11:53:33Z</time>
      </trkpt>
      <trkpt lat="45.68391" lon="6.61025">
        <ele>1705.653</ele>
        <time>2012-01-26T11:53:43Z</time>
      </trkpt>
      <trkpt lat="45.68392" lon="6.61023">
        <ele>1706.015</ele>
        <time>2012-01-26T11:53:53Z</time>
      </trkpt>
      <trkpt lat="45.68392" lon="6.61023">
        <ele>1705.74</ele>
        <time>2012-01-26T11:54:03Z</time>
      </trkpt>
      <trkpt lat="45.68392" lon="6.61023">
        <ele>1706.118</ele>
        <time>2012-01-26T11:54:13Z</time>
      </trkpt>
      <trkpt lat="45.68392" lon="6.61023">
        <ele>1705.564</ele>
        <time>2012-01-26T11:54:23Z</time>
      </trkpt>
      <trkpt lat="45.68392" lon="6.61023">
        <ele>1705.682</ele>
        <time>2012-01-26T11:54:33Z</time>
      </trkpt>
      <trkpt lat="45.68393" lon="6.61022">
        <ele>1706.213</ele>
        <time>2012-01-26T11:54:43Z</time>
      </trkpt>
      <trkpt lat="45.68392" lon="6.6102">
        <ele>1706.131</ele>
        <time>2012-01-26T11:54:53Z</time>
      </trkpt>
      <trkpt lat="45.68392" lon="6.61022">
        <ele>1705.707</ele>
        <time>2012-01-26T11:55:03Z</time>
      </trkpt>
      <trkpt lat="45.68392" lon="6.61022">
        <ele>1705.394</ele>
        <time>2012-01-26T11:55:13Z</time>
      </trkpt>
      <trkpt lat="45.68392" lon="6.61022">
        <ele>1705.783</ele>
        <time>2012-01-26T11:55:23Z</time>
      </trkpt>
      <trkpt lat="45.68392" lon="6.61022">
        <ele>1705.37</ele>
        <time>2012-01-26T11:55:33Z</time>
      </trkpt>
      <trkpt lat="45.68393" lon="6.61022">
        <ele>1705.843</ele>
        <time>2012-01-26T11:55:43Z</time>
      </trkpt>
      <trkpt lat="45.68393" lon="6.6102">
        <ele>1705.724</ele>
        <time>2012-01-26T11:55:53Z</time>
      </trkpt>
      <trkpt lat="45.68394" lon="6.61018">
        <ele>1705.579</ele>
        <time>2012-01-26T11:56:03Z</time>
      </trkpt>
      <trkpt lat="45.68394" lon="6.61018">
        <ele>1705.872</ele>
        <time>2012-01-26T11:56:13Z</time>
      </trkpt>
      <trkpt lat="45.6839" lon="6.61018">
        <ele>1705.925</ele>
        <time>2012-01-26T11:56:23Z</time>
      </trkpt>
      <trkpt lat="45.6839" lon="6.61018">
        <ele>1705.852</ele>
        <time>2012-01-26T11:56:33Z</time>
      </trkpt>
      <trkpt lat="45.68391" lon="6.61016">
        <ele>1705.987</ele>
        <time>2012-01-26T11:56:43Z</time>
      </trkpt>
      <trkpt lat="45.68392" lon="6.61016">
        <ele>1705.844</ele>
        <time>2012-01-26T11:56:53Z</time>
      </trkpt>
      <trkpt lat="45.68392" lon="6.61016">
        <ele>1705.597</ele>
        <time>2012-01-26T11:57:03Z</time>
      </trkpt>
      <trkpt lat="45.68392" lon="6.61016">
        <ele>1705.837</ele>
        <time>2012-01-26T11:57:13Z</time>
      </trkpt>
      <trkpt lat="45.68392" lon="6.61015">
        <ele>1705.419</ele>
        <time>2012-01-26T11:57:23Z</time>
      </trkpt>
      <trkpt lat="45.68392" lon="6.61016">
        <ele>1706.216</ele>
        <time>2012-01-26T11:57:33Z</time>
      </trkpt>
      <trkpt lat="45.68391" lon="6.61016">
        <ele>1705.04</ele>
        <time>2012-01-26T11:57:43Z</time>
      </trkpt>
      <trkpt lat="45.68391" lon="6.61021">
        <ele>1705.525</ele>
        <time>2012-01-26T11:57:53Z</time>
      </trkpt>
      <trkpt lat="45.68391" lon="6.61022">
        <ele>1704.964</ele>
        <time>2012-01-26T11:58:03Z</time>
      </trkpt>
      <trkpt lat="45.68394" lon="6.6102">
        <ele>1705.525</ele>
        <time>2012-01-26T11:58:13Z</time>
      </trkpt>
      <trkpt lat="45.68394" lon="6.61019">
        <ele>1704.961</ele>
        <time>2012-01-26T11:58:23Z</time>
      </trkpt>
      <trkpt lat="45.68394" lon="6.61019">
        <ele>1705.117</ele>
        <time>2012-01-26T11:58:33Z</time>
      </trkpt>
      <trkpt lat="45.68394" lon="6.61019">
        <ele>1705.546</ele>
        <time>2012-01-26T11:58:43Z</time>
      </trkpt>
      <trkpt lat="45.68394" lon="6.61019">
        <ele>1705.224</ele>
        <time>2012-01-26T11:58:53Z</time>
      </trkpt>
      <trkpt lat="45.68394" lon="6.61019">
        <ele>1705.607</ele>
        <time>2012-01-26T11:59:03Z</time>
      </trkpt>
      <trkpt lat="45.68394" lon="6.61019">
        <ele>1705.258</ele>
        <time>2012-01-26T11:59:13Z</time>
      </trkpt>
      <trkpt lat="45.68394" lon="6.61019">
        <ele>1705.488</ele>
        <time>2012-01-26T11:59:23Z</time>
      </trkpt>
      <trkpt lat="45.68394" lon="6.61019">
        <ele>1705.181</ele>
        <time>2012-01-26T11:59:33Z</time>
      </trkpt>
      <trkpt lat="45.68394" lon="6.61019">
        <ele>1705.522</ele>
        <time>2012-01-26T11:59:43Z</time>
      </trkpt>
      <trkpt lat="45.68394" lon="6.6102">
        <ele>1705.07</ele>
        <time>2012-01-26T11:59:53Z</time>
      </trkpt>
      <trkpt lat="45.68394" lon="6.6102">
        <ele>1705.362</ele>
        <time>2012-01-26T12:00:03Z</time>
      </trkpt>
      <trkpt lat="45.68394" lon="6.6102">
        <ele>1705.41</ele>
        <time>2012-01-26T12:00:13Z</time>
      </trkpt>
      <trkpt lat="45.68394" lon="6.6102">
        <ele>1704.933</ele>
        <time>2012-01-26T12:00:23Z</time>
      </trkpt>
      <trkpt lat="45.68394" lon="6.6102">
        <ele>1705.048</ele>
        <time>2012-01-26T12:00:33Z</time>
      </trkpt>
      <trkpt lat="45.68394" lon="6.6102">
        <ele>1705.209</ele>
        <time>2012-01-26T12:00:43Z</time>
      </trkpt>
      <trkpt lat="45.68394" lon="6.6102">
        <ele>1705.154</ele>
        <time>2012-01-26T12:00:53Z</time>
      </trkpt>
      <trkpt lat="45.68394" lon="6.6102">
        <ele>1704.924</ele>
        <time>2012-01-26T12:01:03Z</time>
      </trkpt>
      <trkpt lat="45.68394" lon="6.6102">
        <ele>1705.396</ele>
        <time>2012-01-26T12:01:13Z</time>
      </trkpt>
      <trkpt lat="45.68394" lon="6.61018">
        <ele>1705.019</ele>
        <time>2012-01-26T12:01:23Z</time>
      </trkpt>
      <trkpt lat="45.684" lon="6.61009">
        <ele>1705.58</ele>
        <time>2012-01-26T12:01:33Z</time>
      </trkpt>
      <trkpt lat="45.68407" lon="6.61">
        <ele>1706.043</ele>
        <time>2012-01-26T12:01:43Z</time>
      </trkpt>
      <trkpt lat="45.68414" lon="6.60993">
        <ele>1706.462</ele>
        <time>2012-01-26T12:01:53Z</time>
      </trkpt>
      <trkpt lat="45.68421" lon="6.60986">
        <ele>1707.146</ele>
        <time>2012-01-26T12:02:03Z</time>
      </trkpt>
      <trkpt lat="45.68427" lon="6.60977">
        <ele>1707.56</ele>
        <time>2012-01-26T12:02:13Z</time>
      </trkpt>
      <trkpt lat="45.68432" lon="6.60967">
        <ele>1708.488</ele>
        <time>2012-01-26T12:02:23Z</time>
      </trkpt>
      <trkpt lat="45.68437" lon="6.60957">
        <ele>1709.02</ele>
        <time>2012-01-26T12:02:33Z</time>
      </trkpt>
      <trkpt lat="45.68441" lon="6.60948">
        <ele>1708.935</ele>
        <time>2012-01-26T12:02:43Z</time>
      </trkpt>
      <trkpt lat="45.68444" lon="6.60935">
        <ele>1710.459</ele>
        <time>2012-01-26T12:02:53Z</time>
      </trkpt>
      <trkpt lat="45.68445" lon="6.60922">
        <ele>1710.476</ele>
        <time>2012-01-26T12:03:03Z</time>
      </trkpt>
      <trkpt lat="45.68444" lon="6.60909">
        <ele>1711.345</ele>
        <time>2012-01-26T12:03:13Z</time>
      </trkpt>
      <trkpt lat="45.68445" lon="6.60898">
        <ele>1711.646</ele>
        <time>2012-01-26T12:03:23Z</time>
      </trkpt>
      <trkpt lat="45.68446" lon="6.60886">
        <ele>1712.366</ele>
        <time>2012-01-26T12:03:33Z</time>
      </trkpt>
      <trkpt lat="45.68451" lon="6.60875">
        <ele>1713.116</ele>
        <time>2012-01-26T12:03:43Z</time>
      </trkpt>
      <trkpt lat="45.68456" lon="6.60864">
        <ele>1713</ele>
        <time>2012-01-26T12:03:53Z</time>
      </trkpt>
      <trkpt lat="45.68461" lon="6.60854">
        <ele>1712.799</ele>
        <time>2012-01-26T12:04:03Z</time>
      </trkpt>
      <trkpt lat="45.68467" lon="6.60843">
        <ele>1713.618</ele>
        <time>2012-01-26T12:04:13Z</time>
      </trkpt>
      <trkpt lat="45.68474" lon="6.60836">
        <ele>1713.834</ele>
        <time>2012-01-26T12:04:23Z</time>
      </trkpt>
      <trkpt lat="45.68482" lon="6.6083">
        <ele>1714.699</ele>
        <time>2012-01-26T12:04:33Z</time>
      </trkpt>
      <trkpt lat="45.68489" lon="6.60825">
        <ele>1715.727</ele>
        <time>2012-01-26T12:04:43Z</time>
      </trkpt>
      <trkpt lat="45.68497" lon="6.60826">
        <ele>1718.32</ele>
        <time>2012-01-26T12:04:53Z</time>
      </trkpt>
      <trkpt lat="45.68503" lon="6.60826">
        <ele>1719.845</ele>
        <time>2012-01-26T12:05:03Z</time>
      </trkpt>
      <trkpt lat="45.68509" lon="6.60821">
        <ele>1721.314</ele>
        <time>2012-01-26T12:05:13Z</time>
      </trkpt>
      <trkpt lat="45.68517" lon="6.60819">
        <ele>1722.968</ele>
        <time>2012-01-26T12:05:23Z</time>
      </trkpt>
      <trkpt lat="45.68523" lon="6.60812">
        <ele>1724.12</ele>
        <time>2012-01-26T12:05:33Z</time>
      </trkpt>
      <trkpt lat="45.6853" lon="6.60807">
        <ele>1724.455</ele>
        <time>2012-01-26T12:05:43Z</time>
      </trkpt>
      <trkpt lat="45.68536" lon="6.608">
        <ele>1725.368</ele>
        <time>2012-01-26T12:05:53Z</time>
      </trkpt>
      <trkpt lat="45.68541" lon="6.60791">
        <ele>1726.561</ele>
        <time>2012-01-26T12:06:03Z</time>
      </trkpt>
      <trkpt lat="45.68547" lon="6.60783">
        <ele>1727.862</ele>
        <time>2012-01-26T12:06:13Z</time>
      </trkpt>
      <trkpt lat="45.68552" lon="6.60776">
        <ele>1728.941</ele>
        <time>2012-01-26T12:06:23Z</time>
      </trkpt>
      <trkpt lat="45.68558" lon="6.6077">
        <ele>1730.675</ele>
        <time>2012-01-26T12:06:33Z</time>
      </trkpt>
      <trkpt lat="45.68561" lon="6.60762">
        <ele>1732.631</ele>
        <time>2012-01-26T12:06:43Z</time>
      </trkpt>
      <trkpt lat="45.68568" lon="6.60754">
        <ele>1733.432</ele>
        <time>2012-01-26T12:06:53Z</time>
      </trkpt>
      <trkpt lat="45.68576" lon="6.60747">
        <ele>1734.214</ele>
        <time>2012-01-26T12:07:03Z</time>
      </trkpt>
      <trkpt lat="45.68583" lon="6.60741">
        <ele>1735.325</ele>
        <time>2012-01-26T12:07:13Z</time>
      </trkpt>
      <trkpt lat="45.68588" lon="6.60732">
        <ele>1734.793</ele>
        <time>2012-01-26T12:07:23Z</time>
      </trkpt>
      <trkpt lat="45.68594" lon="6.60727">
        <ele>1736.128</ele>
        <time>2012-01-26T12:07:33Z</time>
      </trkpt>
      <trkpt lat="45.68599" lon="6.60719">
        <ele>1736.533</ele>
        <time>2012-01-26T12:07:43Z</time>
      </trkpt>
      <trkpt lat="45.68606" lon="6.60711">
        <ele>1737.001</ele>
        <time>2012-01-26T12:07:53Z</time>
      </trkpt>
      <trkpt lat="45.68611" lon="6.607">
        <ele>1736.504</ele>
        <time>2012-01-26T12:08:03Z</time>
      </trkpt>
      <trkpt lat="45.68617" lon="6.60689">
        <ele>1736.289</ele>
        <time>2012-01-26T12:08:13Z</time>
      </trkpt>
      <trkpt lat="45.68621" lon="6.60676">
        <ele>1735.671</ele>
        <time>2012-01-26T12:08:23Z</time>
      </trkpt>
      <trkpt lat="45.68627" lon="6.60666">
        <ele>1735.1</ele>
        <time>2012-01-26T12:08:33Z</time>
      </trkpt>
      <trkpt lat="45.68634" lon="6.60658">
        <ele>1735.001</ele>
        <time>2012-01-26T12:08:43Z</time>
      </trkpt>
      <trkpt lat="45.68643" lon="6.60651">
        <ele>1734.972</ele>
        <time>2012-01-26T12:08:53Z</time>
      </trkpt>
      <trkpt lat="45.68649" lon="6.60643">
        <ele>1734.748</ele>
        <time>2012-01-26T12:09:03Z</time>
      </trkpt>
      <trkpt lat="45.68652" lon="6.60632">
        <ele>1734.575</ele>
        <time>2012-01-26T12:09:13Z</time>
      </trkpt>
      <trkpt lat="45.68658" lon="6.60624">
        <ele>1733.86</ele>
        <time>2012-01-26T12:09:23Z</time>
      </trkpt>
      <trkpt lat="45.68666" lon="6.60617">
        <ele>1733.246</ele>
        <time>2012-01-26T12:09:33Z</time>
      </trkpt>
      <trkpt lat="45.68674" lon="6.60611">
        <ele>1732.983</ele>
        <time>2012-01-26T12:09:43Z</time>
      </trkpt>
      <trkpt lat="45.68679" lon="6.60599">
        <ele>1732.432</ele>
        <time>2012-01-26T12:09:53Z</time>
      </trkpt>
      <trkpt lat="45.68684" lon="6.60589">
        <ele>1732.472</ele>
        <time>2012-01-26T12:10:03Z</time>
      </trkpt>
      <trkpt lat="45.68691" lon="6.60579">
        <ele>1732.612</ele>
        <time>2012-01-26T12:10:13Z</time>
      </trkpt>
      <trkpt lat="45.68698" lon="6.60569">
        <ele>1732.375</ele>
        <time>2012-01-26T12:10:23Z</time>
      </trkpt>
      <trkpt lat="45.68704" lon="6.60559">
        <ele>1731.677</ele>
        <time>2012-01-26T12:10:33Z</time>
      </trkpt>
      <trkpt lat="45.6871" lon="6.60548">
        <ele>1730.383</ele>
        <time>2012-01-26T12:10:43Z</time>
      </trkpt>
      <trkpt lat="45.68717" lon="6.60539">
        <ele>1729.895</ele>
        <time>2012-01-26T12:10:53Z</time>
      </trkpt>
      <trkpt lat="45.68719" lon="6.60535">
        <ele>1730.175</ele>
        <time>2012-01-26T12:11:03Z</time>
      </trkpt>
      <trkpt lat="45.68719" lon="6.60535">
        <ele>1729.89</ele>
        <time>2012-01-26T12:11:13Z</time>
      </trkpt>
      <trkpt lat="45.68719" lon="6.60534">
        <ele>1730.233</ele>
        <time>2012-01-26T12:11:23Z</time>
      </trkpt>
      <trkpt lat="45.68719" lon="6.60535">
        <ele>1729.937</ele>
        <time>2012-01-26T12:11:33Z</time>
      </trkpt>
      <trkpt lat="45.68721" lon="6.60528">
        <ele>1729.951</ele>
        <time>2012-01-26T12:11:43Z</time>
      </trkpt>
      <trkpt lat="45.68723" lon="6.60516">
        <ele>1730.027</ele>
        <time>2012-01-26T12:11:53Z</time>
      </trkpt>
      <trkpt lat="45.68724" lon="6.60504">
        <ele>1730.222</ele>
        <time>2012-01-26T12:12:03Z</time>
      </trkpt>
      <trkpt lat="45.68726" lon="6.60491">
        <ele>1730.025</ele>
        <time>2012-01-26T12:12:13Z</time>
      </trkpt>
      <trkpt lat="45.68726" lon="6.6048">
        <ele>1729.693</ele>
        <time>2012-01-26T12:12:23Z</time>
      </trkpt>
      <trkpt lat="45.68728" lon="6.60467">
        <ele>1729.494</ele>
        <time>2012-01-26T12:12:33Z</time>
      </trkpt>
      <trkpt lat="45.6873" lon="6.60456">
        <ele>1729.812</ele>
        <time>2012-01-26T12:12:43Z</time>
      </trkpt>
      <trkpt lat="45.68733" lon="6.60443">
        <ele>1729.974</ele>
        <time>2012-01-26T12:12:53Z</time>
      </trkpt>
      <trkpt lat="45.68737" lon="6.60431">
        <ele>1729.336</ele>
        <time>2012-01-26T12:13:03Z</time>
      </trkpt>
      <trkpt lat="45.68742" lon="6.60419">
        <ele>1728.526</ele>
        <time>2012-01-26T12:13:13Z</time>
      </trkpt>
      <trkpt lat="45.68746" lon="6.60407">
        <ele>1728.151</ele>
        <time>2012-01-26T12:13:23Z</time>
      </trkpt>
      <trkpt lat="45.68752" lon="6.60395">
        <ele>1726.969</ele>
        <time>2012-01-26T12:13:33Z</time>
      </trkpt>
      <trkpt lat="45.68758" lon="6.60392">
        <ele>1728.14</ele>
        <time>2012-01-26T12:13:43Z</time>
      </trkpt>
      <trkpt lat="45.6876" lon="6.60391">
        <ele>1727.144</ele>
        <time>2012-01-26T12:13:53Z</time>
      </trkpt>
      <trkpt lat="45.6877" lon="6.60389">
        <ele>1727.244</ele>
        <time>2012-01-26T12:14:03Z</time>
      </trkpt>
      <trkpt lat="45.68778" lon="6.60385">
        <ele>1726.888</ele>
        <time>2012-01-26T12:14:13Z</time>
      </trkpt>
      <trkpt lat="45.68787" lon="6.60381">
        <ele>1727.714</ele>
        <time>2012-01-26T12:14:23Z</time>
      </trkpt>
      <trkpt lat="45.68793" lon="6.60381">
        <ele>1727.99</ele>
        <time>2012-01-26T12:14:33Z</time>
      </trkpt>
      <trkpt lat="45.68793" lon="6.60381">
        <ele>1727.171</ele>
        <time>2012-01-26T12:14:43Z</time>
      </trkpt>
      <trkpt lat="45.68798" lon="6.60379">
        <ele>1726.704</ele>
        <time>2012-01-26T12:14:53Z</time>
      </trkpt>
      <trkpt lat="45.68798" lon="6.6038">
        <ele>1726.784</ele>
        <time>2012-01-26T12:15:03Z</time>
      </trkpt>
      <trkpt lat="45.68798" lon="6.6038">
        <ele>1726.958</ele>
        <time>2012-01-26T12:15:13Z</time>
      </trkpt>
      <trkpt lat="45.68798" lon="6.6038">
        <ele>1726.694</ele>
        <time>2012-01-26T12:15:23Z</time>
      </trkpt>
      <trkpt lat="45.68798" lon="6.6038">
        <ele>1726.73</ele>
        <time>2012-01-26T12:15:33Z</time>
      </trkpt>
      <trkpt lat="45.68798" lon="6.6038">
        <ele>1726.766</ele>
        <time>2012-01-26T12:15:43Z</time>
      </trkpt>
      <trkpt lat="45.68798" lon="6.6038">
        <ele>1726.925</ele>
        <time>2012-01-26T12:15:53Z</time>
      </trkpt>
      <trkpt lat="45.68798" lon="6.6038">
        <ele>1726.53</ele>
        <time>2012-01-26T12:16:03Z</time>
      </trkpt>
      <trkpt lat="45.68798" lon="6.6038">
        <ele>1726.902</ele>
        <time>2012-01-26T12:16:13Z</time>
      </trkpt>
      <trkpt lat="45.68798" lon="6.6038">
        <ele>1726.897</ele>
        <time>2012-01-26T12:16:23Z</time>
      </trkpt>
      <trkpt lat="45.68802" lon="6.60377">
        <ele>1725.924</ele>
        <time>2012-01-26T12:16:33Z</time>
      </trkpt>
      <trkpt lat="45.68802" lon="6.60377">
        <ele>1726.224</ele>
        <time>2012-01-26T12:16:43Z</time>
      </trkpt>
      <trkpt lat="45.68802" lon="6.60377">
        <ele>1726.497</ele>
        <time>2012-01-26T12:16:53Z</time>
      </trkpt>
      <trkpt lat="45.68807" lon="6.60372">
        <ele>1725.857</ele>
        <time>2012-01-26T12:17:03Z</time>
      </trkpt>
      <trkpt lat="45.68811" lon="6.60361">
        <ele>1725.084</ele>
        <time>2012-01-26T12:17:13Z</time>
      </trkpt>
      <trkpt lat="45.68812" lon="6.60347">
        <ele>1724.885</ele>
        <time>2012-01-26T12:17:23Z</time>
      </trkpt>
      <trkpt lat="45.68812" lon="6.60335">
        <ele>1724.683</ele>
        <time>2012-01-26T12:17:33Z</time>
      </trkpt>
      <trkpt lat="45.68814" lon="6.60322">
        <ele>1724.582</ele>
        <time>2012-01-26T12:17:43Z</time>
      </trkpt>
      <trkpt lat="45.68818" lon="6.6031">
        <ele>1724.244</ele>
        <time>2012-01-26T12:17:53Z</time>
      </trkpt>
      <trkpt lat="45.68826" lon="6.60303">
        <ele>1724.135</ele>
        <time>2012-01-26T12:18:03Z</time>
      </trkpt>
      <trkpt lat="45.68833" lon="6.60293">
        <ele>1724.603</ele>
        <time>2012-01-26T12:18:13Z</time>
      </trkpt>
      <trkpt lat="45.68841" lon="6.60287">
        <ele>1724.403</ele>
        <time>2012-01-26T12:18:23Z</time>
      </trkpt>
      <trkpt lat="45.6885" lon="6.60282">
        <ele>1724.152</ele>
        <time>2012-01-26T12:18:33Z</time>
      </trkpt>
      <trkpt lat="45.68858" lon="6.60278">
        <ele>1723.874</ele>
        <time>2012-01-26T12:18:43Z</time>
      </trkpt>
      <trkpt lat="45.68867" lon="6.60273">
        <ele>1724.318</ele>
        <time>2012-01-26T12:18:53Z</time>
      </trkpt>
      <trkpt lat="45.68871" lon="6.60263">
        <ele>1724.94</ele>
        <time>2012-01-26T12:19:03Z</time>
      </trkpt>
      <trkpt lat="45.68876" lon="6.60253">
        <ele>1724.67</ele>
        <time>2012-01-26T12:19:13Z</time>
      </trkpt>
      <trkpt lat="45.68879" lon="6.60242">
        <ele>1724.713</ele>
        <time>2012-01-26T12:19:23Z</time>
      </trkpt>
      <trkpt lat="45.68879" lon="6.60233">
        <ele>1724.234</ele>
        <time>2012-01-26T12:19:33Z</time>
      </trkpt>
      <trkpt lat="45.6888" lon="6.60219">
        <ele>1724.242</ele>
        <time>2012-01-26T12:19:43Z</time>
      </trkpt>
      <trkpt lat="45.68882" lon="6.60206">
        <ele>1724.416</ele>
        <time>2012-01-26T12:19:53Z</time>
      </trkpt>
      <trkpt lat="45.68883" lon="6.60194">
        <ele>1723.922</ele>
        <time>2012-01-26T12:20:03Z</time>
      </trkpt>
      <trkpt lat="45.68884" lon="6.60181">
        <ele>1723.294</ele>
        <time>2012-01-26T12:20:13Z</time>
      </trkpt>
      <trkpt lat="45.68886" lon="6.60168">
        <ele>1723.32</ele>
        <time>2012-01-26T12:20:23Z</time>
      </trkpt>
      <trkpt lat="45.68888" lon="6.60155">
        <ele>1722.723</ele>
        <time>2012-01-26T12:20:33Z</time>
      </trkpt>
      <trkpt lat="45.6889" lon="6.60145">
        <ele>1722.714</ele>
        <time>2012-01-26T12:20:43Z</time>
      </trkpt>
      <trkpt lat="45.68891" lon="6.60133">
        <ele>1722.74</ele>
        <time>2012-01-26T12:20:53Z</time>
      </trkpt>
      <trkpt lat="45.6889" lon="6.6012">
        <ele>1722.52</ele>
        <time>2012-01-26T12:21:03Z</time>
      </trkpt>
      <trkpt lat="45.6889" lon="6.60107">
        <ele>1722.553</ele>
        <time>2012-01-26T12:21:13Z</time>
      </trkpt>
      <trkpt lat="45.68893" lon="6.60093">
        <ele>1722.279</ele>
        <time>2012-01-26T12:21:23Z</time>
      </trkpt>
      <trkpt lat="45.68898" lon="6.6008">
        <ele>1721.406</ele>
        <time>2012-01-26T12:21:33Z</time>
      </trkpt>
      <trkpt lat="45.68907" lon="6.60075">
        <ele>1721.111</ele>
        <time>2012-01-26T12:21:43Z</time>
      </trkpt>
      <trkpt lat="45.68916" lon="6.60072">
        <ele>1720.204</ele>
        <time>2012-01-26T12:21:53Z</time>
      </trkpt>
      <trkpt lat="45.68924" lon="6.60063">
        <ele>1719.597</ele>
        <time>2012-01-26T12:22:03Z</time>
      </trkpt>
      <trkpt lat="45.68932" lon="6.60056">
        <ele>1719.186</ele>
        <time>2012-01-26T12:22:13Z</time>
      </trkpt>
      <trkpt lat="45.68943" lon="6.60055">
        <ele>1718.673</ele>
        <time>2012-01-26T12:22:23Z</time>
      </trkpt>
      <trkpt lat="45.68952" lon="6.6005">
        <ele>1717.714</ele>
        <time>2012-01-26T12:22:33Z</time>
      </trkpt>
      <trkpt lat="45.68959" lon="6.60043">
        <ele>1717.328</ele>
        <time>2012-01-26T12:22:43Z</time>
      </trkpt>
      <trkpt lat="45.68964" lon="6.60032">
        <ele>1716.821</ele>
        <time>2012-01-26T12:22:53Z</time>
      </trkpt>
      <trkpt lat="45.68969" lon="6.60023">
        <ele>1716.136</ele>
        <time>2012-01-26T12:23:03Z</time>
      </trkpt>
      <trkpt lat="45.68975" lon="6.60015">
        <ele>1715.086</ele>
        <time>2012-01-26T12:23:13Z</time>
      </trkpt>
      <trkpt lat="45.68979" lon="6.60007">
        <ele>1714.537</ele>
        <time>2012-01-26T12:23:23Z</time>
      </trkpt>
      <trkpt lat="45.68983" lon="6.59996">
        <ele>1713.98</ele>
        <time>2012-01-26T12:23:33Z</time>
      </trkpt>
      <trkpt lat="45.68988" lon="6.59985">
        <ele>1713.026</ele>
        <time>2012-01-26T12:23:43Z</time>
      </trkpt>
      <trkpt lat="45.68993" lon="6.59975">
        <ele>1712.566</ele>
        <time>2012-01-26T12:23:53Z</time>
      </trkpt>
      <trkpt lat="45.68996" lon="6.59961">
        <ele>1711.521</ele>
        <time>2012-01-26T12:24:03Z</time>
      </trkpt>
      <trkpt lat="45.69" lon="6.59957">
        <ele>1711.396</ele>
        <time>2012-01-26T12:24:13Z</time>
      </trkpt>
      <trkpt lat="45.69001" lon="6.59949">
        <ele>1711.154</ele>
        <time>2012-01-26T12:24:23Z</time>
      </trkpt>
      <trkpt lat="45.69001" lon="6.59935">
        <ele>1709.97</ele>
        <time>2012-01-26T12:24:33Z</time>
      </trkpt>
      <trkpt lat="45.69003" lon="6.59924">
        <ele>1709.529</ele>
        <time>2012-01-26T12:24:43Z</time>
      </trkpt>
      <trkpt lat="45.69005" lon="6.5991">
        <ele>1708.884</ele>
        <time>2012-01-26T12:24:53Z</time>
      </trkpt>
      <trkpt lat="45.69008" lon="6.59901">
        <ele>1708.229</ele>
        <time>2012-01-26T12:25:03Z</time>
      </trkpt>
      <trkpt lat="45.69009" lon="6.59885">
        <ele>1707.381</ele>
        <time>2012-01-26T12:25:13Z</time>
      </trkpt>
      <trkpt lat="45.69007" lon="6.59875">
        <ele>1706.99</ele>
        <time>2012-01-26T12:25:23Z</time>
      </trkpt>
      <trkpt lat="45.69004" lon="6.5986">
        <ele>1705.824</ele>
        <time>2012-01-26T12:25:33Z</time>
      </trkpt>
      <trkpt lat="45.69002" lon="6.59852">
        <ele>1704.754</ele>
        <time>2012-01-26T12:25:43Z</time>
      </trkpt>
      <trkpt lat="45.69003" lon="6.59851">
        <ele>1704.738</ele>
        <time>2012-01-26T12:25:53Z</time>
      </trkpt>
      <trkpt lat="45.69008" lon="6.59847">
        <ele>1704.062</ele>
        <time>2012-01-26T12:26:03Z</time>
      </trkpt>
      <trkpt lat="45.69012" lon="6.59835">
        <ele>1703.541</ele>
        <time>2012-01-26T12:26:13Z</time>
      </trkpt>
      <trkpt lat="45.69019" lon="6.59826">
        <ele>1702.424</ele>
        <time>2012-01-26T12:26:23Z</time>
      </trkpt>
      <trkpt lat="45.69019" lon="6.59818">
        <ele>1702.078</ele>
        <time>2012-01-26T12:26:33Z</time>
      </trkpt>
      <trkpt lat="45.69019" lon="6.59819">
        <ele>1702.167</ele>
        <time>2012-01-26T12:26:43Z</time>
      </trkpt>
      <trkpt lat="45.69021" lon="6.5982">
        <ele>1702.026</ele>
        <time>2012-01-26T12:26:53Z</time>
      </trkpt>
      <trkpt lat="45.69028" lon="6.59821">
        <ele>1701.349</ele>
        <time>2012-01-26T12:27:03Z</time>
      </trkpt>
      <trkpt lat="45.69036" lon="6.59822">
        <ele>1700.712</ele>
        <time>2012-01-26T12:27:13Z</time>
      </trkpt>
      <trkpt lat="45.69045" lon="6.59819">
        <ele>1700.83</ele>
        <time>2012-01-26T12:27:23Z</time>
      </trkpt>
      <trkpt lat="45.69053" lon="6.59819">
        <ele>1700.623</ele>
        <time>2012-01-26T12:27:33Z</time>
      </trkpt>
      <trkpt lat="45.69061" lon="6.59816">
        <ele>1700.779</ele>
        <time>2012-01-26T12:27:43Z</time>
      </trkpt>
      <trkpt lat="45.69066" lon="6.59806">
        <ele>1699.622</ele>
        <time>2012-01-26T12:27:53Z</time>
      </trkpt>
      <trkpt lat="45.69068" lon="6.59795">
        <ele>1699.253</ele>
        <time>2012-01-26T12:28:03Z</time>
      </trkpt>
      <trkpt lat="45.69071" lon="6.59783">
        <ele>1699.579</ele>
        <time>2012-01-26T12:28:13Z</time>
      </trkpt>
      <trkpt lat="45.69073" lon="6.59771">
        <ele>1698.88</ele>
        <time>2012-01-26T12:28:23Z</time>
      </trkpt>
      <trkpt lat="45.69074" lon="6.59757">
        <ele>1698.446</ele>
        <time>2012-01-26T12:28:33Z</time>
      </trkpt>
      <trkpt lat="45.69077" lon="6.59745">
        <ele>1698.927</ele>
        <time>2012-01-26T12:28:43Z</time>
      </trkpt>
      <trkpt lat="45.69082" lon="6.59738">
        <ele>1699.124</ele>
        <time>2012-01-26T12:28:53Z</time>
      </trkpt>
      <trkpt lat="45.69086" lon="6.59729">
        <ele>1699.701</ele>
        <time>2012-01-26T12:29:03Z</time>
      </trkpt>
      <trkpt lat="45.69089" lon="6.5972">
        <ele>1701.08</ele>
        <time>2012-01-26T12:29:13Z</time>
      </trkpt>
      <trkpt lat="45.6909" lon="6.59711">
        <ele>1702.576</ele>
        <time>2012-01-26T12:29:23Z</time>
      </trkpt>
      <trkpt lat="45.69093" lon="6.597">
        <ele>1704.312</ele>
        <time>2012-01-26T12:29:33Z</time>
      </trkpt>
      <trkpt lat="45.69093" lon="6.59689">
        <ele>1705.089</ele>
        <time>2012-01-26T12:29:43Z</time>
      </trkpt>
      <trkpt lat="45.69091" lon="6.59678">
        <ele>1706.022</ele>
        <time>2012-01-26T12:29:53Z</time>
      </trkpt>
      <trkpt lat="45.69088" lon="6.5967">
        <ele>1706.742</ele>
        <time>2012-01-26T12:30:03Z</time>
      </trkpt>
      <trkpt lat="45.69086" lon="6.5966">
        <ele>1707.432</ele>
        <time>2012-01-26T12:30:13Z</time>
      </trkpt>
      <trkpt lat="45.69082" lon="6.59651">
        <ele>1708.611</ele>
        <time>2012-01-26T12:30:23Z</time>
      </trkpt>
      <trkpt lat="45.69079" lon="6.59642">
        <ele>1709.298</ele>
        <time>2012-01-26T12:30:33Z</time>
      </trkpt>
      <trkpt lat="45.69076" lon="6.59635">
        <ele>1710.367</ele>
        <time>2012-01-26T12:30:43Z</time>
      </trkpt>
      <trkpt lat="45.69072" lon="6.59626">
        <ele>1711.713</ele>
        <time>2012-01-26T12:30:53Z</time>
      </trkpt>
      <trkpt lat="45.69069" lon="6.59617">
        <ele>1712.398</ele>
        <time>2012-01-26T12:31:03Z</time>
      </trkpt>
      <trkpt lat="45.69065" lon="6.59607">
        <ele>1713.935</ele>
        <time>2012-01-26T12:31:13Z</time>
      </trkpt>
      <trkpt lat="45.69063" lon="6.59599">
        <ele>1715.009</ele>
        <time>2012-01-26T12:31:23Z</time>
      </trkpt>
      <trkpt lat="45.69061" lon="6.59587">
        <ele>1716.041</ele>
        <time>2012-01-26T12:31:33Z</time>
      </trkpt>
      <trkpt lat="45.69058" lon="6.59577">
        <ele>1717.053</ele>
        <time>2012-01-26T12:31:43Z</time>
      </trkpt>
      <trkpt lat="45.69055" lon="6.59565">
        <ele>1718.467</ele>
        <time>2012-01-26T12:31:53Z</time>
      </trkpt>
      <trkpt lat="45.69052" lon="6.59553">
        <ele>1718.635</ele>
        <time>2012-01-26T12:32:03Z</time>
      </trkpt>
      <trkpt lat="45.6905" lon="6.59542">
        <ele>1719.424</ele>
        <time>2012-01-26T12:32:13Z</time>
      </trkpt>
      <trkpt lat="45.69046" lon="6.59531">
        <ele>1720.147</ele>
        <time>2012-01-26T12:32:23Z</time>
      </trkpt>
      <trkpt lat="45.69045" lon="6.59521">
        <ele>1721.221</ele>
        <time>2012-01-26T12:32:33Z</time>
      </trkpt>
      <trkpt lat="45.69043" lon="6.59511">
        <ele>1722.036</ele>
        <time>2012-01-26T12:32:43Z</time>
      </trkpt>
      <trkpt lat="45.6904" lon="6.595">
        <ele>1722.513</ele>
        <time>2012-01-26T12:32:53Z</time>
      </trkpt>
      <trkpt lat="45.69039" lon="6.5949">
        <ele>1724.305</ele>
        <time>2012-01-26T12:33:03Z</time>
      </trkpt>
      <trkpt lat="45.69038" lon="6.59486">
        <ele>1724.394</ele>
        <time>2012-01-26T12:33:13Z</time>
      </trkpt>
      <trkpt lat="45.69038" lon="6.59486">
        <ele>1724.457</ele>
        <time>2012-01-26T12:33:23Z</time>
      </trkpt>
      <trkpt lat="45.69038" lon="6.59486">
        <ele>1724.673</ele>
        <time>2012-01-26T12:33:33Z</time>
      </trkpt>
      <trkpt lat="45.69038" lon="6.59486">
        <ele>1724.465</ele>
        <time>2012-01-26T12:33:43Z</time>
      </trkpt>
      <trkpt lat="45.69038" lon="6.59486">
        <ele>1724.296</ele>
        <time>2012-01-26T12:33:53Z</time>
      </trkpt>
      <trkpt lat="45.69038" lon="6.59486">
        <ele>1724.641</ele>
        <time>2012-01-26T12:34:03Z</time>
      </trkpt>
      <trkpt lat="45.69038" lon="6.59485">
        <ele>1725.115</ele>
        <time>2012-01-26T12:34:13Z</time>
      </trkpt>
      <trkpt lat="45.69038" lon="6.59484">
        <ele>1725.415</ele>
        <time>2012-01-26T12:34:23Z</time>
      </trkpt>
      <trkpt lat="45.69038" lon="6.59485">
        <ele>1724.616</ele>
        <time>2012-01-26T12:34:33Z</time>
      </trkpt>
      <trkpt lat="45.69038" lon="6.59485">
        <ele>1725.168</ele>
        <time>2012-01-26T12:34:43Z</time>
      </trkpt>
      <trkpt lat="45.69039" lon="6.59485">
        <ele>1725.58</ele>
        <time>2012-01-26T12:34:53Z</time>
      </trkpt>
      <trkpt lat="45.69039" lon="6.59484">
        <ele>1725.537</ele>
        <time>2012-01-26T12:35:03Z</time>
      </trkpt>
      <trkpt lat="45.69039" lon="6.59484">
        <ele>1725.113</ele>
        <time>2012-01-26T12:35:13Z</time>
      </trkpt>
      <trkpt lat="45.69039" lon="6.59484">
        <ele>1725.976</ele>
        <time>2012-01-26T12:35:23Z</time>
      </trkpt>
      <trkpt lat="45.69039" lon="6.59484">
        <ele>1725.77</ele>
        <time>2012-01-26T12:35:33Z</time>
      </trkpt>
      <trkpt lat="45.69039" lon="6.59484">
        <ele>1725.499</ele>
        <time>2012-01-26T12:35:43Z</time>
      </trkpt>
      <trkpt lat="45.69039" lon="6.59484">
        <ele>1726.01</ele>
        <time>2012-01-26T12:35:53Z</time>
      </trkpt>
      <trkpt lat="45.69039" lon="6.59484">
        <ele>1725.663</ele>
        <time>2012-01-26T12:36:03Z</time>
      </trkpt>
      <trkpt lat="45.69039" lon="6.59484">
        <ele>1725.582</ele>
        <time>2012-01-26T12:36:13Z</time>
      </trkpt>
      <trkpt lat="45.69039" lon="6.59484">
        <ele>1725.668</ele>
        <time>2012-01-26T12:36:23Z</time>
      </trkpt>
      <trkpt lat="45.69039" lon="6.59484">
        <ele>1725.992</ele>
        <time>2012-01-26T12:36:33Z</time>
      </trkpt>
      <trkpt lat="45.6904" lon="6.5949">
        <ele>1725.867</ele>
        <time>2012-01-26T12:36:43Z</time>
      </trkpt>
      <trkpt lat="45.69041" lon="6.59501">
        <ele>1724.319</ele>
        <time>2012-01-26T12:36:53Z</time>
      </trkpt>
      <trkpt lat="45.69035" lon="6.59513">
        <ele>1719.554</ele>
        <time>2012-01-26T12:37:03Z</time>
      </trkpt>
      <trkpt lat="45.69025" lon="6.59524">
        <ele>1714.137</ele>
        <time>2012-01-26T12:37:13Z</time>
      </trkpt>
      <trkpt lat="45.69016" lon="6.59534">
        <ele>1710.295</ele>
        <time>2012-01-26T12:37:23Z</time>
      </trkpt>
      <trkpt lat="45.69009" lon="6.59544">
        <ele>1706.535</ele>
        <time>2012-01-26T12:37:33Z</time>
      </trkpt>
      <trkpt lat="45.69002" lon="6.59552">
        <ele>1702.884</ele>
        <time>2012-01-26T12:37:43Z</time>
      </trkpt>
      <trkpt lat="45.68992" lon="6.59547">
        <ele>1699.781</ele>
        <time>2012-01-26T12:37:53Z</time>
      </trkpt>
      <trkpt lat="45.68983" lon="6.59544">
        <ele>1697.318</ele>
        <time>2012-01-26T12:38:03Z</time>
      </trkpt>
      <trkpt lat="45.68973" lon="6.59545">
        <ele>1693.051</ele>
        <time>2012-01-26T12:38:13Z</time>
      </trkpt>
      <trkpt lat="45.68965" lon="6.59552">
        <ele>1688.442</ele>
        <time>2012-01-26T12:38:23Z</time>
      </trkpt>
      <trkpt lat="45.68956" lon="6.5955">
        <ele>1685.774</ele>
        <time>2012-01-26T12:38:33Z</time>
      </trkpt>
      <trkpt lat="45.68947" lon="6.59551">
        <ele>1682.899</ele>
        <time>2012-01-26T12:38:43Z</time>
      </trkpt>
      <trkpt lat="45.68946" lon="6.59552">
        <ele>1683.431</ele>
        <time>2012-01-26T12:38:53Z</time>
      </trkpt>
      <trkpt lat="45.68946" lon="6.59552">
        <ele>1683.423</ele>
        <time>2012-01-26T12:39:03Z</time>
      </trkpt>
      <trkpt lat="45.68946" lon="6.59552">
        <ele>1683.289</ele>
        <time>2012-01-26T12:39:13Z</time>
      </trkpt>
      <trkpt lat="45.68946" lon="6.59552">
        <ele>1683.329</ele>
        <time>2012-01-26T12:39:23Z</time>
      </trkpt>
      <trkpt lat="45.68946" lon="6.59552">
        <ele>1683.152</ele>
        <time>2012-01-26T12:39:33Z</time>
      </trkpt>
      <trkpt lat="45.68946" lon="6.59552">
        <ele>1683.046</ele>
        <time>2012-01-26T12:39:43Z</time>
      </trkpt>
      <trkpt lat="45.68946" lon="6.59552">
        <ele>1683.049</ele>
        <time>2012-01-26T12:39:53Z</time>
      </trkpt>
      <trkpt lat="45.68946" lon="6.59552">
        <ele>1682.924</ele>
        <time>2012-01-26T12:40:03Z</time>
      </trkpt>
      <trkpt lat="45.68946" lon="6.59552">
        <ele>1683.034</ele>
        <time>2012-01-26T12:40:13Z</time>
      </trkpt>
      <trkpt lat="45.68946" lon="6.59552">
        <ele>1682.79</ele>
        <time>2012-01-26T12:40:23Z</time>
      </trkpt>
      <trkpt lat="45.68946" lon="6.59552">
        <ele>1682.76</ele>
        <time>2012-01-26T12:40:33Z</time>
      </trkpt>
      <trkpt lat="45.68946" lon="6.59552">
        <ele>1682.978</ele>
        <time>2012-01-26T12:40:43Z</time>
      </trkpt>
      <trkpt lat="45.68946" lon="6.59552">
        <ele>1682.796</ele>
        <time>2012-01-26T12:40:53Z</time>
      </trkpt>
      <trkpt lat="45.68946" lon="6.59552">
        <ele>1682.456</ele>
        <time>2012-01-26T12:41:03Z</time>
      </trkpt>
      <trkpt lat="45.68946" lon="6.59552">
        <ele>1682.646</ele>
        <time>2012-01-26T12:41:13Z</time>
      </trkpt>
      <trkpt lat="45.68946" lon="6.59552">
        <ele>1682.641</ele>
        <time>2012-01-26T12:41:23Z</time>
      </trkpt>
      <trkpt lat="45.68946" lon="6.59552">
        <ele>1682.536</ele>
        <time>2012-01-26T12:41:33Z</time>
      </trkpt>
      <trkpt lat="45.68945" lon="6.59552">
        <ele>1682.348</ele>
        <time>2012-01-26T12:41:43Z</time>
      </trkpt>
      <trkpt lat="45.68946" lon="6.59552">
        <ele>1682.688</ele>
        <time>2012-01-26T12:41:53Z</time>
      </trkpt>
      <trkpt lat="45.68944" lon="6.59551">
        <ele>1682.629</ele>
        <time>2012-01-26T12:42:03Z</time>
      </trkpt>
      <trkpt lat="45.68944" lon="6.59551">
        <ele>1683.033</ele>
        <time>2012-01-26T12:42:13Z</time>
      </trkpt>
      <trkpt lat="45.68942" lon="6.59551">
        <ele>1682.798</ele>
        <time>2012-01-26T12:42:23Z</time>
      </trkpt>
      <trkpt lat="45.68939" lon="6.59545">
        <ele>1681.579</ele>
        <time>2012-01-26T12:42:33Z</time>
      </trkpt>
      <trkpt lat="45.68936" lon="6.59542">
        <ele>1681.38</ele>
        <time>2012-01-26T12:42:43Z</time>
      </trkpt>
      <trkpt lat="45.68928" lon="6.59533">
        <ele>1680.921</ele>
        <time>2012-01-26T12:42:53Z</time>
      </trkpt>
      <trkpt lat="45.68922" lon="6.59526">
        <ele>1680.022</ele>
        <time>2012-01-26T12:43:03Z</time>
      </trkpt>
      <trkpt lat="45.68919" lon="6.59514">
        <ele>1678.793</ele>
        <time>2012-01-26T12:43:13Z</time>
      </trkpt>
      <trkpt lat="45.68919" lon="6.59503">
        <ele>1677.575</ele>
        <time>2012-01-26T12:43:23Z</time>
      </trkpt>
      <trkpt lat="45.68923" lon="6.59499">
        <ele>1676.918</ele>
        <time>2012-01-26T12:43:33Z</time>
      </trkpt>
      <trkpt lat="45.68922" lon="6.59498">
        <ele>1676.528</ele>
        <time>2012-01-26T12:43:43Z</time>
      </trkpt>
      <trkpt lat="45.68922" lon="6.59498">
        <ele>1676.059</ele>
        <time>2012-01-26T12:43:53Z</time>
      </trkpt>
      <trkpt lat="45.68923" lon="6.59496">
        <ele>1675.832</ele>
        <time>2012-01-26T12:44:03Z</time>
      </trkpt>
      <trkpt lat="45.68925" lon="6.59488">
        <ele>1675.655</ele>
        <time>2012-01-26T12:44:13Z</time>
      </trkpt>
      <trkpt lat="45.68929" lon="6.59477">
        <ele>1674.321</ele>
        <time>2012-01-26T12:44:23Z</time>
      </trkpt>
      <trkpt lat="45.68934" lon="6.59467">
        <ele>1673.009</ele>
        <time>2012-01-26T12:44:33Z</time>
      </trkpt>
      <trkpt lat="45.68935" lon="6.59456">
        <ele>1672.417</ele>
        <time>2012-01-26T12:44:43Z</time>
      </trkpt>
      <trkpt lat="45.68936" lon="6.59448">
        <ele>1672.169</ele>
        <time>2012-01-26T12:44:53Z</time>
      </trkpt>
      <trkpt lat="45.68937" lon="6.59435">
        <ele>1670.747</ele>
        <time>2012-01-26T12:45:03Z</time>
      </trkpt>
      <trkpt lat="45.68937" lon="6.59422">
        <ele>1669.853</ele>
        <time>2012-01-26T12:45:13Z</time>
      </trkpt>
      <trkpt lat="45.68935" lon="6.59409">
        <ele>1667.549</ele>
        <time>2012-01-26T12:45:23Z</time>
      </trkpt>
      <trkpt lat="45.68933" lon="6.59396">
        <ele>1666.785</ele>
        <time>2012-01-26T12:45:33Z</time>
      </trkpt>
      <trkpt lat="45.68931" lon="6.59382">
        <ele>1665.509</ele>
        <time>2012-01-26T12:45:43Z</time>
      </trkpt>
      <trkpt lat="45.68927" lon="6.59369">
        <ele>1664.649</ele>
        <time>2012-01-26T12:45:53Z</time>
      </trkpt>
      <trkpt lat="45.68922" lon="6.59356">
        <ele>1663.207</ele>
        <time>2012-01-26T12:46:03Z</time>
      </trkpt>
      <trkpt lat="45.68918" lon="6.59343">
        <ele>1662.375</ele>
        <time>2012-01-26T12:46:13Z</time>
      </trkpt>
      <trkpt lat="45.68916" lon="6.59329">
        <ele>1661.418</ele>
        <time>2012-01-26T12:46:23Z</time>
      </trkpt>
      <trkpt lat="45.68915" lon="6.59317">
        <ele>1660.476</ele>
        <time>2012-01-26T12:46:33Z</time>
      </trkpt>
      <trkpt lat="45.68915" lon="6.59303">
        <ele>1659.632</ele>
        <time>2012-01-26T12:46:43Z</time>
      </trkpt>
      <trkpt lat="45.68915" lon="6.59291">
        <ele>1658.753</ele>
        <time>2012-01-26T12:46:53Z</time>
      </trkpt>
      <trkpt lat="45.68915" lon="6.59279">
        <ele>1657.94</ele>
        <time>2012-01-26T12:47:03Z</time>
      </trkpt>
      <trkpt lat="45.68915" lon="6.59267">
        <ele>1657.136</ele>
        <time>2012-01-26T12:47:13Z</time>
      </trkpt>
      <trkpt lat="45.68915" lon="6.5926">
        <ele>1656.726</ele>
        <time>2012-01-26T12:47:23Z</time>
      </trkpt>
      <trkpt lat="45.68911" lon="6.59247">
        <ele>1655.974</ele>
        <time>2012-01-26T12:47:33Z</time>
      </trkpt>
      <trkpt lat="45.68909" lon="6.59235">
        <ele>1655.268</ele>
        <time>2012-01-26T12:47:43Z</time>
      </trkpt>
      <trkpt lat="45.68905" lon="6.59223">
        <ele>1653.728</ele>
        <time>2012-01-26T12:47:53Z</time>
      </trkpt>
      <trkpt lat="45.68902" lon="6.59211">
        <ele>1652.811</ele>
        <time>2012-01-26T12:48:03Z</time>
      </trkpt>
      <trkpt lat="45.68902" lon="6.59197">
        <ele>1652.653</ele>
        <time>2012-01-26T12:48:13Z</time>
      </trkpt>
      <trkpt lat="45.68903" lon="6.59183">
        <ele>1651.434</ele>
        <time>2012-01-26T12:48:23Z</time>
      </trkpt>
      <trkpt lat="45.68903" lon="6.59168">
        <ele>1650.214</ele>
        <time>2012-01-26T12:48:33Z</time>
      </trkpt>
      <trkpt lat="45.68904" lon="6.59153">
        <ele>1649.807</ele>
        <time>2012-01-26T12:48:43Z</time>
      </trkpt>
      <trkpt lat="45.68904" lon="6.59142">
        <ele>1648.307</ele>
        <time>2012-01-26T12:48:53Z</time>
      </trkpt>
      <trkpt lat="45.68905" lon="6.59129">
        <ele>1647.867</ele>
        <time>2012-01-26T12:49:03Z</time>
      </trkpt>
      <trkpt lat="45.68904" lon="6.59126">
        <ele>1647.248</ele>
        <time>2012-01-26T12:49:13Z</time>
      </trkpt>
      <trkpt lat="45.68905" lon="6.59116">
        <ele>1646.961</ele>
        <time>2012-01-26T12:49:23Z</time>
      </trkpt>
      <trkpt lat="45.68905" lon="6.59116">
        <ele>1646.679</ele>
        <time>2012-01-26T12:49:33Z</time>
      </trkpt>
      <trkpt lat="45.68904" lon="6.59116">
        <ele>1646.563</ele>
        <time>2012-01-26T12:49:43Z</time>
      </trkpt>
      <trkpt lat="45.68904" lon="6.59116">
        <ele>1646.999</ele>
        <time>2012-01-26T12:49:53Z</time>
      </trkpt>
      <trkpt lat="45.68905" lon="6.59116">
        <ele>1646.911</ele>
        <time>2012-01-26T12:50:03Z</time>
      </trkpt>
      <trkpt lat="45.68904" lon="6.59116">
        <ele>1646.606</ele>
        <time>2012-01-26T12:50:13Z</time>
      </trkpt>
      <trkpt lat="45.68904" lon="6.59115">
        <ele>1646.723</ele>
        <time>2012-01-26T12:50:23Z</time>
      </trkpt>
      <trkpt lat="45.68904" lon="6.59115">
        <ele>1646.876</ele>
        <time>2012-01-26T12:50:33Z</time>
      </trkpt>
      <trkpt lat="45.68904" lon="6.59115">
        <ele>1646.588</ele>
        <time>2012-01-26T12:50:43Z</time>
      </trkpt>
      <trkpt lat="45.68904" lon="6.59116">
        <ele>1646.681</ele>
        <time>2012-01-26T12:50:53Z</time>
      </trkpt>
      <trkpt lat="45.68904" lon="6.59116">
        <ele>1647.191</ele>
        <time>2012-01-26T12:51:03Z</time>
      </trkpt>
      <trkpt lat="45.68904" lon="6.59116">
        <ele>1647.113</ele>
        <time>2012-01-26T12:51:13Z</time>
      </trkpt>
      <trkpt lat="45.68904" lon="6.59116">
        <ele>1646.95</ele>
        <time>2012-01-26T12:51:23Z</time>
      </trkpt>
      <trkpt lat="45.68904" lon="6.59116">
        <ele>1646.866</ele>
        <time>2012-01-26T12:51:33Z</time>
      </trkpt>
      <trkpt lat="45.68904" lon="6.59116">
        <ele>1646.959</ele>
        <time>2012-01-26T12:51:43Z</time>
      </trkpt>
      <trkpt lat="45.68904" lon="6.59116">
        <ele>1647.551</ele>
        <time>2012-01-26T12:51:53Z</time>
      </trkpt>
      <trkpt lat="45.68904" lon="6.59116">
        <ele>1647.571</ele>
        <time>2012-01-26T12:52:03Z</time>
      </trkpt>
      <trkpt lat="45.68904" lon="6.59116">
        <ele>1646.97</ele>
        <time>2012-01-26T12:52:13Z</time>
      </trkpt>
      <trkpt lat="45.68904" lon="6.59116">
        <ele>1647.129</ele>
        <time>2012-01-26T12:52:23Z</time>
      </trkpt>
      <trkpt lat="45.68904" lon="6.59116">
        <ele>1647.411</ele>
        <time>2012-01-26T12:52:33Z</time>
      </trkpt>
      <trkpt lat="45.68904" lon="6.59116">
        <ele>1647.288</ele>
        <time>2012-01-26T12:52:43Z</time>
      </trkpt>
      <trkpt lat="45.68904" lon="6.59116">
        <ele>1647.232</ele>
        <time>2012-01-26T12:52:53Z</time>
      </trkpt>
      <trkpt lat="45.68904" lon="6.59116">
        <ele>1647.307</ele>
        <time>2012-01-26T12:53:03Z</time>
      </trkpt>
      <trkpt lat="45.68904" lon="6.59116">
        <ele>1647.163</ele>
        <time>2012-01-26T12:53:13Z</time>
      </trkpt>
      <trkpt lat="45.68904" lon="6.59116">
        <ele>1647.243</ele>
        <time>2012-01-26T12:53:23Z</time>
      </trkpt>
      <trkpt lat="45.68904" lon="6.59116">
        <ele>1647.647</ele>
        <time>2012-01-26T12:53:33Z</time>
      </trkpt>
      <trkpt lat="45.68904" lon="6.59116">
        <ele>1647.701</ele>
        <time>2012-01-26T12:53:43Z</time>
      </trkpt>
      <trkpt lat="45.68904" lon="6.59116">
        <ele>1647.496</ele>
        <time>2012-01-26T12:53:53Z</time>
      </trkpt>
      <trkpt lat="45.68904" lon="6.59116">
        <ele>1647.615</ele>
        <time>2012-01-26T12:54:03Z</time>
      </trkpt>
      <trkpt lat="45.68904" lon="6.5911">
        <ele>1647.49</ele>
        <time>2012-01-26T12:54:13Z</time>
      </trkpt>
      <trkpt lat="45.68905" lon="6.59097">
        <ele>1646.356</ele>
        <time>2012-01-26T12:54:23Z</time>
      </trkpt>
      <trkpt lat="45.68907" lon="6.59086">
        <ele>1645.529</ele>
        <time>2012-01-26T12:54:33Z</time>
      </trkpt>
      <trkpt lat="45.68908" lon="6.59073">
        <ele>1644.469</ele>
        <time>2012-01-26T12:54:43Z</time>
      </trkpt>
      <trkpt lat="45.68906" lon="6.59059">
        <ele>1643.227</ele>
        <time>2012-01-26T12:54:53Z</time>
      </trkpt>
      <trkpt lat="45.68908" lon="6.59047">
        <ele>1642.241</ele>
        <time>2012-01-26T12:55:03Z</time>
      </trkpt>
      <trkpt lat="45.6891" lon="6.59033">
        <ele>1641.439</ele>
        <time>2012-01-26T12:55:13Z</time>
      </trkpt>
      <trkpt lat="45.68909" lon="6.5902">
        <ele>1640.702</ele>
        <time>2012-01-26T12:55:23Z</time>
      </trkpt>
      <trkpt lat="45.68908" lon="6.59008">
        <ele>1639.462</ele>
        <time>2012-01-26T12:55:33Z</time>
      </trkpt>
      <trkpt lat="45.68906" lon="6.58996">
        <ele>1638.22</ele>
        <time>2012-01-26T12:55:43Z</time>
      </trkpt>
      <trkpt lat="45.68911" lon="6.58985">
        <ele>1637.485</ele>
        <time>2012-01-26T12:55:53Z</time>
      </trkpt>
      <trkpt lat="45.68914" lon="6.58974">
        <ele>1636.63</ele>
        <time>2012-01-26T12:56:03Z</time>
      </trkpt>
      <trkpt lat="45.68916" lon="6.58961">
        <ele>1636.175</ele>
        <time>2012-01-26T12:56:13Z</time>
      </trkpt>
      <trkpt lat="45.6892" lon="6.58949">
        <ele>1635.066</ele>
        <time>2012-01-26T12:56:23Z</time>
      </trkpt>
      <trkpt lat="45.68925" lon="6.58937">
        <ele>1633.621</ele>
        <time>2012-01-26T12:56:33Z</time>
      </trkpt>
      <trkpt lat="45.68927" lon="6.58925">
        <ele>1632.759</ele>
        <time>2012-01-26T12:56:43Z</time>
      </trkpt>
      <trkpt lat="45.68931" lon="6.58912">
        <ele>1631.593</ele>
        <time>2012-01-26T12:56:53Z</time>
      </trkpt>
      <trkpt lat="45.68933" lon="6.58899">
        <ele>1630.527</ele>
        <time>2012-01-26T12:57:03Z</time>
      </trkpt>
      <trkpt lat="45.68937" lon="6.58887">
        <ele>1629.863</ele>
        <time>2012-01-26T12:57:13Z</time>
      </trkpt>
      <trkpt lat="45.68939" lon="6.58874">
        <ele>1628.444</ele>
        <time>2012-01-26T12:57:23Z</time>
      </trkpt>
      <trkpt lat="45.68942" lon="6.58861">
        <ele>1627.677</ele>
        <time>2012-01-26T12:57:33Z</time>
      </trkpt>
      <trkpt lat="45.6894" lon="6.58847">
        <ele>1626.708</ele>
        <time>2012-01-26T12:57:43Z</time>
      </trkpt>
      <trkpt lat="45.68945" lon="6.58834">
        <ele>1625.884</ele>
        <time>2012-01-26T12:57:53Z</time>
      </trkpt>
      <trkpt lat="45.68948" lon="6.58819">
        <ele>1624.417</ele>
        <time>2012-01-26T12:58:03Z</time>
      </trkpt>
      <trkpt lat="45.68957" lon="6.58813">
        <ele>1623.641</ele>
        <time>2012-01-26T12:58:13Z</time>
      </trkpt>
      <trkpt lat="45.6896" lon="6.58799">
        <ele>1622.706</ele>
        <time>2012-01-26T12:58:23Z</time>
      </trkpt>
      <trkpt lat="45.68963" lon="6.58789">
        <ele>1622.525</ele>
        <time>2012-01-26T12:58:33Z</time>
      </trkpt>
      <trkpt lat="45.68963" lon="6.58774">
        <ele>1620.514</ele>
        <time>2012-01-26T12:58:43Z</time>
      </trkpt>
      <trkpt lat="45.68962" lon="6.58762">
        <ele>1619.661</ele>
        <time>2012-01-26T12:58:53Z</time>
      </trkpt>
      <trkpt lat="45.68963" lon="6.58747">
        <ele>1618.285</ele>
        <time>2012-01-26T12:59:03Z</time>
      </trkpt>
      <trkpt lat="45.68965" lon="6.58732">
        <ele>1617.426</ele>
        <time>2012-01-26T12:59:13Z</time>
      </trkpt>
      <trkpt lat="45.68966" lon="6.58716">
        <ele>1616.014</ele>
        <time>2012-01-26T12:59:23Z</time>
      </trkpt>
      <trkpt lat="45.68966" lon="6.58701">
        <ele>1614.951</ele>
        <time>2012-01-26T12:59:33Z</time>
      </trkpt>
      <trkpt lat="45.68965" lon="6.58687">
        <ele>1613.653</ele>
        <time>2012-01-26T12:59:43Z</time>
      </trkpt>
      <trkpt lat="45.68964" lon="6.58672">
        <ele>1612.931</ele>
        <time>2012-01-26T12:59:53Z</time>
      </trkpt>
      <trkpt lat="45.68962" lon="6.58658">
        <ele>1611.862</ele>
        <time>2012-01-26T13:00:03Z</time>
      </trkpt>
      <trkpt lat="45.6896" lon="6.58643">
        <ele>1610.411</ele>
        <time>2012-01-26T13:00:13Z</time>
      </trkpt>
      <trkpt lat="45.68957" lon="6.5863">
        <ele>1609.058</ele>
        <time>2012-01-26T13:00:23Z</time>
      </trkpt>
      <trkpt lat="45.68955" lon="6.58617">
        <ele>1608.48</ele>
        <time>2012-01-26T13:00:33Z</time>
      </trkpt>
      <trkpt lat="45.68951" lon="6.58602">
        <ele>1606.924</ele>
        <time>2012-01-26T13:00:43Z</time>
      </trkpt>
      <trkpt lat="45.68951" lon="6.58589">
        <ele>1606.029</ele>
        <time>2012-01-26T13:00:53Z</time>
      </trkpt>
      <trkpt lat="45.68955" lon="6.58575">
        <ele>1604.751</ele>
        <time>2012-01-26T13:01:03Z</time>
      </trkpt>
      <trkpt lat="45.68962" lon="6.58563">
        <ele>1603.722</ele>
        <time>2012-01-26T13:01:13Z</time>
      </trkpt>
      <trkpt lat="45.68965" lon="6.5855">
        <ele>1602.772</ele>
        <time>2012-01-26T13:01:23Z</time>
      </trkpt>
      <trkpt lat="45.68969" lon="6.58538">
        <ele>1601.847</ele>
        <time>2012-01-26T13:01:33Z</time>
      </trkpt>
      <trkpt lat="45.68972" lon="6.58525">
        <ele>1601.458</ele>
        <time>2012-01-26T13:01:43Z</time>
      </trkpt>
      <trkpt lat="45.68978" lon="6.58513">
        <ele>1600.478</ele>
        <time>2012-01-26T13:01:53Z</time>
      </trkpt>
      <trkpt lat="45.68982" lon="6.58501">
        <ele>1599.526</ele>
        <time>2012-01-26T13:02:03Z</time>
      </trkpt>
      <trkpt lat="45.68985" lon="6.5849">
        <ele>1598.804</ele>
        <time>2012-01-26T13:02:13Z</time>
      </trkpt>
      <trkpt lat="45.68988" lon="6.58477">
        <ele>1597.929</ele>
        <time>2012-01-26T13:02:23Z</time>
      </trkpt>
      <trkpt lat="45.68989" lon="6.58462">
        <ele>1597.159</ele>
        <time>2012-01-26T13:02:33Z</time>
      </trkpt>
      <trkpt lat="45.68991" lon="6.58455">
        <ele>1597.036</ele>
        <time>2012-01-26T13:02:43Z</time>
      </trkpt>
      <trkpt lat="45.68991" lon="6.58454">
        <ele>1597.107</ele>
        <time>2012-01-26T13:02:53Z</time>
      </trkpt>
      <trkpt lat="45.68991" lon="6.58454">
        <ele>1596.799</ele>
        <time>2012-01-26T13:03:03Z</time>
      </trkpt>
      <trkpt lat="45.68994" lon="6.58444">
        <ele>1596.283</ele>
        <time>2012-01-26T13:03:13Z</time>
      </trkpt>
      <trkpt lat="45.68993" lon="6.58433">
        <ele>1595.465</ele>
        <time>2012-01-26T13:03:23Z</time>
      </trkpt>
      <trkpt lat="45.68994" lon="6.5842">
        <ele>1594.211</ele>
        <time>2012-01-26T13:03:33Z</time>
      </trkpt>
      <trkpt lat="45.68997" lon="6.58409">
        <ele>1593.283</ele>
        <time>2012-01-26T13:03:43Z</time>
      </trkpt>
      <trkpt lat="45.68998" lon="6.58394">
        <ele>1591.62</ele>
        <time>2012-01-26T13:03:53Z</time>
      </trkpt>
      <trkpt lat="45.69" lon="6.58387">
        <ele>1590.816</ele>
        <time>2012-01-26T13:04:03Z</time>
      </trkpt>
      <trkpt lat="45.69003" lon="6.58376">
        <ele>1590.13</ele>
        <time>2012-01-26T13:04:13Z</time>
      </trkpt>
      <trkpt lat="45.69006" lon="6.58363">
        <ele>1589.068</ele>
        <time>2012-01-26T13:04:23Z</time>
      </trkpt>
      <trkpt lat="45.69011" lon="6.58353">
        <ele>1587.626</ele>
        <time>2012-01-26T13:04:33Z</time>
      </trkpt>
      <trkpt lat="45.69018" lon="6.58345">
        <ele>1586.768</ele>
        <time>2012-01-26T13:04:43Z</time>
      </trkpt>
      <trkpt lat="45.69024" lon="6.58336">
        <ele>1586.252</ele>
        <time>2012-01-26T13:04:53Z</time>
      </trkpt>
      <trkpt lat="45.6903" lon="6.58321">
        <ele>1585.816</ele>
        <time>2012-01-26T13:05:03Z</time>
      </trkpt>
      <trkpt lat="45.69035" lon="6.58308">
        <ele>1584.11</ele>
        <time>2012-01-26T13:05:13Z</time>
      </trkpt>
      <trkpt lat="45.69039" lon="6.58298">
        <ele>1582.689</ele>
        <time>2012-01-26T13:05:23Z</time>
      </trkpt>
      <trkpt lat="45.69044" lon="6.58286">
        <ele>1581.725</ele>
        <time>2012-01-26T13:05:33Z</time>
      </trkpt>
      <trkpt lat="45.69048" lon="6.58273">
        <ele>1580.383</ele>
        <time>2012-01-26T13:05:43Z</time>
      </trkpt>
      <trkpt lat="45.6905" lon="6.58258">
        <ele>1579.199</ele>
        <time>2012-01-26T13:05:53Z</time>
      </trkpt>
      <trkpt lat="45.69051" lon="6.58247">
        <ele>1577.949</ele>
        <time>2012-01-26T13:06:03Z</time>
      </trkpt>
      <trkpt lat="45.69051" lon="6.58242">
        <ele>1578.028</ele>
        <time>2012-01-26T13:06:13Z</time>
      </trkpt>
      <trkpt lat="45.69051" lon="6.58243">
        <ele>1577.56</ele>
        <time>2012-01-26T13:06:23Z</time>
      </trkpt>
      <trkpt lat="45.69051" lon="6.58243">
        <ele>1577.694</ele>
        <time>2012-01-26T13:06:33Z</time>
      </trkpt>
      <trkpt lat="45.6905" lon="6.58242">
        <ele>1578.079</ele>
        <time>2012-01-26T13:06:43Z</time>
      </trkpt>
      <trkpt lat="45.69049" lon="6.58241">
        <ele>1577.411</ele>
        <time>2012-01-26T13:06:53Z</time>
      </trkpt>
      <trkpt lat="45.69049" lon="6.58241">
        <ele>1578.115</ele>
        <time>2012-01-26T13:07:03Z</time>
      </trkpt>
      <trkpt lat="45.69049" lon="6.58241">
        <ele>1577.769</ele>
        <time>2012-01-26T13:07:13Z</time>
      </trkpt>
      <trkpt lat="45.69049" lon="6.58241">
        <ele>1577.135</ele>
        <time>2012-01-26T13:07:23Z</time>
      </trkpt>
      <trkpt lat="45.69049" lon="6.58241">
        <ele>1577.697</ele>
        <time>2012-01-26T13:07:33Z</time>
      </trkpt>
      <trkpt lat="45.69049" lon="6.5824">
        <ele>1577.797</ele>
        <time>2012-01-26T13:07:43Z</time>
      </trkpt>
      <trkpt lat="45.69049" lon="6.5824">
        <ele>1577.844</ele>
        <time>2012-01-26T13:07:53Z</time>
      </trkpt>
      <trkpt lat="45.69049" lon="6.5824">
        <ele>1577.962</ele>
        <time>2012-01-26T13:08:03Z</time>
      </trkpt>
      <trkpt lat="45.69049" lon="6.5824">
        <ele>1577.604</ele>
        <time>2012-01-26T13:08:13Z</time>
      </trkpt>
      <trkpt lat="45.69049" lon="6.5824">
        <ele>1578.137</ele>
        <time>2012-01-26T13:08:23Z</time>
      </trkpt>
      <trkpt lat="45.69049" lon="6.5824">
        <ele>1578.086</ele>
        <time>2012-01-26T13:08:33Z</time>
      </trkpt>
      <trkpt lat="45.69049" lon="6.5824">
        <ele>1578.063</ele>
        <time>2012-01-26T13:08:43Z</time>
      </trkpt>
      <trkpt lat="45.69049" lon="6.5824">
        <ele>1578.288</ele>
        <time>2012-01-26T13:08:53Z</time>
      </trkpt>
      <trkpt lat="45.69049" lon="6.58241">
        <ele>1578.255</ele>
        <time>2012-01-26T13:09:03Z</time>
      </trkpt>
      <trkpt lat="45.69049" lon="6.58241">
        <ele>1577.782</ele>
        <time>2012-01-26T13:09:13Z</time>
      </trkpt>
      <trkpt lat="45.69048" lon="6.58233">
        <ele>1577.405</ele>
        <time>2012-01-26T13:09:23Z</time>
      </trkpt>
      <trkpt lat="45.69046" lon="6.5822">
        <ele>1576.634</ele>
        <time>2012-01-26T13:09:33Z</time>
      </trkpt>
      <trkpt lat="45.69044" lon="6.58204">
        <ele>1575.195</ele>
        <time>2012-01-26T13:09:43Z</time>
      </trkpt>
      <trkpt lat="45.69043" lon="6.58191">
        <ele>1573.713</ele>
        <time>2012-01-26T13:09:53Z</time>
      </trkpt>
      <trkpt lat="45.69048" lon="6.58179">
        <ele>1572.064</ele>
        <time>2012-01-26T13:10:03Z</time>
      </trkpt>
      <trkpt lat="45.69054" lon="6.58168">
        <ele>1572.077</ele>
        <time>2012-01-26T13:10:13Z</time>
      </trkpt>
      <trkpt lat="45.69058" lon="6.58155">
        <ele>1570.772</ele>
        <time>2012-01-26T13:10:23Z</time>
      </trkpt>
      <trkpt lat="45.69062" lon="6.5814">
        <ele>1569.022</ele>
        <time>2012-01-26T13:10:33Z</time>
      </trkpt>
      <trkpt lat="45.69066" lon="6.58127">
        <ele>1567.831</ele>
        <time>2012-01-26T13:10:43Z</time>
      </trkpt>
      <trkpt lat="45.69072" lon="6.58117">
        <ele>1566.565</ele>
        <time>2012-01-26T13:10:53Z</time>
      </trkpt>
      <trkpt lat="45.69078" lon="6.58108">
        <ele>1565.073</ele>
        <time>2012-01-26T13:11:03Z</time>
      </trkpt>
      <trkpt lat="45.69084" lon="6.58097">
        <ele>1564.378</ele>
        <time>2012-01-26T13:11:13Z</time>
      </trkpt>
      <trkpt lat="45.69091" lon="6.58085">
        <ele>1563.199</ele>
        <time>2012-01-26T13:11:23Z</time>
      </trkpt>
      <trkpt lat="45.69099" lon="6.58075">
        <ele>1562.109</ele>
        <time>2012-01-26T13:11:33Z</time>
      </trkpt>
      <trkpt lat="45.69105" lon="6.58065">
        <ele>1561.152</ele>
        <time>2012-01-26T13:11:43Z</time>
      </trkpt>
      <trkpt lat="45.69113" lon="6.58055">
        <ele>1560.059</ele>
        <time>2012-01-26T13:11:53Z</time>
      </trkpt>
      <trkpt lat="45.69116" lon="6.58045">
        <ele>1558.896</ele>
        <time>2012-01-26T13:12:03Z</time>
      </trkpt>
      <trkpt lat="45.69107" lon="6.58044">
        <ele>1557.905</ele>
        <time>2012-01-26T13:12:13Z</time>
      </trkpt>
      <trkpt lat="45.691" lon="6.5805">
        <ele>1557.199</ele>
        <time>2012-01-26T13:12:23Z</time>
      </trkpt>
      <trkpt lat="45.69099" lon="6.58052">
        <ele>1556.957</ele>
        <time>2012-01-26T13:12:33Z</time>
      </trkpt>
      <trkpt lat="45.69101" lon="6.5805">
        <ele>1556.971</ele>
        <time>2012-01-26T13:12:43Z</time>
      </trkpt>
      <trkpt lat="45.69098" lon="6.58052">
        <ele>1556.796</ele>
        <time>2012-01-26T13:12:53Z</time>
      </trkpt>
      <trkpt lat="45.6909" lon="6.58061">
        <ele>1556.005</ele>
        <time>2012-01-26T13:13:03Z</time>
      </trkpt>
      <trkpt lat="45.69084" lon="6.58064">
        <ele>1555.194</ele>
        <time>2012-01-26T13:13:13Z</time>
      </trkpt>
      <trkpt lat="45.69076" lon="6.58073">
        <ele>1554.71</ele>
        <time>2012-01-26T13:13:23Z</time>
      </trkpt>
      <trkpt lat="45.69068" lon="6.58081">
        <ele>1553.378</ele>
        <time>2012-01-26T13:13:33Z</time>
      </trkpt>
      <trkpt lat="45.6906" lon="6.5809">
        <ele>1551.997</ele>
        <time>2012-01-26T13:13:43Z</time>
      </trkpt>
      <trkpt lat="45.69055" lon="6.58101">
        <ele>1551.104</ele>
        <time>2012-01-26T13:13:53Z</time>
      </trkpt>
      <trkpt lat="45.69054" lon="6.58101">
        <ele>1550.921</ele>
        <time>2012-01-26T13:14:03Z</time>
      </trkpt>
      <trkpt lat="45.69048" lon="6.58112">
        <ele>1549.833</ele>
        <time>2012-01-26T13:14:13Z</time>
      </trkpt>
      <trkpt lat="45.69043" lon="6.58123">
        <ele>1548.939</ele>
        <time>2012-01-26T13:14:23Z</time>
      </trkpt>
      <trkpt lat="45.69034" lon="6.58135">
        <ele>1547.727</ele>
        <time>2012-01-26T13:14:33Z</time>
      </trkpt>
      <trkpt lat="45.69029" lon="6.58145">
        <ele>1545.881</ele>
        <time>2012-01-26T13:14:43Z</time>
      </trkpt>
      <trkpt lat="45.69023" lon="6.58151">
        <ele>1544.826</ele>
        <time>2012-01-26T13:14:53Z</time>
      </trkpt>
      <trkpt lat="45.69016" lon="6.5816">
        <ele>1543.823</ele>
        <time>2012-01-26T13:15:03Z</time>
      </trkpt>
      <trkpt lat="45.6901" lon="6.58169">
        <ele>1542.9</ele>
        <time>2012-01-26T13:15:13Z</time>
      </trkpt>
      <trkpt lat="45.69007" lon="6.58182">
        <ele>1541.212</ele>
        <time>2012-01-26T13:15:23Z</time>
      </trkpt>
      <trkpt lat="45.69004" lon="6.58192">
        <ele>1540.068</ele>
        <time>2012-01-26T13:15:33Z</time>
      </trkpt>
      <trkpt lat="45.69002" lon="6.58204">
        <ele>1539.078</ele>
        <time>2012-01-26T13:15:43Z</time>
      </trkpt>
      <trkpt lat="45.68999" lon="6.58216">
        <ele>1537.912</ele>
        <time>2012-01-26T13:15:53Z</time>
      </trkpt>
      <trkpt lat="45.68995" lon="6.5823">
        <ele>1536.317</ele>
        <time>2012-01-26T13:16:03Z</time>
      </trkpt>
      <trkpt lat="45.68991" lon="6.58243">
        <ele>1535.332</ele>
        <time>2012-01-26T13:16:13Z</time>
      </trkpt>
      <trkpt lat="45.68988" lon="6.58259">
        <ele>1534.254</ele>
        <time>2012-01-26T13:16:23Z</time>
      </trkpt>
      <trkpt lat="45.68982" lon="6.58269">
        <ele>1533.29</ele>
        <time>2012-01-26T13:16:33Z</time>
      </trkpt>
      <trkpt lat="45.68975" lon="6.58281">
        <ele>1531.298</ele>
        <time>2012-01-26T13:16:43Z</time>
      </trkpt>
      <trkpt lat="45.68971" lon="6.5829">
        <ele>1530.967</ele>
        <time>2012-01-26T13:16:53Z</time>
      </trkpt>
      <trkpt lat="45.68961" lon="6.58291">
        <ele>1530.1</ele>
        <time>2012-01-26T13:17:03Z</time>
      </trkpt>
      <trkpt lat="45.68948" lon="6.58292">
        <ele>1529.408</ele>
        <time>2012-01-26T13:17:13Z</time>
      </trkpt>
      <trkpt lat="45.68938" lon="6.58294">
        <ele>1527.984</ele>
        <time>2012-01-26T13:17:23Z</time>
      </trkpt>
      <trkpt lat="45.68927" lon="6.58296">
        <ele>1526.908</ele>
        <time>2012-01-26T13:17:33Z</time>
      </trkpt>
      <trkpt lat="45.68919" lon="6.583">
        <ele>1525.633</ele>
        <time>2012-01-26T13:17:43Z</time>
      </trkpt>
      <trkpt lat="45.6891" lon="6.58306">
        <ele>1524.788</ele>
        <time>2012-01-26T13:17:53Z</time>
      </trkpt>
      <trkpt lat="45.68904" lon="6.58312">
        <ele>1523.314</ele>
        <time>2012-01-26T13:18:03Z</time>
      </trkpt>
      <trkpt lat="45.68903" lon="6.58312">
        <ele>1522.797</ele>
        <time>2012-01-26T13:18:13Z</time>
      </trkpt>
      <trkpt lat="45.68904" lon="6.58316">
        <ele>1522.438</ele>
        <time>2012-01-26T13:18:23Z</time>
      </trkpt>
      <trkpt lat="45.68899" lon="6.58323">
        <ele>1522.239</ele>
        <time>2012-01-26T13:18:33Z</time>
      </trkpt>
      <trkpt lat="45.68894" lon="6.58337">
        <ele>1520.722</ele>
        <time>2012-01-26T13:18:43Z</time>
      </trkpt>
      <trkpt lat="45.6889" lon="6.58352">
        <ele>1519.569</ele>
        <time>2012-01-26T13:18:53Z</time>
      </trkpt>
      <trkpt lat="45.68883" lon="6.58365">
        <ele>1518.109</ele>
        <time>2012-01-26T13:19:03Z</time>
      </trkpt>
      <trkpt lat="45.68879" lon="6.58377">
        <ele>1517.355</ele>
        <time>2012-01-26T13:19:13Z</time>
      </trkpt>
      <trkpt lat="45.68874" lon="6.5839">
        <ele>1515.843</ele>
        <time>2012-01-26T13:19:23Z</time>
      </trkpt>
      <trkpt lat="45.68869" lon="6.58399">
        <ele>1515.42</ele>
        <time>2012-01-26T13:19:33Z</time>
      </trkpt>
      <trkpt lat="45.68863" lon="6.58412">
        <ele>1514.078</ele>
        <time>2012-01-26T13:19:43Z</time>
      </trkpt>
      <trkpt lat="45.68857" lon="6.58425">
        <ele>1513.332</ele>
        <time>2012-01-26T13:19:53Z</time>
      </trkpt>
      <trkpt lat="45.6885" lon="6.58435">
        <ele>1512.311</ele>
        <time>2012-01-26T13:20:03Z</time>
      </trkpt>
      <trkpt lat="45.68847" lon="6.58447">
        <ele>1511.5</ele>
        <time>2012-01-26T13:20:13Z</time>
      </trkpt>
      <trkpt lat="45.68845" lon="6.58454">
        <ele>1510.223</ele>
        <time>2012-01-26T13:20:23Z</time>
      </trkpt>
      <trkpt lat="45.68841" lon="6.58468">
        <ele>1509.152</ele>
        <time>2012-01-26T13:20:33Z</time>
      </trkpt>
      <trkpt lat="45.6884" lon="6.58481">
        <ele>1508.169</ele>
        <time>2012-01-26T13:20:43Z</time>
      </trkpt>
      <trkpt lat="45.68834" lon="6.58493">
        <ele>1506.936</ele>
        <time>2012-01-26T13:20:53Z</time>
      </trkpt>
      <trkpt lat="45.68831" lon="6.5851">
        <ele>1505.675</ele>
        <time>2012-01-26T13:21:03Z</time>
      </trkpt>
      <trkpt lat="45.68828" lon="6.58523">
        <ele>1504.274</ele>
        <time>2012-01-26T13:21:13Z</time>
      </trkpt>
      <trkpt lat="45.68824" lon="6.58536">
        <ele>1503.44</ele>
        <time>2012-01-26T13:21:23Z</time>
      </trkpt>
      <trkpt lat="45.68823" lon="6.58552">
        <ele>1502.635</ele>
        <time>2012-01-26T13:21:33Z</time>
      </trkpt>
      <trkpt lat="45.68825" lon="6.58565">
        <ele>1501.719</ele>
        <time>2012-01-26T13:21:43Z</time>
      </trkpt>
      <trkpt lat="45.68828" lon="6.58574">
        <ele>1501.071</ele>
        <time>2012-01-26T13:21:53Z</time>
      </trkpt>
      <trkpt lat="45.68827" lon="6.58587">
        <ele>1499.436</ele>
        <time>2012-01-26T13:22:03Z</time>
      </trkpt>
      <trkpt lat="45.68826" lon="6.586">
        <ele>1498.609</ele>
        <time>2012-01-26T13:22:13Z</time>
      </trkpt>
      <trkpt lat="45.68824" lon="6.58616">
        <ele>1497.591</ele>
        <time>2012-01-26T13:22:23Z</time>
      </trkpt>
      <trkpt lat="45.68821" lon="6.58633">
        <ele>1496.49</ele>
        <time>2012-01-26T13:22:33Z</time>
      </trkpt>
      <trkpt lat="45.68818" lon="6.58645">
        <ele>1495.594</ele>
        <time>2012-01-26T13:22:43Z</time>
      </trkpt>
      <trkpt lat="45.68813" lon="6.58662">
        <ele>1495.249</ele>
        <time>2012-01-26T13:22:53Z</time>
      </trkpt>
      <trkpt lat="45.68809" lon="6.58665">
        <ele>1494.468</ele>
        <time>2012-01-26T13:23:03Z</time>
      </trkpt>
      <trkpt lat="45.68805" lon="6.58655">
        <ele>1492.507</ele>
        <time>2012-01-26T13:23:13Z</time>
      </trkpt>
      <trkpt lat="45.68807" lon="6.58649">
        <ele>1492.086</ele>
        <time>2012-01-26T13:23:23Z</time>
      </trkpt>
      <trkpt lat="45.68808" lon="6.58648">
        <ele>1491.835</ele>
        <time>2012-01-26T13:23:33Z</time>
      </trkpt>
      <trkpt lat="45.6881" lon="6.58648">
        <ele>1491.951</ele>
        <time>2012-01-26T13:23:43Z</time>
      </trkpt>
      <trkpt lat="45.6881" lon="6.58648">
        <ele>1492.111</ele>
        <time>2012-01-26T13:23:53Z</time>
      </trkpt>
      <trkpt lat="45.68811" lon="6.58648">
        <ele>1491.916</ele>
        <time>2012-01-26T13:24:03Z</time>
      </trkpt>
      <trkpt lat="45.68811" lon="6.58648">
        <ele>1491.916</ele>
        <time>2012-01-26T13:24:13Z</time>
      </trkpt>
      <trkpt lat="45.68811" lon="6.58648">
        <ele>1492.454</ele>
        <time>2012-01-26T13:24:23Z</time>
      </trkpt>
      <trkpt lat="45.68811" lon="6.58648">
        <ele>1491.953</ele>
        <time>2012-01-26T13:24:33Z</time>
      </trkpt>
      <trkpt lat="45.68809" lon="6.58642">
        <ele>1491.382</ele>
        <time>2012-01-26T13:24:43Z</time>
      </trkpt>
      <trkpt lat="45.68808" lon="6.58623">
        <ele>1490.657</ele>
        <time>2012-01-26T13:24:53Z</time>
      </trkpt>
      <trkpt lat="45.68808" lon="6.58606">
        <ele>1489.686</ele>
        <time>2012-01-26T13:25:03Z</time>
      </trkpt>
      <trkpt lat="45.68806" lon="6.58592">
        <ele>1488.053</ele>
        <time>2012-01-26T13:25:13Z</time>
      </trkpt>
      <trkpt lat="45.68804" lon="6.58577">
        <ele>1487.281</ele>
        <time>2012-01-26T13:25:23Z</time>
      </trkpt>
      <trkpt lat="45.68801" lon="6.58561">
        <ele>1485.91</ele>
        <time>2012-01-26T13:25:33Z</time>
      </trkpt>
      <trkpt lat="45.68797" lon="6.58548">
        <ele>1484.959</ele>
        <time>2012-01-26T13:25:43Z</time>
      </trkpt>
      <trkpt lat="45.68794" lon="6.58535">
        <ele>1484.204</ele>
        <time>2012-01-26T13:25:53Z</time>
      </trkpt>
      <trkpt lat="45.68793" lon="6.58524">
        <ele>1482.791</ele>
        <time>2012-01-26T13:26:03Z</time>
      </trkpt>
      <trkpt lat="45.68795" lon="6.5851">
        <ele>1481.508</ele>
        <time>2012-01-26T13:26:13Z</time>
      </trkpt>
      <trkpt lat="45.68796" lon="6.58497">
        <ele>1480.639</ele>
        <time>2012-01-26T13:26:23Z</time>
      </trkpt>
      <trkpt lat="45.68795" lon="6.58483">
        <ele>1479.763</ele>
        <time>2012-01-26T13:26:33Z</time>
      </trkpt>
      <trkpt lat="45.68794" lon="6.58469">
        <ele>1478.08</ele>
        <time>2012-01-26T13:26:43Z</time>
      </trkpt>
      <trkpt lat="45.68795" lon="6.58453">
        <ele>1476.885</ele>
        <time>2012-01-26T13:26:53Z</time>
      </trkpt>
      <trkpt lat="45.68795" lon="6.58438">
        <ele>1475.733</ele>
        <time>2012-01-26T13:27:03Z</time>
      </trkpt>
      <trkpt lat="45.68794" lon="6.58423">
        <ele>1474.717</ele>
        <time>2012-01-26T13:27:13Z</time>
      </trkpt>
      <trkpt lat="45.68794" lon="6.58409">
        <ele>1473.072</ele>
        <time>2012-01-26T13:27:23Z</time>
      </trkpt>
      <trkpt lat="45.68796" lon="6.58394">
        <ele>1472.534</ele>
        <time>2012-01-26T13:27:33Z</time>
      </trkpt>
      <trkpt lat="45.68796" lon="6.5838">
        <ele>1470.847</ele>
        <time>2012-01-26T13:27:43Z</time>
      </trkpt>
      <trkpt lat="45.68796" lon="6.58366">
        <ele>1470.431</ele>
        <time>2012-01-26T13:27:53Z</time>
      </trkpt>
      <trkpt lat="45.68796" lon="6.58352">
        <ele>1468.698</ele>
        <time>2012-01-26T13:28:03Z</time>
      </trkpt>
      <trkpt lat="45.68797" lon="6.58337">
        <ele>1467.657</ele>
        <time>2012-01-26T13:28:13Z</time>
      </trkpt>
      <trkpt lat="45.688" lon="6.58321">
        <ele>1466.721</ele>
        <time>2012-01-26T13:28:23Z</time>
      </trkpt>
      <trkpt lat="45.68805" lon="6.58308">
        <ele>1465.759</ele>
        <time>2012-01-26T13:28:33Z</time>
      </trkpt>
      <trkpt lat="45.68811" lon="6.58298">
        <ele>1464.616</ele>
        <time>2012-01-26T13:28:43Z</time>
      </trkpt>
      <trkpt lat="45.68814" lon="6.58292">
        <ele>1462.827</ele>
        <time>2012-01-26T13:28:53Z</time>
      </trkpt>
      <trkpt lat="45.68819" lon="6.58279">
        <ele>1462.463</ele>
        <time>2012-01-26T13:29:03Z</time>
      </trkpt>
      <trkpt lat="45.68825" lon="6.58269">
        <ele>1461.151</ele>
        <time>2012-01-26T13:29:13Z</time>
      </trkpt>
      <trkpt lat="45.68831" lon="6.58257">
        <ele>1459.737</ele>
        <time>2012-01-26T13:29:23Z</time>
      </trkpt>
      <trkpt lat="45.68835" lon="6.58246">
        <ele>1458.733</ele>
        <time>2012-01-26T13:29:33Z</time>
      </trkpt>
      <trkpt lat="45.68843" lon="6.58238">
        <ele>1457.387</ele>
        <time>2012-01-26T13:29:43Z</time>
      </trkpt>
      <trkpt lat="45.68853" lon="6.58235">
        <ele>1455.927</ele>
        <time>2012-01-26T13:29:53Z</time>
      </trkpt>
      <trkpt lat="45.68861" lon="6.58216">
        <ele>1453.588</ele>
        <time>2012-01-26T13:30:03Z</time>
      </trkpt>
      <trkpt lat="45.68867" lon="6.58203">
        <ele>1451.983</ele>
        <time>2012-01-26T13:30:13Z</time>
      </trkpt>
      <trkpt lat="45.6887" lon="6.58192">
        <ele>1451.121</ele>
        <time>2012-01-26T13:30:23Z</time>
      </trkpt>
      <trkpt lat="45.68873" lon="6.58179">
        <ele>1449.941</ele>
        <time>2012-01-26T13:30:33Z</time>
      </trkpt>
      <trkpt lat="45.68874" lon="6.58168">
        <ele>1449.129</ele>
        <time>2012-01-26T13:30:43Z</time>
      </trkpt>
      <trkpt lat="45.68873" lon="6.58158">
        <ele>1448.181</ele>
        <time>2012-01-26T13:30:53Z</time>
      </trkpt>
      <trkpt lat="45.68871" lon="6.58148">
        <ele>1447.906</ele>
        <time>2012-01-26T13:31:03Z</time>
      </trkpt>
      <trkpt lat="45.68867" lon="6.58138">
        <ele>1447.547</ele>
        <time>2012-01-26T13:31:13Z</time>
      </trkpt>
      <trkpt lat="45.68865" lon="6.5813">
        <ele>1446.735</ele>
        <time>2012-01-26T13:31:23Z</time>
      </trkpt>
      <trkpt lat="45.68865" lon="6.58131">
        <ele>1446.946</ele>
        <time>2012-01-26T13:31:33Z</time>
      </trkpt>
      <trkpt lat="45.68865" lon="6.58128">
        <ele>1447.083</ele>
        <time>2012-01-26T13:31:43Z</time>
      </trkpt>
      <trkpt lat="45.68861" lon="6.58116">
        <ele>1445.979</ele>
        <time>2012-01-26T13:31:53Z</time>
      </trkpt>
      <trkpt lat="45.68861" lon="6.58117">
        <ele>1445.879</ele>
        <time>2012-01-26T13:32:03Z</time>
      </trkpt>
      <trkpt lat="45.68859" lon="6.58107">
        <ele>1445.076</ele>
        <time>2012-01-26T13:32:13Z</time>
      </trkpt>
      <trkpt lat="45.68856" lon="6.58094">
        <ele>1444.49</ele>
        <time>2012-01-26T13:32:23Z</time>
      </trkpt>
      <trkpt lat="45.68855" lon="6.58083">
        <ele>1443.665</ele>
        <time>2012-01-26T13:32:33Z</time>
      </trkpt>
      <trkpt lat="45.68855" lon="6.5807">
        <ele>1442.35</ele>
        <time>2012-01-26T13:32:43Z</time>
      </trkpt>
      <trkpt lat="45.68854" lon="6.58055">
        <ele>1441.691</ele>
        <time>2012-01-26T13:32:53Z</time>
      </trkpt>
      <trkpt lat="45.68854" lon="6.58041">
        <ele>1440.264</ele>
        <time>2012-01-26T13:33:03Z</time>
      </trkpt>
      <trkpt lat="45.68853" lon="6.58027">
        <ele>1439.545</ele>
        <time>2012-01-26T13:33:13Z</time>
      </trkpt>
      <trkpt lat="45.68854" lon="6.58014">
        <ele>1438.01</ele>
        <time>2012-01-26T13:33:23Z</time>
      </trkpt>
      <trkpt lat="45.68855" lon="6.58">
        <ele>1437.123</ele>
        <time>2012-01-26T13:33:33Z</time>
      </trkpt>
      <trkpt lat="45.68855" lon="6.57985">
        <ele>1435.774</ele>
        <time>2012-01-26T13:33:43Z</time>
      </trkpt>
      <trkpt lat="45.68852" lon="6.57971">
        <ele>1435.142</ele>
        <time>2012-01-26T13:33:53Z</time>
      </trkpt>
      <trkpt lat="45.68849" lon="6.57957">
        <ele>1433.914</ele>
        <time>2012-01-26T13:34:03Z</time>
      </trkpt>
      <trkpt lat="45.68847" lon="6.57946">
        <ele>1432.777</ele>
        <time>2012-01-26T13:34:13Z</time>
      </trkpt>
      <trkpt lat="45.68843" lon="6.57933">
        <ele>1431.305</ele>
        <time>2012-01-26T13:34:23Z</time>
      </trkpt>
      <trkpt lat="45.68838" lon="6.5792">
        <ele>1430.433</ele>
        <time>2012-01-26T13:34:33Z</time>
      </trkpt>
      <trkpt lat="45.68833" lon="6.57907">
        <ele>1429.405</ele>
        <time>2012-01-26T13:34:43Z</time>
      </trkpt>
      <trkpt lat="45.68828" lon="6.57896">
        <ele>1428.528</ele>
        <time>2012-01-26T13:34:53Z</time>
      </trkpt>
      <trkpt lat="45.68825" lon="6.57881">
        <ele>1427.505</ele>
        <time>2012-01-26T13:35:03Z</time>
      </trkpt>
      <trkpt lat="45.68824" lon="6.5787">
        <ele>1426.914</ele>
        <time>2012-01-26T13:35:13Z</time>
      </trkpt>
      <trkpt lat="45.68824" lon="6.5787">
        <ele>1426.567</ele>
        <time>2012-01-26T13:35:23Z</time>
      </trkpt>
      <trkpt lat="45.68823" lon="6.57868">
        <ele>1426.426</ele>
        <time>2012-01-26T13:35:33Z</time>
      </trkpt>
      <trkpt lat="45.68817" lon="6.57861">
        <ele>1423.423</ele>
        <time>2012-01-26T13:35:43Z</time>
      </trkpt>
      <trkpt lat="45.68807" lon="6.57854">
        <ele>1419.37</ele>
        <time>2012-01-26T13:35:53Z</time>
      </trkpt>
      <trkpt lat="45.68799" lon="6.57848">
        <ele>1416.842</ele>
        <time>2012-01-26T13:36:03Z</time>
      </trkpt>
      <trkpt lat="45.6879" lon="6.57842">
        <ele>1413.578</ele>
        <time>2012-01-26T13:36:13Z</time>
      </trkpt>
      <trkpt lat="45.68789" lon="6.57837">
        <ele>1412.397</ele>
        <time>2012-01-26T13:36:23Z</time>
      </trkpt>
      <trkpt lat="45.68785" lon="6.5785">
        <ele>1411.571</ele>
        <time>2012-01-26T13:36:33Z</time>
      </trkpt>
      <trkpt lat="45.68783" lon="6.57854">
        <ele>1411.404</ele>
        <time>2012-01-26T13:36:43Z</time>
      </trkpt>
      <trkpt lat="45.68781" lon="6.5786">
        <ele>1410.413</ele>
        <time>2012-01-26T13:36:53Z</time>
      </trkpt>
      <trkpt lat="45.68781" lon="6.5786">
        <ele>1410.768</ele>
        <time>2012-01-26T13:37:03Z</time>
      </trkpt>
      <trkpt lat="45.68781" lon="6.5786">
        <ele>1410.757</ele>
        <time>2012-01-26T13:37:13Z</time>
      </trkpt>
      <trkpt lat="45.68781" lon="6.5786">
        <ele>1411.095</ele>
        <time>2012-01-26T13:37:23Z</time>
      </trkpt>
      <trkpt lat="45.68781" lon="6.5786">
        <ele>1410.692</ele>
        <time>2012-01-26T13:37:33Z</time>
      </trkpt>
      <trkpt lat="45.68781" lon="6.5786">
        <ele>1410.653</ele>
        <time>2012-01-26T13:37:43Z</time>
      </trkpt>
      <trkpt lat="45.68781" lon="6.5786">
        <ele>1410.707</ele>
        <time>2012-01-26T13:37:53Z</time>
      </trkpt>
      <trkpt lat="45.68781" lon="6.5786">
        <ele>1410.757</ele>
        <time>2012-01-26T13:38:03Z</time>
      </trkpt>
      <trkpt lat="45.68781" lon="6.5786">
        <ele>1410.39</ele>
        <time>2012-01-26T13:38:13Z</time>
      </trkpt>
      <trkpt lat="45.68781" lon="6.5786">
        <ele>1410.785</ele>
        <time>2012-01-26T13:38:23Z</time>
      </trkpt>
      <trkpt lat="45.68781" lon="6.5786">
        <ele>1410.836</ele>
        <time>2012-01-26T13:38:33Z</time>
      </trkpt>
      <trkpt lat="45.68781" lon="6.5786">
        <ele>1410.95</ele>
        <time>2012-01-26T13:38:43Z</time>
      </trkpt>
      <trkpt lat="45.68781" lon="6.5786">
        <ele>1410.935</ele>
        <time>2012-01-26T13:38:53Z</time>
      </trkpt>
      <trkpt lat="45.68781" lon="6.5786">
        <ele>1411.335</ele>
        <time>2012-01-26T13:39:03Z</time>
      </trkpt>
      <trkpt lat="45.68781" lon="6.5786">
        <ele>1411.446</ele>
        <time>2012-01-26T13:39:13Z</time>
      </trkpt>
      <trkpt lat="45.68781" lon="6.5786">
        <ele>1411.784</ele>
        <time>2012-01-26T13:39:23Z</time>
      </trkpt>
      <trkpt lat="45.68781" lon="6.5786">
        <ele>1411.224</ele>
        <time>2012-01-26T13:39:33Z</time>
      </trkpt>
      <trkpt lat="45.68781" lon="6.5786">
        <ele>1411.096</ele>
        <time>2012-01-26T13:39:43Z</time>
      </trkpt>
      <trkpt lat="45.68781" lon="6.5786">
        <ele>1411.201</ele>
        <time>2012-01-26T13:39:53Z</time>
      </trkpt>
      <trkpt lat="45.68781" lon="6.5786">
        <ele>1411.415</ele>
        <time>2012-01-26T13:40:03Z</time>
      </trkpt>
      <trkpt lat="45.68781" lon="6.5786">
        <ele>1411.274</ele>
        <time>2012-01-26T13:40:13Z</time>
      </trkpt>
      <trkpt lat="45.68781" lon="6.5786">
        <ele>1411.528</ele>
        <time>2012-01-26T13:40:23Z</time>
      </trkpt>
      <trkpt lat="45.68781" lon="6.5786">
        <ele>1411.552</ele>
        <time>2012-01-26T13:40:33Z</time>
      </trkpt>
      <trkpt lat="45.68781" lon="6.5786">
        <ele>1411.428</ele>
        <time>2012-01-26T13:40:43Z</time>
      </trkpt>
      <trkpt lat="45.68781" lon="6.5786">
        <ele>1411.68</ele>
        <time>2012-01-26T13:40:53Z</time>
      </trkpt>
      <trkpt lat="45.68781" lon="6.5786">
        <ele>1411.872</ele>
        <time>2012-01-26T13:41:03Z</time>
      </trkpt>
      <trkpt lat="45.68781" lon="6.5786">
        <ele>1411.644</ele>
        <time>2012-01-26T13:41:13Z</time>
      </trkpt>
      <trkpt lat="45.6878" lon="6.5786">
        <ele>1411.485</ele>
        <time>2012-01-26T13:41:23Z</time>
      </trkpt>
      <trkpt lat="45.6878" lon="6.5786">
        <ele>1411.928</ele>
        <time>2012-01-26T13:41:33Z</time>
      </trkpt>
      <trkpt lat="45.6878" lon="6.5786">
        <ele>1412.109</ele>
        <time>2012-01-26T13:41:43Z</time>
      </trkpt>
      <trkpt lat="45.68778" lon="6.5787">
        <ele>1411.643</ele>
        <time>2012-01-26T13:41:53Z</time>
      </trkpt>
      <trkpt lat="45.68778" lon="6.57872">
        <ele>1410.889</ele>
        <time>2012-01-26T13:42:03Z</time>
      </trkpt>
      <trkpt lat="45.68778" lon="6.57872">
        <ele>1411.143</ele>
        <time>2012-01-26T13:42:13Z</time>
      </trkpt>
      <trkpt lat="45.68778" lon="6.57872">
        <ele>1410.962</ele>
        <time>2012-01-26T13:42:23Z</time>
      </trkpt>
      <trkpt lat="45.68779" lon="6.57882">
        <ele>1410.694</ele>
        <time>2012-01-26T13:42:33Z</time>
      </trkpt>
      <trkpt lat="45.68783" lon="6.57894">
        <ele>1409.54</ele>
        <time>2012-01-26T13:42:43Z</time>
      </trkpt>
      <trkpt lat="45.68791" lon="6.57905">
        <ele>1408.232</ele>
        <time>2012-01-26T13:42:53Z</time>
      </trkpt>
      <trkpt lat="45.68794" lon="6.57917">
        <ele>1407.282</ele>
        <time>2012-01-26T13:43:03Z</time>
      </trkpt>
      <trkpt lat="45.68797" lon="6.57931">
        <ele>1406.1</ele>
        <time>2012-01-26T13:43:13Z</time>
      </trkpt>
      <trkpt lat="45.68801" lon="6.57947">
        <ele>1404.847</ele>
        <time>2012-01-26T13:43:23Z</time>
      </trkpt>
      <trkpt lat="45.68799" lon="6.5796">
        <ele>1403.866</ele>
        <time>2012-01-26T13:43:33Z</time>
      </trkpt>
      <trkpt lat="45.68799" lon="6.5797">
        <ele>1402.72</ele>
        <time>2012-01-26T13:43:43Z</time>
      </trkpt>
      <trkpt lat="45.68797" lon="6.57978">
        <ele>1402.18</ele>
        <time>2012-01-26T13:43:53Z</time>
      </trkpt>
      <trkpt lat="45.68792" lon="6.57987">
        <ele>1401.567</ele>
        <time>2012-01-26T13:44:03Z</time>
      </trkpt>
      <trkpt lat="45.68792" lon="6.57987">
        <ele>1400.931</ele>
        <time>2012-01-26T13:44:13Z</time>
      </trkpt>
      <trkpt lat="45.68787" lon="6.57987">
        <ele>1398.923</ele>
        <time>2012-01-26T13:44:23Z</time>
      </trkpt>
      <trkpt lat="45.68782" lon="6.57987">
        <ele>1396.188</ele>
        <time>2012-01-26T13:44:33Z</time>
      </trkpt>
      <trkpt lat="45.68782" lon="6.57986">
        <ele>1395.042</ele>
        <time>2012-01-26T13:44:43Z</time>
      </trkpt>
      <trkpt lat="45.68782" lon="6.57986">
        <ele>1395.289</ele>
        <time>2012-01-26T13:44:53Z</time>
      </trkpt>
      <trkpt lat="45.68782" lon="6.57986">
        <ele>1395.983</ele>
        <time>2012-01-26T13:45:03Z</time>
      </trkpt>
      <trkpt lat="45.68782" lon="6.57986">
        <ele>1394.41</ele>
        <time>2012-01-26T13:45:13Z</time>
      </trkpt>
      <trkpt lat="45.68782" lon="6.57986">
        <ele>1395.577</ele>
        <time>2012-01-26T13:45:23Z</time>
      </trkpt>
      <trkpt lat="45.68781" lon="6.57985">
        <ele>1394.418</ele>
        <time>2012-01-26T13:45:33Z</time>
      </trkpt>
      <trkpt lat="45.68781" lon="6.57985">
        <ele>1394.41</ele>
        <time>2012-01-26T13:45:43Z</time>
      </trkpt>
      <trkpt lat="45.68781" lon="6.57985">
        <ele>1394.189</ele>
        <time>2012-01-26T13:45:53Z</time>
      </trkpt>
      <trkpt lat="45.68774" lon="6.57979">
        <ele>1392.663</ele>
        <time>2012-01-26T13:46:03Z</time>
      </trkpt>
      <trkpt lat="45.68769" lon="6.57974">
        <ele>1388.985</ele>
        <time>2012-01-26T13:46:13Z</time>
      </trkpt>
      <trkpt lat="45.6876" lon="6.57969">
        <ele>1383.889</ele>
        <time>2012-01-26T13:46:23Z</time>
      </trkpt>
      <trkpt lat="45.68749" lon="6.57966">
        <ele>1380.989</ele>
        <time>2012-01-26T13:46:33Z</time>
      </trkpt>
      <trkpt lat="45.68736" lon="6.57965">
        <ele>1378.09</ele>
        <time>2012-01-26T13:46:43Z</time>
      </trkpt>
      <trkpt lat="45.68726" lon="6.57964">
        <ele>1374.348</ele>
        <time>2012-01-26T13:46:53Z</time>
      </trkpt>
      <trkpt lat="45.68726" lon="6.57966">
        <ele>1373.232</ele>
        <time>2012-01-26T13:47:03Z</time>
      </trkpt>
      <trkpt lat="45.68726" lon="6.57966">
        <ele>1373.587</ele>
        <time>2012-01-26T13:47:13Z</time>
      </trkpt>
      <trkpt lat="45.68726" lon="6.57966">
        <ele>1373.746</ele>
        <time>2012-01-26T13:47:23Z</time>
      </trkpt>
      <trkpt lat="45.68726" lon="6.57966">
        <ele>1373.12</ele>
        <time>2012-01-26T13:47:33Z</time>
      </trkpt>
      <trkpt lat="45.68726" lon="6.57966">
        <ele>1373.198</ele>
        <time>2012-01-26T13:47:43Z</time>
      </trkpt>
      <trkpt lat="45.68726" lon="6.57966">
        <ele>1373.54</ele>
        <time>2012-01-26T13:47:53Z</time>
      </trkpt>
      <trkpt lat="45.68726" lon="6.57966">
        <ele>1373.627</ele>
        <time>2012-01-26T13:48:03Z</time>
      </trkpt>
      <trkpt lat="45.68726" lon="6.57965">
        <ele>1373.317</ele>
        <time>2012-01-26T13:48:13Z</time>
      </trkpt>
      <trkpt lat="45.68726" lon="6.57966">
        <ele>1373.274</ele>
        <time>2012-01-26T13:48:23Z</time>
      </trkpt>
      <trkpt lat="45.68726" lon="6.57966">
        <ele>1373.657</ele>
        <time>2012-01-26T13:48:33Z</time>
      </trkpt>
      <trkpt lat="45.68726" lon="6.57966">
        <ele>1373.558</ele>
        <time>2012-01-26T13:48:43Z</time>
      </trkpt>
      <trkpt lat="45.68726" lon="6.57966">
        <ele>1373.835</ele>
        <time>2012-01-26T13:48:53Z</time>
      </trkpt>
      <trkpt lat="45.68726" lon="6.57966">
        <ele>1373.418</ele>
        <time>2012-01-26T13:49:03Z</time>
      </trkpt>
      <trkpt lat="45.68726" lon="6.57967">
        <ele>1373.438</ele>
        <time>2012-01-26T13:49:13Z</time>
      </trkpt>
      <trkpt lat="45.68726" lon="6.57967">
        <ele>1373.201</ele>
        <time>2012-01-26T13:49:23Z</time>
      </trkpt>
      <trkpt lat="45.68726" lon="6.57967">
        <ele>1373.772</ele>
        <time>2012-01-26T13:49:33Z</time>
      </trkpt>
      <trkpt lat="45.68723" lon="6.57958">
        <ele>1372.604</ele>
        <time>2012-01-26T13:49:43Z</time>
      </trkpt>
      <trkpt lat="45.68718" lon="6.57944">
        <ele>1371.157</ele>
        <time>2012-01-26T13:49:53Z</time>
      </trkpt>
      <trkpt lat="45.6871" lon="6.5793">
        <ele>1370.055</ele>
        <time>2012-01-26T13:50:03Z</time>
      </trkpt>
      <trkpt lat="45.68704" lon="6.57917">
        <ele>1369.01</ele>
        <time>2012-01-26T13:50:13Z</time>
      </trkpt>
      <trkpt lat="45.68697" lon="6.57903">
        <ele>1367.806</ele>
        <time>2012-01-26T13:50:23Z</time>
      </trkpt>
      <trkpt lat="45.68691" lon="6.57891">
        <ele>1366.608</ele>
        <time>2012-01-26T13:50:33Z</time>
      </trkpt>
      <trkpt lat="45.68684" lon="6.57878">
        <ele>1364.686</ele>
        <time>2012-01-26T13:50:43Z</time>
      </trkpt>
      <trkpt lat="45.68675" lon="6.57866">
        <ele>1363.287</ele>
        <time>2012-01-26T13:50:53Z</time>
      </trkpt>
      <trkpt lat="45.68668" lon="6.57854">
        <ele>1362.314</ele>
        <time>2012-01-26T13:51:03Z</time>
      </trkpt>
      <trkpt lat="45.68663" lon="6.5784">
        <ele>1360.798</ele>
        <time>2012-01-26T13:51:13Z</time>
      </trkpt>
      <trkpt lat="45.6866" lon="6.57825">
        <ele>1359.657</ele>
        <time>2012-01-26T13:51:23Z</time>
      </trkpt>
      <trkpt lat="45.68658" lon="6.57809">
        <ele>1358.574</ele>
        <time>2012-01-26T13:51:33Z</time>
      </trkpt>
      <trkpt lat="45.68658" lon="6.57791">
        <ele>1357.374</ele>
        <time>2012-01-26T13:51:43Z</time>
      </trkpt>
      <trkpt lat="45.68658" lon="6.57774">
        <ele>1356.586</ele>
        <time>2012-01-26T13:51:53Z</time>
      </trkpt>
      <trkpt lat="45.68661" lon="6.57759">
        <ele>1355.215</ele>
        <time>2012-01-26T13:52:03Z</time>
      </trkpt>
      <trkpt lat="45.68665" lon="6.57746">
        <ele>1354.075</ele>
        <time>2012-01-26T13:52:13Z</time>
      </trkpt>
      <trkpt lat="45.68668" lon="6.57731">
        <ele>1353.59</ele>
        <time>2012-01-26T13:52:23Z</time>
      </trkpt>
      <trkpt lat="45.68671" lon="6.57717">
        <ele>1353</ele>
        <time>2012-01-26T13:52:33Z</time>
      </trkpt>
      <trkpt lat="45.68677" lon="6.57702">
        <ele>1351.026</ele>
        <time>2012-01-26T13:52:43Z</time>
      </trkpt>
      <trkpt lat="45.6868" lon="6.57688">
        <ele>1349.577</ele>
        <time>2012-01-26T13:52:53Z</time>
      </trkpt>
      <trkpt lat="45.68683" lon="6.57684">
        <ele>1348.452</ele>
        <time>2012-01-26T13:53:03Z</time>
      </trkpt>
      <trkpt lat="45.68682" lon="6.57684">
        <ele>1348.955</ele>
        <time>2012-01-26T13:53:13Z</time>
      </trkpt>
      <trkpt lat="45.68685" lon="6.57678">
        <ele>1348.073</ele>
        <time>2012-01-26T13:53:23Z</time>
      </trkpt>
      <trkpt lat="45.68692" lon="6.57666">
        <ele>1346.915</ele>
        <time>2012-01-26T13:53:33Z</time>
      </trkpt>
      <trkpt lat="45.68701" lon="6.57657">
        <ele>1345.963</ele>
        <time>2012-01-26T13:53:43Z</time>
      </trkpt>
      <trkpt lat="45.68708" lon="6.5765">
        <ele>1345.951</ele>
        <time>2012-01-26T13:53:53Z</time>
      </trkpt>
      <trkpt lat="45.68709" lon="6.57649">
        <ele>1344.898</ele>
        <time>2012-01-26T13:54:03Z</time>
      </trkpt>
      <trkpt lat="45.68709" lon="6.57651">
        <ele>1345.109</ele>
        <time>2012-01-26T13:54:13Z</time>
      </trkpt>
      <trkpt lat="45.6871" lon="6.5765">
        <ele>1345.559</ele>
        <time>2012-01-26T13:54:23Z</time>
      </trkpt>
      <trkpt lat="45.68706" lon="6.57651">
        <ele>1345.318</ele>
        <time>2012-01-26T13:54:33Z</time>
      </trkpt>
      <trkpt lat="45.68706" lon="6.57652">
        <ele>1345.194</ele>
        <time>2012-01-26T13:54:43Z</time>
      </trkpt>
      <trkpt lat="45.68706" lon="6.57652">
        <ele>1345.329</ele>
        <time>2012-01-26T13:54:53Z</time>
      </trkpt>
      <trkpt lat="45.68706" lon="6.57652">
        <ele>1345.239</ele>
        <time>2012-01-26T13:55:03Z</time>
      </trkpt>
      <trkpt lat="45.68706" lon="6.57652">
        <ele>1345.259</ele>
        <time>2012-01-26T13:55:13Z</time>
      </trkpt>
      <trkpt lat="45.68706" lon="6.57652">
        <ele>1345.637</ele>
        <time>2012-01-26T13:55:23Z</time>
      </trkpt>
      <trkpt lat="45.68706" lon="6.57652">
        <ele>1345.312</ele>
        <time>2012-01-26T13:55:25Z</time>
      </trkpt>
      <trkpt lat="45.68706" lon="6.57652">
        <ele>1345.597</ele>
        <time>2012-01-26T13:55:33Z</time>
      </trkpt>
      <trkpt lat="45.68706" lon="6.57652">
        <ele>1344.956</ele>
        <time>2012-01-26T13:55:43Z</time>
      </trkpt>
      <trkpt lat="45.68706" lon="6.57652">
        <ele>1345.012</ele>
        <time>2012-01-26T13:55:53Z</time>
      </trkpt>
    </trkseg>
  </trk>
</gpx>